[[{"header":{"parameterUnit":"m.s-1","parameterCategory":1,"la1":31.0,"la2":29.5877,"lo1":-88.7671,"lo2":-86.6584,"dy":0.0162,"dx":0.0185,"nx":115,"ny":88,"refTime":"2024-07-24T12:00:00:Z","depth":0,"parameterNumber":2,"parameterNumberName":"U-component_of_WINDS"},"data":[0.0,0.0,0.0,0.0,0.0,0.0,0.0,0.0,0.0,0.0,0.0,0.0,0.0,0.0,0.0,0.0,0.0,0.0,0.0,0.0,0.0,0.0,0.0,0.0,0.0,0.0,0.0,0.0,0.0,0.0,0.0,0.0,0.0,0.0,0.0,0.0,0.0,0.0,0.0,0.0,0.0,0.0,0.0,0.0,0.0,0.0,0.0,0.0,0.0,0.0,0.0,0.0,0.0,0.0,0.0,0.0,0.0,0.0,0.0,0.0,0.0,0.0,0.0,0.0,0.0,0.0,0.0,0.0,0.0,0.0,0.0,0.0,0.0,0.0,0.0,0.0,0.0,0.0,0.0,0.0,0.0,0.0,0.0,0.0,0.0,0.0,0.0,0.0,0.0,0.0,0.0,0.0,0.0,0.0,0.0,0.0,0.0,0.0,0.0,0.0,0.0,0.0,0.0,0.0,0.0,0.0,0.0,0.0,0.0,0.0,0.0,0.0,0.0,0.0,0.0,0.0,0.0,0.0,0.0,0.0,0.0,0.0,0.0,0.0,0.0,0.0,0.0,0.0,0.0,0.0,0.0,0.0,0.0,0.0,0.0,0.0,0.0,0.0,0.0,0.0,0.0,0.0,0.0,0.0,0.0,0.0,0.0,0.0,0.0,0.0,0.0,0.0,0.0,0.0,0.0,0.0,0.0,0.0,0.0,0.0,0.0,0.0,0.0,0.0,0.0,0.0,0.0,0.0,0.0,0.0,0.0,0.0,0.0,0.0,0.0,0.0,0.0,0.0,0.0,0.0,0.0,0.0,0.0,0.0,0.0,0.0,0.0,0.0,0.0,0.0,0.0,0.0,0.0,0.0,0.0,0.0,0.0,0.0,0.0,0.0,0.0,0.0,0.0,0.0,0.0,0.0,0.0,0.0,0.0,0.0,0.0,0.0,0.0,0.0,0.0,0.0,0.0,0.0,0.0,0.0,0.0,0.0,0.0,0.0,0.0,0.0,0.0,0.0,0.0,0.0,0.0,0.0,0.0,0.0,0.0,0.0,0.0,0.0,0.0,0.0,0.0,0.0,0.0,0.0,0.0,0.0,0.0,0.0,0.0,0.0,0.0,0.0,0.0,0.0,0.0,0.0,0.0,0.0,0.0,0.0,0.0,0.0,0.0,0.0,0.0,0.0,0.0,0.0,0.0,0.0,0.0,0.0,0.0,0.0,0.0,0.0,0.0,0.0,0.0,0.0,0.0,0.0,0.0,0.0,0.0,0.0,0.0,0.0,0.0,0.0,0.0,0.0,0.0,0.0,0.0,0.0,0.0,0.0,0.0,0.0,0.0,0.0,0.0,0.0,0.0,0.0,0.0,0.0,0.0,0.0,0.0,0.0,0.0,0.0,0.0,0.0,0.0,0.0,0.0,0.0,0.0,0.0,0.0,0.0,0.0,0.0,0.0,0.0,0.0,0.0,0.0,0.0,0.0,0.0,0.0,0.0,0.0,0.0,0.0,0.0,0.0,0.0,0.0,0.0,0.0,0.0,0.0,0.0,0.0,0.0,0.0,0.0,0.0,0.0,0.0,0.0,0.0,0.0,0.0,0.0,0.0,0.0,0.0,0.0,0.0,0.0,0.0,0.0,0.0,0.0,0.0,0.0,0.0,0.0,0.0,0.0,0.0,0.0,0.0,0.0,0.0,0.0,0.0,0.0,0.0,0.0,0.0,0.0,0.0,0.0,0.0,0.0,0.0,0.0,0.0,0.0,0.0,0.0,0.0,0.0,0.0,0.0,0.0,0.0,0.0,0.0,0.0,0.0,0.0,0.0,0.0,0.0,0.0,0.0,0.0,0.0,0.0,0.0,0.0,0.0,0.0,0.0,0.0,0.0,0.0,0.0,0.0,0.0,0.0,0.0,0.0,0.0,0.0,0.0,0.0,0.0,0.0,0.0,0.0,0.0,0.0,0.0,0.0,0.0,0.0,0.0,0.0,0.0,0.0,0.0,0.0,0.0,0.0,0.0,0.0,0.0,0.0,0.0,0.0,0.0,0.0,0.0,0.0,0.0,0.0,0.0,0.0,0.0,0.0,0.0,0.0,0.0,0.0,0.0,0.0,0.0,0.0,0.0,0.0,0.0,0.0,0.0,0.0,0.0,0.0,0.0,0.0,0.0,0.0,0.0,0.0,0.0,0.0,0.0,0.0,0.0,0.0,0.0,0.0,0.0,0.0,0.0,0.0,0.0,0.0,0.0,0.0,0.0,0.0,0.0,0.0,0.0,0.0,0.0,0.0,0.0,0.0,0.0,0.0,0.0,0.0,0.0,0.0,0.0,0.0,0.0,0.0,0.0,0.0,0.0,0.0,0.0,0.0,0.0,0.0,0.0,0.0,0.0,0.0,0.0,0.0,0.0,0.0,0.0,0.0,0.0,0.0,0.0,0.0,0.0,0.0,0.0,0.0,0.0,0.0,0.0,0.0,0.0,0.0,0.0,0.0,0.0,0.0,0.0,0.0,0.0,0.0,0.0,0.0,0.0,0.0,0.0,0.0,0.0,0.0,0.0,0.0,0.0,0.0,0.0,0.0,0.0,0.0,0.0,0.0,0.0,0.0,0.0,0.0,0.0,0.0,0.0,0.0,0.0,0.0,0.0,0.0,0.0,0.0,0.0,0.0,0.0,0.0,0.0,0.0,0.0,0.0,0.0,0.0,0.0,0.0,0.0,0.0,0.0,0.0,0.0,0.0,0.0,0.0,0.0,0.0,0.0,0.0,0.0,0.0,0.0,0.0,0.0,0.0,0.0,0.0,0.0,0.0,0.0,0.0,0.0,0.0,0.0,0.0,0.0,0.0,0.0,0.0,0.0,0.0,0.0,0.0,0.0,0.0,0.0,0.0,0.0,0.0,0.0,0.0,0.0,0.0,0.0,0.0,0.0,0.0,0.0,0.0,0.0,0.0,0.0,0.0,0.0,0.0,0.0,0.0,0.0,0.0,0.0,0.0,0.0,0.0,0.0,0.0,0.0,0.0,0.0,0.0,0.0,0.0,0.0,0.0,0.0,0.0,0.0,0.0,0.0,0.0,0.0,0.0,0.0,0.0,0.0,0.0,0.0,0.0,0.0,0.0,0.0,0.0,0.0,0.0,0.0,0.0,0.0,0.0,0.0,0.0,0.0,0.0,0.0,0.0,0.0,0.0,0.0,0.0,0.0,0.0,0.0,0.0,0.0,0.0,0.0,0.0,0.0,0.0,0.0,0.0,0.0,0.0,0.0,0.0,0.0,0.0,0.0,0.0,0.0,0.0,0.0,0.0,0.0,0.0,0.0,0.0,0.0,0.0,0.0,0.0,0.0,0.0,0.0,0.0,0.0,0.0,0.0,0.0,0.0,0.0,0.0,0.0,0.0,0.0,0.0,0.0,0.0,0.0,0.0,0.0,0.0,0.0,0.0,0.0,0.0,0.0,0.0,0.0,0.0,0.0,0.0,0.0,0.0,0.0,0.0,0.0,0.0,0.0,0.0,0.0,0.0,0.0,0.0,0.0,0.0,0.0,0.0,0.0,0.0,0.0,0.0,0.0,0.0,0.0,0.0,0.0,0.0,0.0,0.0,0.0,0.0,0.0,0.0,0.0,0.0,0.0,0.0,0.0,0.0,0.0,0.0,0.0,0.0,0.0,0.0,0.0,0.0,0.0,0.0,0.0,0.0,0.0,0.0,0.0,0.0,0.0,0.0,0.0,0.0,0.0,0.0,0.0,0.0,0.0,0.0,0.0,0.0,0.0,0.0,0.0,0.0,0.0,0.0,0.0,0.0,0.0,0.0,0.0,0.0,0.0,0.0,0.0,0.0,0.0,0.0,0.0,0.0,0.0,0.0,0.0,0.0,0.0,0.0,0.0,0.0,0.0,0.0,0.0,0.0,0.0,0.0,0.0,0.0,0.0,0.0,0.0,0.0,0.0,0.0,0.0,0.0,0.0,0.0,0.0,0.0,0.0,0.0,0.0,0.0,0.0,0.0,0.0,0.0,0.0,0.0,0.0,0.0,0.0,0.0,0.0,0.0,0.0,0.0,0.0,0.0,0.0,0.0,0.0,0.0,0.0,0.0,0.0,0.0,0.0,0.0,0.0,0.0,0.0,0.0,0.0,0.0,0.0,0.0,0.0,0.0,0.0,0.0,0.0,0.0,0.0,0.0,0.0,0.0,0.0,0.0,0.0,0.0,0.0,0.0,0.0,0.0,0.0,0.0,0.0,0.0,0.0,0.0,0.0,0.0,0.0,0.0,0.0,0.0,0.922,0.0,0.0,0.0,0.0,0.0,0.0,0.0,0.0,0.0,0.0,0.0,0.0,0.0,0.0,0.0,0.0,0.0,0.0,0.0,0.0,0.0,0.0,0.0,0.0,0.0,0.0,0.0,0.0,0.0,0.0,0.0,0.0,0.0,0.0,0.0,0.0,0.0,0.0,0.0,0.0,0.0,0.0,0.0,0.0,0.0,0.0,0.0,0.0,0.0,0.0,0.0,0.0,0.0,0.0,0.0,0.0,0.0,0.0,0.0,0.0,0.0,0.0,0.0,0.0,0.0,0.0,0.0,0.0,0.0,0.0,0.0,0.0,0.0,0.0,0.0,0.0,0.0,0.0,0.0,0.0,0.0,0.0,0.0,0.0,0.0,0.0,0.0,0.0,0.0,0.0,0.0,0.0,0.0,0.0,0.0,0.0,0.0,0.0,0.0,0.0,0.0,0.0,0.0,0.0,0.0,0.0,0.0,0.0,0.0,0.0,0.8756,0.9057,0.9234,0.931,0.9303,0.0,0.0,0.0,0.0,0.0,0.0,0.0,0.0,0.0,0.0,0.0,0.0,0.0,0.0,0.0,0.0,0.0,0.0,0.0,0.0,0.0,0.0,0.0,0.0,0.0,0.0,0.0,0.0,0.0,0.0,0.0,0.0,0.0,0.0,0.0,0.0,0.0,0.0,0.0,0.0,0.0,0.0,0.0,0.0,0.0,0.0,0.0,0.0,0.0,0.0,0.0,0.0,0.0,0.0,0.0,0.0,0.0,0.0,0.0,0.0,0.0,0.0,0.0,0.0,0.0,0.0,0.0,0.0,0.0,0.0,0.0,0.0,0.0,0.0,0.0,0.0,0.0,0.0,0.0,0.0,0.0,0.0,0.0,0.0,0.0,0.0,0.0,0.0,0.0,0.0,0.0,0.0,0.0,0.0,0.0,0.0,0.0,0.0,0.0,0.0,0.0,0.0,0.0,0.0,0.0,0.0,0.0,0.0,0.0,0.0,0.0,0.0,0.993,0.9977,0.995,0.0,0.0,0.0,0.0,0.0,0.0,0.0,0.0,0.0,0.0,0.0,0.0,0.0,0.0,0.0,0.0,0.0,0.0,0.0,0.0,0.0,0.0,0.0,0.0,0.0,0.0,0.0,0.0,0.0,0.0,0.0,0.0,0.0,0.0,0.0,0.0,0.0,0.0,0.0,0.0,0.0,0.0,0.0,0.0,0.0,0.0,0.0,0.0,0.0,0.0,0.0,0.0,0.0,0.0,0.0,0.0,0.0,0.0,0.0,0.0,0.0,0.0,0.0,0.0,0.0,0.0,0.0,0.0,0.0,0.0,0.0,0.0,0.0,0.0,0.0,0.0,0.0,0.0,0.0,0.0,0.0,0.0,0.0,0.0,0.0,0.0,0.0,0.0,0.0,0.0,0.0,0.0,0.0,0.0,0.0,0.0,0.0,0.0,0.0,0.0,0.0,0.0,0.0,0.0,0.0,0.0,0.0,0.0,0.0,0.0,0.9843,1.1244,1.1607,0.0,1.1677,0.0,0.0,0.0,0.0,0.0,0.0,0.0,0.0,0.0,0.0,0.0,0.0,0.0,0.0,0.0,0.0,0.0,0.0,0.0,0.0,0.0,0.0,0.0,0.0,0.0,0.0,0.0,0.0,0.0,0.0,0.0,0.0,0.0,0.0,0.0,0.0,0.0,0.0,0.0,0.0,0.0,0.0,0.0,0.0,0.0,0.0,0.0,0.0,0.0,0.0,0.0,0.0,0.0,0.0,0.0,0.0,0.0,0.0,0.0,0.0,0.0,0.0,0.0,0.0,0.0,0.0,0.0,0.0,0.0,0.0,0.0,0.0,0.0,0.0,0.0,0.0,0.0,0.0,0.0,0.0,0.0,0.0,0.0,0.0,0.0,0.0,0.0,0.0,0.0,0.0,0.0,0.0,0.0,0.0,0.0,0.0,0.0,0.0,0.0,0.0,0.0,0.0,0.0,0.0,0.0,0.0,0.0,0.0,0.0,0.0,0.0,1.1772,1.2041,1.2159,0.0,0.0,0.0,0.0,0.0,0.0,0.0,0.0,0.0,0.0,0.0,0.0,0.0,0.0,0.0,0.0,0.0,0.0,0.0,0.0,0.0,0.0,0.0,0.0,0.0,0.0,0.0,0.0,0.0,0.0,0.0,0.0,0.0,0.0,0.0,0.0,0.0,0.0,0.0,0.0,0.0,0.0,0.0,0.0,0.0,0.0,0.0,0.0,0.0,0.0,0.0,0.0,0.0,0.0,0.0,0.0,0.0,0.0,0.0,0.0,0.0,0.0,0.0,0.0,0.0,0.0,0.0,0.0,0.0,0.0,0.0,0.0,0.0,0.0,0.0,0.0,0.0,0.0,0.0,0.0,0.0,0.0,0.0,0.0,0.0,0.0,0.0,0.0,0.0,0.0,0.0,0.0,0.0,0.0,0.0,0.0,0.0,0.0,0.0,0.0,0.0,0.0,0.0,0.0,0.0,0.0,0.0,0.0,0.0,0.0,1.1334,0.0,1.2715,1.2654,1.2525,1.2337,0.0,0.0,0.0,0.0,0.0,0.0,0.0,0.0,0.0,0.0,0.0,0.0,0.0,0.0,0.0,0.0,0.0,0.0,0.0,0.0,0.0,0.0,0.0,0.0,0.0,0.0,0.0,0.0,0.0,0.0,0.0,0.0,0.0,0.0,0.0,0.0,0.0,0.0,0.0,0.0,0.0,0.0,0.0,0.0,0.0,0.0,0.0,0.0,0.0,0.0,0.0,0.0,0.0,0.0,0.0,0.0,0.0,0.0,0.0,0.0,0.0,0.0,0.0,0.0,0.0,0.0,0.0,0.0,0.0,0.0,0.0,0.0,0.0,0.0,0.0,0.0,0.0,0.0,0.0,0.0,0.0,0.0,0.0,0.0,0.0,0.0,0.0,0.0,0.0,0.0,0.0,0.0,0.0,0.0,0.0,0.0,0.0,0.0,0.0,0.0,0.0,0.0,0.0,0.0,0.0,0.0,0.0,0.0,0.0,1.2519,1.273,1.4569,1.381,1.3057,0.0,0.0,0.0,0.0,0.0,0.0,0.0,0.0,0.0,0.0,0.0,0.0,0.0,0.0,0.0,0.0,0.0,0.0,0.0,0.0,0.0,0.0,0.0,0.0,0.0,0.0,0.0,0.0,0.0,0.0,0.0,0.0,0.0,0.0,0.0,0.0,0.0,0.0,0.0,0.0,0.0,0.0,0.0,0.0,0.0,0.0,0.0,0.0,0.0,0.0,0.0,0.0,0.0,0.0,0.0,0.0,0.0,0.0,0.0,0.0,0.0,0.0,0.0,0.0,0.0,0.0,0.0,0.0,0.0,0.0,0.0,0.0,0.0,0.0,0.0,0.0,0.0,0.0,0.0,0.0,0.0,0.0,0.0,0.0,0.0,0.0,0.0,0.0,0.0,0.0,0.0,0.0,0.0,0.0,0.0,0.0,0.0,0.0,0.0,0.0,0.0,0.0,0.0,0.0,0.0,0.0,0.0,0.0,0.0,1.1219,1.1851,1.3395,0.0,1.4015,1.3113,0.0,0.0,0.0,0.0,0.0,0.0,0.0,0.0,0.0,0.0,0.0,0.0,0.0,0.0,0.0,0.0,0.0,0.0,0.0,0.0,0.0,0.0,0.0,0.0,0.0,0.0,0.0,0.0,0.0,0.0,0.0,0.0,0.0,0.0,0.0,0.0,0.0,0.0,0.0,0.0,0.0,0.0,0.0,0.0,0.0,0.0,0.0,0.0,0.0,0.0,0.0,0.0,0.0,0.0,0.0,0.0,0.0,0.0,0.0,0.0,0.0,0.0,0.0,0.0,0.0,0.0,0.0,0.0,0.0,0.0,0.0,0.0,0.0,0.0,0.0,0.0,0.0,0.0,0.0,0.0,0.0,0.0,0.0,0.0,0.0,0.0,0.0,0.0,0.0,0.0,0.0,0.0,0.0,0.0,0.0,0.0,0.0,0.0,0.0,0.0,0.0,0.0,0.0,0.0,0.0,0.0,0.0,0.0,0.0,1.0817,0.0,1.3952,0.0,1.3687,1.2668,0.0,0.0,0.0,0.0,0.0,0.0,0.0,0.0,0.0,0.0,0.0,0.0,0.0,0.0,0.0,0.0,0.0,0.0,0.0,0.0,0.0,0.0,0.0,0.0,0.0,0.0,0.0,0.0,0.0,0.0,0.0,0.0,0.0,0.0,0.0,0.0,0.0,0.0,0.0,0.0,0.0,0.0,0.0,0.0,0.0,0.0,0.0,0.0,0.0,0.0,0.0,0.0,0.0,0.0,0.0,0.0,0.0,0.0,0.0,0.0,0.0,0.0,0.0,0.0,0.0,0.0,0.0,0.0,0.0,0.0,0.0,0.0,0.0,0.0,0.0,0.0,0.0,0.0,0.0,0.0,0.0,0.0,0.0,0.0,0.0,0.0,0.0,0.0,0.0,0.0,0.0,0.0,0.0,0.0,0.0,0.0,0.0,0.0,0.0,0.0,0.0,0.0,0.0,0.0,0.0,0.0,0.0,0.0,1.0822,1.3119,1.4123,1.4334,1.3755,1.2892,1.1736,0.0,0.0,0.0,0.0,0.0,0.0,0.0,0.0,0.0,0.0,0.0,0.0,0.0,0.0,0.0,0.0,0.0,0.0,0.0,0.0,0.0,0.0,0.0,0.0,0.0,0.0,0.0,0.0,0.0,0.0,0.0,0.0,0.0,0.0,0.0,0.0,0.0,0.0,0.0,0.0,0.0,0.0,0.0,0.0,0.0,0.0,0.0,0.0,0.0,0.0,0.0,0.0,0.0,0.0,0.0,0.0,0.0,0.0,0.0,0.0,0.0,0.0,0.0,0.0,0.0,0.0,0.0,0.0,0.0,0.0,0.0,0.0,0.0,0.0,0.0,0.0,0.0,0.0,0.0,0.0,0.0,0.0,0.0,0.0,0.0,0.0,0.0,0.0,0.0,0.0,0.0,0.0,0.0,0.0,0.0,0.0,0.0,0.0,0.0,0.0,0.0,0.0,0.0,0.0,0.0,0.0,0.0,0.0,0.0,1.1795,1.3144,1.414,1.4621,1.2829,1.2134,0.0,0.0,0.0,0.0,0.0,0.0,0.0,0.0,0.0,0.0,0.0,0.0,0.0,0.0,0.0,0.0,0.0,0.0,0.0,0.0,0.0,0.0,0.0,0.0,0.0,0.0,0.0,0.0,0.0,0.0,0.0,0.0,0.0,0.0,0.0,0.0,0.0,0.0,0.0,0.0,0.0,0.0,0.0,0.0,0.0,0.0,0.0,0.0,0.0,0.0,0.0,0.0,0.0,0.0,0.0,0.0,0.0,0.0,0.0,0.0,0.0,0.0,0.0,0.0,0.0,0.0,0.0,0.0,0.0,0.0,0.0,0.0,0.0,0.0,0.0,0.0,0.0,0.0,0.0,0.0,0.0,0.0,0.0,0.0,0.0,0.0,0.0,0.0,0.0,0.0,0.0,0.0,0.0,0.0,0.0,0.0,0.0,0.0,0.0,0.0,0.0,0.0,0.0,0.0,0.0,0.0,0.0,0.0,0.0,1.3758,1.5075,1.5879,1.6049,1.4236,1.3203,1.31,0.0,0.0,0.0,0.0,0.0,0.0,0.0,0.0,0.0,0.0,0.0,0.0,0.0,0.0,0.0,0.0,0.0,0.0,0.0,0.0,0.0,0.0,0.0,0.0,0.0,0.0,0.0,0.0,0.0,0.0,0.0,0.0,0.0,0.0,0.0,0.0,0.0,0.0,0.0,0.0,0.0,0.0,0.0,0.0,0.0,0.0,0.0,0.0,0.0,0.0,0.0,0.0,0.0,0.0,0.0,0.0,0.0,0.0,0.0,0.0,0.0,0.0,0.0,0.0,0.0,0.0,0.0,0.0,0.0,0.0,0.0,0.0,0.0,0.0,0.0,0.0,0.0,0.0,0.0,0.0,0.0,0.0,0.0,0.0,0.0,0.0,0.0,0.0,0.0,0.0,0.0,0.0,0.0,0.0,0.0,0.0,0.0,0.0,0.0,0.0,0.0,0.0,0.0,0.0,0.0,0.0,0.0,0.0,1.8147,1.9479,1.9462,1.7989,1.6837,1.4882,0.0,0.0,0.0,0.0,0.0,0.0,0.0,0.0,0.0,0.0,0.0,0.0,0.0,0.0,0.0,0.0,0.0,0.0,0.0,0.0,0.0,0.0,0.0,0.0,0.0,0.0,0.0,0.0,0.0,0.0,0.0,0.0,0.0,0.0,0.0,0.0,0.0,0.0,0.0,0.0,0.0,0.0,0.0,0.0,0.0,0.0,0.0,0.0,0.0,0.0,0.0,0.0,0.0,0.0,0.0,0.0,0.0,0.0,0.0,0.0,0.0,0.0,0.0,0.0,0.0,0.0,0.0,0.0,0.0,0.0,0.0,0.0,0.0,0.0,0.0,0.0,0.0,0.0,0.0,0.0,0.0,0.0,0.0,0.0,0.0,0.0,0.0,0.0,0.0,0.0,0.0,0.0,0.0,0.0,0.0,0.0,0.0,0.0,0.0,0.0,0.0,0.0,0.0,0.0,0.0,0.0,0.0,0.0,0.0,2.0164,2.3899,2.487,2.2697,1.9085,1.6818,0.0,0.0,0.0,0.0,0.0,0.0,0.0,0.0,0.0,0.0,0.0,0.0,0.0,0.0,0.0,0.0,0.0,0.0,0.0,0.0,0.0,0.0,0.0,0.0,0.0,0.0,0.0,0.0,0.0,0.0,0.0,0.0,0.0,0.0,0.0,0.0,0.0,0.0,0.0,0.0,0.0,0.0,0.0,0.0,0.0,0.0,0.0,0.0,0.0,0.0,0.0,0.0,0.0,0.0,0.0,0.0,0.0,0.0,0.0,0.0,0.0,0.0,0.0,0.0,0.0,0.0,0.0,0.0,0.0,0.0,0.0,0.0,0.0,0.0,0.0,0.0,0.0,0.0,0.0,0.0,0.0,0.0,0.0,0.0,0.0,0.0,0.0,0.0,0.0,0.0,0.0,0.0,0.0,0.0,0.0,0.0,0.0,0.0,0.0,0.0,0.0,0.0,0.0,0.0,0.0,0.0,0.0,0.0,2.0156,2.2951,2.7809,2.9683,2.8236,2.3301,1.9538,0.0,0.0,0.0,0.0,0.0,0.0,0.0,0.0,0.0,0.0,0.0,0.0,0.0,0.0,0.0,0.0,0.0,0.0,0.0,0.0,0.0,0.0,0.0,0.0,0.0,0.0,0.0,0.0,0.0,0.0,0.0,0.0,0.0,0.0,0.0,0.0,0.0,0.0,0.0,0.0,0.0,0.0,0.0,0.0,0.0,0.0,0.0,0.0,0.0,0.0,0.0,0.0,0.0,0.0,0.0,0.0,0.0,0.0,0.0,0.0,0.0,0.0,0.0,0.0,0.0,0.0,0.0,0.0,0.0,0.0,0.0,0.0,0.0,0.0,0.0,0.0,0.0,0.0,0.0,0.0,0.0,0.0,0.0,0.0,0.0,0.0,0.0,0.0,0.0,0.0,0.0,0.0,0.0,0.0,0.0,0.0,0.0,0.0,0.0,0.0,0.0,0.0,0.0,0.0,0.0,0.0,0.0,0.0,2.2904,2.596,3.0903,3.3448,3.3178,2.7915,2.2467,0.0,0.0,0.0,0.0,0.0,0.0,0.0,0.0,0.0,0.0,0.0,0.0,0.0,0.0,0.0,0.0,0.0,0.0,0.0,0.0,0.0,0.0,0.0,0.0,0.0,0.0,0.0,0.0,0.0,0.0,0.0,0.0,0.0,0.0,0.0,0.0,0.0,0.0,0.0,0.0,0.0,0.0,0.0,0.0,0.0,0.0,0.0,0.0,0.0,0.0,0.0,0.0,0.0,0.0,0.0,0.0,0.0,0.0,0.0,0.0,0.0,0.0,0.0,0.0,0.0,0.0,0.0,0.0,0.0,0.0,0.0,0.0,0.0,0.0,0.0,0.0,0.0,0.0,0.0,0.0,0.0,0.0,0.0,0.0,0.0,0.0,0.0,0.0,0.0,0.0,0.0,0.0,0.0,0.0,0.0,0.0,0.0,0.0,0.0,0.0,0.0,0.0,0.0,0.0,0.0,0.0,0.0,0.0,2.3919,2.7172,3.1428,3.3656,3.3601,2.7972,2.3488,0.0,0.0,0.0,0.0,0.0,0.0,0.0,0.0,0.0,0.0,0.0,0.0,0.0,0.0,0.0,0.0,0.0,0.0,0.0,0.0,0.0,0.0,0.0,0.0,0.0,0.0,0.0,0.0,0.0,0.0,0.0,0.0,0.0,0.0,0.0,0.0,0.0,0.0,0.0,0.0,0.0,0.0,0.0,0.0,0.0,0.0,0.0,0.0,1.291,0.0,0.0,0.0,0.0,0.0,0.0,0.0,0.0,0.0,0.0,0.0,0.0,0.0,0.0,0.0,0.0,0.0,0.0,0.0,0.0,0.0,0.0,0.0,0.0,0.0,0.0,0.0,0.0,0.0,0.0,0.0,0.0,0.0,0.0,0.0,0.0,0.0,0.0,0.0,0.0,0.0,0.0,0.0,0.0,0.0,0.0,0.0,0.0,0.0,0.0,0.0,0.0,0.0,0.0,0.0,0.0,0.0,0.0,0.0,2.4768,2.8865,3.1785,3.3474,3.3684,2.9298,2.5134,0.0,0.0,0.0,0.0,0.0,0.0,0.0,0.0,0.0,0.0,0.0,0.0,0.0,0.0,0.0,0.0,0.0,0.0,0.0,0.0,0.0,0.0,0.0,0.0,0.0,0.0,0.0,0.0,0.0,0.0,0.0,0.0,0.0,0.0,0.0,0.0,0.0,0.0,0.0,0.0,0.0,0.0,0.0,0.0,0.0,0.0,0.0,0.0,0.0,0.0,0.0,0.0,0.0,0.0,0.0,0.0,0.0,0.0,0.0,0.0,0.0,0.0,0.0,0.0,0.0,0.0,0.0,0.0,0.0,0.0,0.0,0.0,0.0,0.0,0.0,0.0,0.0,0.0,0.0,0.0,0.0,0.0,0.0,0.0,0.0,0.0,0.0,0.0,0.0,0.0,0.0,0.0,0.0,0.0,0.0,0.0,0.0,0.0,0.0,0.0,0.0,0.0,0.0,0.0,0.0,0.0,0.0,2.1391,2.5424,3.0485,3.2097,3.3167,3.3846,3.0739,2.6645,2.1718,0.0,0.0,0.0,0.0,0.0,0.0,0.0,0.0,0.0,0.0,0.0,0.0,0.0,0.0,0.0,0.0,0.0,0.0,0.0,0.0,0.0,0.0,0.0,0.0,0.0,0.0,0.0,0.0,0.0,0.0,0.0,0.0,0.0,0.0,0.0,0.0,0.0,0.0,1.0693,1.1162,0.0,0.0,0.0,0.0,0.0,0.0,0.0,0.0,1.3164,0.0,0.0,0.0,0.0,0.0,0.0,0.0,0.0,0.0,0.0,0.0,0.0,0.0,0.0,0.0,0.0,0.0,0.0,0.0,0.0,0.0,0.0,0.0,0.0,0.0,0.0,0.0,0.0,0.0,0.0,0.0,0.0,0.0,0.0,0.0,0.0,0.0,0.0,0.0,0.0,0.0,0.0,0.0,0.0,0.0,0.0,0.0,0.0,0.0,0.0,0.0,0.0,0.0,0.0,0.0,0.0,2.0976,2.2343,2.5782,3.1426,3.249,3.3001,3.3029,3.0487,2.6706,2.1841,0.0,0.0,0.0,0.0,0.0,0.0,0.0,0.0,0.0,0.0,0.0,0.0,0.0,0.0,0.0,0.0,0.0,0.0,0.0,0.0,0.0,0.0,0.0,0.0,0.0,0.0,0.0,0.0,0.0,0.0,0.0,0.0,0.0,0.0,0.0,0.0,0.0,0.0,0.0,1.264,1.2791,0.0,0.0,0.0,0.0,0.0,0.0,0.0,0.0,1.4515,0.0,0.0,0.0,0.0,0.0,0.0,0.0,0.0,0.0,0.0,0.0,0.0,0.0,0.0,0.0,0.0,0.0,0.0,0.0,0.0,0.0,0.0,0.0,0.0,0.0,0.0,0.0,0.0,0.0,0.0,0.0,0.0,0.0,0.0,0.0,0.0,0.0,0.0,0.0,0.0,0.0,0.0,0.0,0.0,0.0,0.0,0.0,0.0,0.0,0.0,0.0,0.0,0.0,0.0,0.0,2.0837,2.3223,2.6809,3.1674,3.183,3.1988,3.2341,2.9052,2.5264,0.0,0.0,0.0,0.0,0.0,0.0,0.0,0.0,0.0,0.0,0.0,0.0,0.0,0.0,0.0,0.0,0.0,0.0,0.0,0.0,0.0,0.0,0.0,0.0,0.0,0.0,0.0,0.0,0.0,0.0,0.0,0.0,0.0,0.0,0.0,0.0,0.0,0.0,0.0,0.0,1.4954,1.5508,1.7034,0.0,0.0,0.0,0.0,0.0,0.0,1.6129,1.4832,0.0,0.0,0.0,0.0,0.0,0.0,0.0,0.0,0.0,0.0,0.0,0.0,0.0,0.0,0.0,0.0,0.0,0.0,0.0,0.0,0.0,0.0,0.0,0.0,0.0,0.0,0.0,0.0,0.0,0.0,0.0,0.0,0.0,0.0,0.0,0.0,0.0,0.0,0.0,0.0,0.0,0.0,0.0,0.0,0.0,0.0,0.0,0.0,0.0,0.0,0.0,0.0,0.0,0.0,0.0,2.0392,2.3672,2.7441,3.148,3.105,3.1023,3.1636,2.7523,2.3715,0.0,0.0,0.0,0.0,0.0,0.0,0.0,0.0,0.0,0.0,0.0,0.0,0.0,0.0,0.0,0.0,0.0,0.0,0.0,0.0,0.0,0.0,0.0,0.0,0.0,0.0,0.0,0.0,0.0,0.0,0.0,0.0,0.0,0.0,0.0,0.0,0.0,0.0,0.0,0.0,0.0,1.8041,1.9526,1.835,0.0,0.0,0.0,0.0,1.8032,1.7079,0.0,0.0,0.0,0.0,0.0,0.0,0.0,0.0,0.0,0.0,0.0,0.0,0.0,0.0,0.0,0.0,0.0,0.0,0.0,0.0,0.0,0.0,0.0,0.0,0.0,0.0,0.0,0.0,0.0,0.0,0.0,0.0,0.0,0.0,0.0,0.0,0.0,0.0,0.0,0.0,0.0,0.0,0.0,0.0,0.0,0.0,0.0,0.0,0.0,0.0,0.0,0.0,0.0,0.0,0.0,0.0,2.0409,2.3148,2.6576,3.0584,3.0762,3.0749,3.0781,2.6634,2.3106,0.0,0.0,0.0,0.0,0.0,0.0,0.0,0.0,0.0,0.0,0.0,0.0,0.0,0.0,0.0,0.0,0.0,0.0,0.0,0.0,0.0,0.0,0.0,0.0,0.0,0.0,0.0,0.0,0.0,0.0,0.0,0.0,0.0,0.0,0.0,0.0,0.0,0.0,0.0,0.0,0.0,1.879,2.0434,1.9129,1.8233,0.0,0.0,2.0862,2.1464,2.2025,0.0,0.0,0.0,0.0,0.0,0.0,0.0,0.0,0.0,0.0,0.0,0.0,0.0,0.0,0.0,0.0,0.0,0.0,0.0,0.0,0.0,0.0,0.0,0.0,0.0,0.0,0.0,0.0,0.0,0.0,0.0,0.0,0.0,0.0,0.0,0.0,0.0,0.0,0.0,0.0,0.0,0.0,0.0,0.0,0.0,0.0,0.0,0.0,0.0,0.0,0.0,0.0,0.0,0.0,0.0,1.7634,2.0465,2.4472,2.7903,3.0516,3.0716,3.0738,3.0687,2.5598,2.2088,0.0,0.0,0.0,0.0,0.0,0.0,0.0,0.0,0.0,0.0,0.0,0.0,0.0,0.0,0.0,0.0,0.0,0.0,0.0,0.0,0.0,0.0,0.0,0.0,0.0,0.0,0.0,0.0,0.0,0.0,0.0,0.0,0.0,0.0,0.0,0.0,0.0,0.0,0.0,0.0,0.0,0.0,2.2523,2.1545,0.0,0.0,0.0,1.6414,2.0854,0.0,0.0,0.0,0.0,0.0,0.0,0.0,0.0,0.0,0.0,0.0,0.0,0.0,0.0,0.0,0.0,0.0,0.0,0.0,0.0,0.0,0.0,0.0,0.0,0.0,0.0,0.0,0.0,0.0,0.0,0.0,0.0,0.0,0.0,0.0,0.0,0.0,0.0,0.0,0.0,0.0,0.0,0.0,0.0,0.0,0.0,0.0,0.0,0.0,0.0,0.0,0.0,0.0,0.0,0.0,0.0,0.0,2.0405,2.5495,2.894,3.0538,3.0696,3.072,3.0601,2.5531,0.0,0.0,0.0,0.0,0.0,0.0,0.0,0.0,0.0,0.0,0.0,0.0,0.0,0.0,0.0,0.0,0.0,0.0,0.0,0.0,0.0,0.0,0.0,0.0,0.0,0.0,0.0,0.8564,0.0,0.0,0.0,0.0,0.0,0.0,0.0,0.0,0.0,0.0,0.0,0.0,0.0,0.0,2.2396,2.3547,2.3231,2.3149,0.0,0.0,1.2381,1.7792,1.2652,0.9189,0.0,0.0,0.0,0.0,0.0,0.0,0.0,0.0,0.0,0.0,0.0,0.0,0.0,0.0,0.0,0.0,0.0,0.0,0.0,0.0,0.0,0.0,0.0,0.0,0.0,0.0,0.0,0.0,0.0,0.0,0.0,0.0,0.0,0.0,0.0,0.0,0.0,0.0,0.0,0.0,0.0,0.0,0.0,0.0,0.0,0.0,0.0,0.0,0.0,0.0,0.0,0.0,0.0,0.0,0.0,2.0319,2.5291,2.8777,3.0528,3.0613,3.0642,3.0648,2.7226,2.3789,0.0,0.0,0.0,0.0,0.0,0.0,0.0,0.0,0.0,0.0,0.0,0.0,0.0,0.0,0.0,0.0,0.0,0.0,0.0,0.0,0.0,0.0,0.0,0.0,0.0,0.0,0.0,0.0,0.0,0.0,0.0,0.0,0.0,0.0,0.0,0.0,0.0,0.0,0.0,0.0,0.0,2.1605,2.227,2.3074,2.391,0.0,0.0,1.2255,1.2063,0.7835,0.4707,0.5418,0.0,0.0,0.0,0.0,0.0,0.0,0.0,0.0,0.0,0.0,0.0,0.0,0.0,0.0,0.0,0.0,0.0,0.0,0.0,0.0,0.0,0.0,0.0,0.0,0.0,0.0,0.0,0.0,0.0,0.0,0.0,0.0,0.0,0.0,0.0,0.0,0.0,0.0,0.0,0.0,0.0,0.0,0.0,0.0,0.0,0.0,0.0,0.0,0.0,0.0,0.0,0.0,0.0,1.8313,1.9983,2.4965,2.8357,3.0006,3.0183,3.0234,3.0278,2.699,2.3657,0.0,0.0,0.0,0.0,0.0,0.0,0.0,0.0,0.0,0.0,0.0,0.0,0.0,0.0,0.0,0.0,0.0,0.0,0.0,0.0,0.0,0.0,0.0,0.0,0.0,0.0,0.0,0.0,1.4033,1.406,1.295,0.0,0.0,0.0,0.0,0.0,0.0,0.0,0.0,0.0,0.0,2.1949,2.4059,2.3908,0.0,0.0,1.809,1.4021,1.7964,1.2676,0.8195,0.8492,0.8042,0.0,0.0,0.0,0.0,0.0,0.0,0.0,0.0,0.0,0.0,0.0,0.0,0.0,0.0,0.0,0.0,0.0,0.0,0.0,0.0,0.0,0.0,0.0,0.0,0.0,0.0,0.0,0.0,0.0,0.0,0.0,0.0,0.0,0.0,0.0,0.0,0.0,0.0,0.0,0.0,0.0,0.0,0.0,0.0,0.0,0.0,0.0,0.0,0.0,0.0,0.0,0.0,1.8327,1.9729,2.4915,2.8246,2.9584,2.9727,2.98,2.9728,2.7259,2.4369,0.0,0.0,0.0,0.0,0.0,0.0,0.0,0.0,0.0,0.0,0.0,0.0,0.0,0.0,0.0,0.0,0.0,0.0,0.0,0.0,0.0,0.0,0.0,0.0,0.0,0.0,0.0,0.0,1.4737,1.4408,1.2741,0.0,0.0,0.0,0.0,0.0,0.0,0.0,0.0,0.0,0.0,2.1881,2.436,2.3803,2.349,2.4563,1.5749,1.0682,1.5711,0.9605,0.4227,0.4238,0.0,0.0,0.0,0.0,0.0,0.0,0.0,0.0,0.0,0.0,0.0,0.0,0.0,0.0,0.0,0.0,0.0,0.0,0.0,0.0,0.0,0.0,0.0,0.0,0.0,0.0,0.0,0.0,0.0,0.0,1.0193,0.0,0.0,0.0,0.0,0.0,0.0,0.0,0.0,0.0,0.0,0.0,0.0,0.0,0.0,0.0,0.0,0.0,0.0,0.0,0.0,0.0,0.0,1.8808,1.9587,2.5218,2.8503,2.9195,2.9277,2.9305,2.9263,2.8409,2.6375,2.3126,0.0,0.0,0.0,0.0,0.0,0.0,0.0,0.0,0.0,0.0,0.0,0.0,0.0,0.0,0.0,0.0,0.0,0.0,0.0,0.0,0.0,0.0,0.0,0.0,0.0,0.0,0.9911,1.1294,1.2415,0.0,0.0,0.0,0.0,0.0,0.0,0.0,0.0,0.0,0.0,1.8841,2.1069,2.2394,2.2366,2.2356,2.2875,1.0305,0.0849,0.2042,-0.4591,-1.0414,0.0,0.0,0.0,0.0,0.0,0.0,0.0,0.0,0.0,0.0,0.0,0.0,0.0,0.0,0.0,0.0,0.0,0.0,0.0,0.0,0.0,0.0,0.0,0.0,0.0,0.0,0.0,1.3595,1.2617,0.0,0.0,0.0,0.0,0.0,0.0,0.0,0.0,0.0,0.0,0.0,2.2216,2.3377,0.0,0.0,0.0,0.0,0.0,0.0,0.0,0.0,0.0,0.0,0.0,0.0,1.8879,2.0317,2.5006,2.7921,2.8699,2.8641,2.8518,2.8372,2.7827,2.5739,2.1989,0.0,0.0,0.0,0.0,0.0,0.0,0.0,0.0,0.0,0.0,0.0,0.0,0.0,0.0,0.0,0.0,0.0,0.0,0.0,0.0,0.0,0.0,0.0,0.0,0.0,1.2222,0.0,0.0,0.0,0.0,0.0,0.0,0.0,0.0,0.0,0.0,0.0,1.576,1.8268,1.8729,1.9493,2.125,2.095,2.0769,0.0,0.0,0.0,0.0,0.0,0.0,0.0,0.0,0.0,0.0,0.0,0.0,0.0,0.0,0.3433,0.2965,0.2612,0.2172,0.1282,0.0,0.0,0.0,0.0,0.0,0.0,0.0,0.0,0.0,0.0,0.0,0.0,0.0,0.0,1.7771,0.0,1.611,0.0,0.0,0.0,0.0,0.0,0.0,0.0,0.0,2.4583,2.644,2.6592,2.7712,2.7617,0.0,2.5473,2.2251,0.0,0.0,0.0,0.0,0.0,0.0,0.0,0.0,1.9611,2.0895,2.5262,2.7771,2.8138,2.8057,2.7906,2.7712,2.7344,2.5718,2.2767,1.9609,1.7093,0.0,0.0,0.0,0.0,0.0,0.0,0.0,0.0,0.0,0.0,0.0,0.0,0.0,0.0,0.0,0.0,0.0,0.0,0.0,0.0,0.0,0.0,0.0,1.2157,0.0,0.0,0.0,0.0,0.0,0.0,0.0,0.0,0.0,1.5017,1.5538,1.6621,1.8941,1.8673,1.875,2.0208,0.0,0.0,0.0,0.0,0.0,0.0,0.0,-0.5274,-1.0912,-1.0352,-0.994,-1.2072,-0.7522,-0.317,-0.2286,0.0,0.0,0.067,0.0441,-0.0292,-0.141,-0.1739,-0.2323,-0.4021,-0.4948,-0.5882,0.0,0.0,0.0,0.0,0.0,0.0,0.0,0.0,2.226,2.2321,0.0,2.0448,0.0,0.0,0.0,0.0,0.0,0.0,0.0,0.0,3.1499,3.3046,3.0829,3.0813,3.0798,3.0671,2.9627,2.7808,2.5062,1.8684,0.0,0.0,0.0,0.0,0.0,0.0,2.1009,2.1502,2.5955,2.8037,2.7557,2.7569,2.7539,2.74,2.6981,2.6294,2.5297,2.2429,2.0416,1.9405,1.4492,0.0,0.0,0.0,0.0,0.0,0.0,0.0,0.0,0.0,0.0,0.0,0.0,0.0,0.0,0.0,0.0,0.0,0.0,0.0,0.0,1.1171,0.0,0.0,0.0,0.0,0.0,0.0,0.0,0.0,0.0,0.0,1.5215,1.6323,1.7457,1.8267,0.0,0.0,0.0,0.0,1.8755,1.7578,0.741,-0.0299,-0.1006,-0.6873,-1.3362,-1.9364,0.0,0.0,-1.4531,-1.0153,-0.6167,-0.5638,-0.4794,-0.3413,-0.0513,-0.1393,-0.2751,-0.3842,-0.5113,-0.6234,-0.692,-0.778,-0.8533,2.8824,0.0,0.0,0.0,0.0,2.6669,2.7531,2.763,2.7305,2.6659,2.573,2.5013,0.0,0.0,0.0,0.0,0.0,0.0,2.6449,2.9133,3.314,3.4706,3.4099,3.4107,3.402,3.3776,3.282,3.1972,3.11,2.7687,2.2948,1.7141,0.0,0.0,0.0,0.0,2.2738,2.3889,2.705,2.8352,2.7496,2.7279,2.7247,2.7404,2.6409,2.5592,2.5,2.3574,2.1601,1.9049,1.7456,0.0,0.0,0.0,0.0,0.0,0.0,0.0,0.0,0.0,0.0,0.0,0.0,0.0,0.0,0.0,0.0,0.0,0.0,0.0,1.1067,1.2441,1.2819,0.0,0.0,0.0,0.0,0.0,0.0,0.0,0.0,0.0,1.6344,1.6289,1.6479,0.0,0.0,1.6683,1.7098,1.7281,1.7472,1.7752,0.0,0.0,0.0,-0.2426,-0.5911,-1.351,-1.0093,-0.6691,-0.7504,-0.7001,-0.6533,-0.6638,-0.6338,-0.5882,-0.5603,-0.5503,-0.6138,-0.7559,-0.8215,-0.8679,-0.948,-1.0503,-1.133,3.3516,2.9551,2.7519,2.7558,2.9097,3.0644,3.1577,3.2005,3.16,3.1033,3.0327,2.9335,2.7809,2.5952,2.4826,0.0,0.0,0.0,2.9766,3.2293,3.4292,3.5291,3.5408,3.5272,3.5168,3.5028,3.4184,3.3828,3.3865,3.1727,2.7693,2.1985,0.0,0.0,2.0331,2.3161,2.5103,2.6025,2.7882,2.8491,2.776,2.7259,2.7023,2.7019,2.6253,2.5487,2.4692,2.3972,2.2479,2.0044,1.911,1.73,0.0,0.0,0.0,0.0,0.0,0.0,0.0,0.0,0.0,0.0,0.0,0.9393,0.8135,0.0,0.0,0.0,1.2243,1.2512,1.2718,1.3514,0.0,0.0,0.0,0.0,0.0,0.0,0.0,1.3031,1.429,1.549,1.6436,1.6356,1.6732,1.8137,1.7663,1.717,1.7123,0.0,1.7943,1.7767,1.2735,0.7472,0.3334,0.0893,-0.2494,-0.8269,-0.6237,-0.4269,-0.5356,-0.5972,-0.6678,-0.7609,-0.7689,-0.7808,-0.8519,-0.8406,-0.8558,-0.971,-1.0265,-1.0785,-1.15,-1.245,-1.3085,3.6269,3.5918,3.2753,3.1804,3.2383,3.24,3.3721,3.5791,3.4969,3.5013,3.5515,3.3251,3.1763,3.0827,2.8176,0.0,0.0,3.0772,3.248,3.5033,3.5033,3.511,3.5206,3.4887,3.4789,3.4888,3.4217,3.3985,3.4054,3.2214,3.0493,2.8876,2.7391,2.6136,2.5219,2.6645,2.7576,2.7771,2.8433,2.8557,2.8066,2.7418,2.6842,2.6438,2.6392,2.5759,2.4516,2.3891,2.3045,2.1853,1.993,1.8818,1.8598,0.0,0.0,0.0,0.0,0.0,0.0,0.0,0.0,0.0,0.0,0.0,0.0,0.0,0.0,0.0,1.3492,0.0,1.5511,1.4445,0.0,0.0,0.0,1.2605,1.3312,1.3894,1.4254,1.418,0.0,0.0,1.5985,0.0,1.6597,1.8795,1.9286,1.8987,1.7637,1.8838,1.9353,1.6522,1.3353,1.0463,0.83,0.3378,-0.0668,-0.1985,-0.3107,-0.3388,-0.5177,-0.5922,-0.6503,-0.8456,-0.8775,-0.8927,-0.9765,-0.989,-1.0228,-1.0413,-1.1435,-1.2402,-1.2912,-1.3528,-1.392,3.8574,3.7871,3.6619,3.5664,3.5002,3.4948,3.5269,3.5795,3.5587,3.5587,3.5704,3.5145,3.4671,3.4274,3.3172,3.2959,3.3388,3.3235,3.3608,3.44,3.4461,3.448,3.4457,3.4274,3.4125,3.3993,3.3768,3.3707,3.3716,3.3232,3.2092,3.0432,2.998,2.8164,2.5054,2.6519,2.7466,2.7701,2.8334,2.8366,2.7824,2.7567,2.6944,2.5944,2.5948,2.5305,2.403,2.3722,2.3147,2.2158,2.1428,2.0411,1.8978,1.6163,0.0,0.0,0.0,0.0,0.0,0.0,0.0,0.0,0.0,1.0752,0.799,0.0,1.2437,0.0,1.5261,1.6473,1.5703,1.5484,0.0,0.0,1.3741,1.3681,1.4163,1.4496,1.4553,1.4189,1.3545,1.4374,1.7429,1.0923,0.7529,1.1567,1.6757,1.7517,1.0706,1.6055,1.7894,1.1088,1.3761,1.5205,0.961,0.5917,0.5373,0.9779,0.7646,0.4507,0.1417,-0.2126,-0.5257,-0.7592,-0.8699,-0.9316,-0.9765,-0.9922,-1.0335,-1.1169,-1.2224,-1.3085,-1.3534,-1.4027,-1.425,3.9921,3.9094,3.8629,3.7383,3.5801,3.6336,3.6472,3.6356,3.6725,3.6871,3.6842,3.6463,3.5968,3.5432,3.4902,3.4597,3.4495,3.3972,3.3768,3.3895,3.4012,3.4136,3.4189,3.3913,3.3828,3.3895,3.3502,3.3404,3.3577,3.3386,3.2805,3.1775,3.1727,3.0245,2.745,2.753,2.7646,2.7719,2.8132,2.8254,2.7918,2.7461,2.6605,2.538,2.4734,2.371,2.2262,2.1893,2.131,2.0416,2.0187,1.9647,1.858,1.6292,1.4445,0.0,0.0,0.0,0.0,0.0,0.0,0.0,0.0,0.0,0.0,0.0,1.2696,0.0,1.529,1.647,1.5333,1.5556,1.5442,1.467,1.4706,1.4851,1.4944,1.5083,1.4638,1.3496,1.3533,1.4261,1.5653,0.8492,0.2158,0.0612,0.9756,1.3014,0.4869,1.2983,1.8451,0.865,1.4321,1.8982,1.4083,1.2127,1.2086,1.4864,1.1931,0.7605,0.4498,0.0153,-0.4024,-0.6981,-0.808,-0.8627,-0.9468,-0.9852,-1.0304,-1.1186,-1.2218,-1.3185,-1.3717,-1.4072,-1.4201,4.097,4.0265,3.9728,3.8268,3.6292,3.6921,3.6907,3.6509,3.7216,3.7629,3.7816,3.7276,3.6466,3.5469,3.5001,3.467,3.4391,3.3825,3.3552,3.3513,3.367,3.3868,3.4074,3.3643,3.3671,3.3986,3.3262,3.3117,3.3491,3.3091,3.2781,3.2567,3.2449,3.1618,3.0119,2.867,2.7853,2.7642,2.8042,2.8195,2.8119,2.6972,2.5799,2.4563,2.3112,2.1653,2.0133,1.9608,1.8996,1.8237,1.8244,1.8307,1.8364,1.6071,1.4639,0.0,1.1729,0.0,0.0,0.0,0.0,0.0,0.0,0.0,0.0,1.3023,1.3025,1.2812,1.4728,1.5732,1.5131,1.532,1.546,1.5489,1.565,1.5652,1.5437,1.5339,1.4561,1.2594,1.35,1.3815,1.2639,0.6786,-0.1375,-0.7748,0.2176,0.6595,-0.2192,1.0744,1.9341,0.765,1.4402,2.0428,1.9429,1.8458,1.7397,1.6647,1.2818,0.8305,0.5406,0.1304,-0.2871,-0.621,-0.7234,-0.7702,-0.9013,-0.9781,-1.031,-1.0812,-1.1916,-1.2952,-1.3484,-1.3848,-1.3992,4.3118,4.2809,4.1315,4.0311,3.9515,3.6631,3.4705,3.3609,3.3743,3.4609,3.6007,3.7252,3.7137,3.6062,3.5894,3.5197,3.4092,3.3972,3.3743,3.3522,3.353,3.352,3.3481,3.3268,3.319,3.3208,3.3011,3.2948,3.3042,3.2983,3.2214,3.0831,3.0738,2.9897,2.8223,0.0,0.0,0.0,2.8442,2.8677,2.778,2.5849,2.4135,2.2672,2.1258,0.0,1.9348,1.9126,1.9019,1.9068,1.9463,0.0,0.0,0.0,0.0,0.0,0.0,0.0,0.0,0.0,0.0,0.0,1.0873,1.0956,1.1634,1.3044,1.4053,1.4423,1.5605,1.6344,1.649,1.6111,1.5694,1.529,1.5126,1.4942,1.4601,1.4442,1.3665,1.189,1.0831,1.0261,0.9617,0.1653,-0.5739,-0.8695,-0.0427,0.0205,-1.1855,0.828,1.676,0.1674,1.107,1.9937,1.9189,1.884,1.7988,1.6363,1.3622,0.9969,0.6329,0.2419,-0.1473,-0.5046,-0.6538,-0.7472,-0.8623,-0.9539,-1.0374,-1.0743,-1.1706,-1.2512,-1.2945,-1.3331,-1.363,4.4692,0.0,4.3775,4.2156,0.0,3.8131,3.6431,3.4821,3.6025,3.6834,3.7324,3.8054,3.7715,3.6496,3.5459,3.4078,3.2447,3.1883,3.1508,3.1297,3.1649,3.2148,3.2702,3.2719,3.2719,3.2752,3.2654,3.2654,3.2784,3.2696,3.2174,3.1293,3.1225,3.0756,2.9937,2.9807,2.9244,2.8252,2.8973,2.9361,2.936,2.755,2.5698,2.3935,0.0,0.0,0.0,0.0,0.0,0.0,0.0,0.0,0.0,0.0,0.0,1.7915,1.5728,1.4262,1.3856,1.325,1.2934,1.2968,1.3033,1.2893,1.2586,1.3672,1.4514,1.4971,1.5151,1.5274,1.5317,1.4977,1.453,1.4027,1.4027,1.389,1.3542,1.3702,1.3082,1.1344,0.9756,0.8163,0.6071,-0.2381,-0.9204,-1.1128,-0.26,-0.0212,-0.9732,0.7605,1.9201,0.8908,1.3344,1.9653,1.8967,1.8264,1.7545,1.5809,1.3253,1.0231,0.7232,0.3578,-0.0157,-0.3509,-0.5446,-0.6846,-0.8304,-0.9528,-1.0513,-1.1037,-1.1842,-1.2432,-1.2739,-1.2973,-1.32,4.5709,4.511,4.5822,4.3664,3.973,4.0197,3.9163,3.7338,0.0,0.0,0.0,3.8785,3.8085,3.6756,3.502,3.3204,3.1379,3.0279,2.9703,2.9614,3.0159,3.1021,3.1987,3.2179,3.2248,3.2213,3.2266,3.2335,3.2468,3.2266,3.2214,3.2232,3.2055,3.2055,3.2179,3.2108,3.1322,2.9884,2.954,2.986,3.0755,2.9104,2.7348,2.5558,2.4056,2.2182,1.9925,2.0169,2.0107,1.9646,2.003,2.018,1.9909,1.8936,1.8342,1.813,1.6351,1.5405,1.5811,1.5198,1.4763,1.4693,1.5068,1.4982,1.4285,1.462,1.4866,1.51,1.4458,1.3932,1.3643,1.3448,1.3157,1.2572,1.3089,1.3293,1.291,1.341,1.3166,1.1278,0.9312,0.6589,0.2556,-0.4426,-1.0966,-1.26,-0.4137,0.1548,-0.4408,0.8107,2.0046,1.8877,1.9169,1.939,1.8859,1.7951,1.67,1.5694,1.2898,0.9989,0.7564,0.4435,0.0959,-0.2679,-0.4457,-0.622,-0.7995,-0.9523,-1.0663,-1.1335,-1.2131,-1.2631,-1.2686,-1.276,-1.29,4.575,4.5615,4.5838,4.4542,4.2321,4.1741,4.0611,3.9123,3.8161,3.7494,3.7126,3.834,3.809,3.6692,3.5893,3.477,3.339,3.2559,3.2044,0.0,3.1793,3.1795,3.1771,3.195,3.1735,3.1291,3.1894,3.2038,3.1696,3.1696,3.1843,3.2054,3.1637,3.1562,3.1856,3.1837,3.1716,3.1455,3.0108,2.9401,2.9357,2.7148,2.5614,2.4814,2.3045,2.1487,2.0369,2.0289,2.0031,1.9653,2.073,2.1428,2.1535,2.125,2.0695,1.9887,1.9027,1.7899,1.6523,1.636,1.6147,1.5661,1.5668,1.5643,1.5575,1.5625,1.5367,1.476,1.4386,1.3947,1.3375,1.3251,1.2893,1.2331,1.3468,1.4109,1.3443,1.4258,1.4106,1.2079,0.8968,0.5463,0.1529,-0.303,-0.8014,-1.0549,-0.4408,0.3301,0.7631,0.9378,1.2526,1.7976,1.9627,1.9143,1.8487,1.7989,1.6936,1.5651,1.3004,1.0145,0.7586,0.4362,0.105,-0.2251,-0.4182,-0.5992,-0.7829,-0.9588,-1.0807,-1.1558,-1.2365,-1.2813,-1.2826,-1.29,-1.29,4.5346,4.5374,4.5669,4.5109,4.3914,4.2295,4.0903,3.9712,3.8627,3.8044,3.7856,3.7991,3.7609,3.6789,3.4991,3.3547,3.231,3.0751,3.0127,3.0259,3.0221,3.05,3.1055,3.1244,3.1055,3.0616,3.13,3.1432,3.105,3.1336,3.1585,3.1654,3.1596,3.1634,3.1671,3.1709,3.1688,3.1634,3.1038,3.0604,3.0367,2.9144,2.7944,2.6844,2.5592,2.444,2.3361,2.3315,2.3243,2.3165,2.3923,2.4255,2.4039,2.3387,2.2344,2.0926,1.963,1.8254,1.684,1.6496,1.6267,1.6061,1.6079,1.607,1.5929,1.5426,1.4911,1.433,1.3818,1.331,1.2652,1.2519,1.2506,1.2437,1.3478,1.4168,1.4485,1.5523,1.4535,1.0433,0.7862,0.4385,-0.1279,-0.4444,-0.7128,-0.9611,-0.3722,0.4253,1.2059,1.2602,1.3283,1.7995,1.9073,1.8825,1.7883,1.7432,1.6363,1.4782,1.2367,1.0219,0.8094,0.5025,0.1395,-0.1701,-0.3884,-0.5838,-0.7592,-0.9578,-1.1031,-1.2009,-1.2599,-1.3046,-1.3039,-1.3077,-1.307,4.4699,4.4672,4.5035,4.4825,4.4062,4.2008,4.0625,3.9813,3.8978,3.8528,3.8219,3.7381,3.6776,3.6252,3.4037,3.2451,3.1341,2.9589,2.88,2.8865,2.886,2.9336,3.0159,3.0377,3.0234,2.9995,3.0666,3.0804,3.0418,3.0958,3.1252,3.1218,3.1504,3.1634,3.1596,3.1559,3.1504,3.1462,3.1614,3.1576,3.144,3.1151,3.0253,2.8914,2.8221,2.7303,2.6136,2.5903,2.586,2.5864,2.4491,2.3501,2.3103,2.0555,1.8943,1.8499,1.7098,1.6387,1.6631,1.6287,1.6184,1.6272,1.6342,1.6272,1.6132,1.5401,1.4609,1.4042,1.339,1.2813,1.2298,1.2298,1.2459,1.2887,1.4088,1.3931,1.2996,1.4155,1.2272,0.5732,0.3597,0.0652,-0.4242,-0.689,-0.7933,-0.757,-0.3194,0.2971,0.8376,1.1359,1.3039,1.3978,1.52,1.4194,1.3028,1.2117,1.1246,1.0367,0.9554,0.8767,0.7935,0.5291,0.175,-0.1228,-0.3659,-0.569,-0.7355,-0.9492,-1.1323,-1.2452,-1.3053,-1.3346,-1.347,-1.3426,-1.3411,4.3769,4.3558,4.3619,4.2977,4.1962,4.0583,3.9947,3.9631,3.8486,3.7558,3.6921,3.6234,3.5447,3.4648,3.3914,3.3134,3.2392,3.1842,3.0824,2.9729,2.9686,2.9609,2.9409,2.9361,2.9316,2.9319,3.0054,3.0149,2.9805,3.0326,3.0716,3.0845,3.1117,3.1346,3.1462,3.1389,3.1334,3.1295,3.1252,3.123,3.1247,3.0958,3.0385,2.952,2.8902,2.7998,2.6738,2.5962,2.545,2.4732,1.8512,1.4961,1.4687,0.8172,0.5859,1.0207,0.959,1.073,1.5299,1.6,1.6132,1.6272,1.6473,1.6542,1.6342,1.5903,1.5188,1.4186,1.3528,1.3025,1.2599,1.29,1.32,1.3755,1.5414,1.4642,0.7556,0.7526,0.5597,-0.4454,-0.5263,-0.72,-0.8113,-0.9038,-0.8678,-0.7119,-0.3947,-0.0952,0.0683,0.2423,0.2366,0.2492,0.4802,0.4126,-0.0799,-0.1288,0.1432,0.0883,0.3037,0.5341,0.6168,0.4394,0.0922,-0.1493,-0.3449,-0.5764,-0.7503,-0.9406,-1.1477,-1.282,-1.3484,-1.3855,-1.3985,-1.4106,-1.4186,4.2684,4.2814,4.2553,4.2204,4.1636,4.0819,4.0044,3.9276,3.8263,3.6931,3.5505,3.4948,3.4544,3.4088,3.3259,3.2837,3.2765,3.144,3.0639,3.0151,2.9494,2.9012,2.8732,2.8779,2.8795,2.8826,2.9512,2.9837,2.9766,3.03,3.0634,3.0781,3.1078,3.1196,3.1117,3.1213,3.1173,3.1095,3.1032,3.0975,3.0918,3.0797,3.0452,2.9853,2.9166,2.8276,2.7126,2.6403,2.4429,2.0869,1.7125,1.3893,1.1086,0.6949,0.5708,0.8082,0.9138,1.1216,1.4817,1.5668,1.6315,1.6978,1.7107,1.7038,1.6821,1.6114,1.5251,1.4466,1.389,1.3462,1.3324,1.355,1.432,1.5215,1.292,0.9357,0.7449,0.3914,-0.0974,-0.7718,-0.8299,-0.9275,-1.141,-1.0841,-0.9043,-0.7017,-0.4826,-0.3537,-0.322,-0.1637,-0.3473,-0.8005,-0.681,-0.4191,-0.5208,-0.3396,-0.2315,-0.1883,-0.0677,0.1395,0.3077,0.1456,-0.167,-0.2935,-0.4816,-0.6685,-0.8335,-1.0013,-1.1848,-1.3112,-1.4258,-1.4824,-1.4966,-1.5517,-1.5658,4.197,4.2139,4.1888,4.1629,4.1402,4.088,3.9973,3.8807,3.7768,3.6292,3.4611,3.3759,3.328,3.3074,3.2531,3.2428,3.2313,3.0891,3.0099,2.9927,2.8886,2.8225,2.7883,2.8012,2.811,2.8176,2.8795,2.9316,2.9738,3.0333,3.0651,3.0773,3.0902,3.0942,3.0845,3.0958,3.0935,3.0952,3.0952,3.0888,3.0898,3.0929,3.0642,2.9972,2.9316,2.8117,2.6168,2.5075,2.1958,1.6486,1.3177,0.9525,0.5575,0.2497,0.1812,0.4399,0.7861,1.1025,1.355,1.492,1.6184,1.7442,1.7794,1.7862,1.7364,1.6437,1.5455,1.4681,1.4042,1.3622,1.3977,1.4394,1.4909,1.455,0.9082,0.592,0.2335,-0.2439,-0.7289,-1.2572,-1.2759,-1.1394,-1.3257,-1.151,-0.8871,-0.7545,-0.6497,-0.602,-0.6286,-0.5981,-0.8401,-1.5702,-1.5581,-1.3987,-0.9947,-0.8818,-0.7584,-0.6838,-0.6923,-0.4165,-0.1921,-0.3998,-0.4821,-0.6065,-0.7021,-0.7923,-0.917,-1.0765,-1.2439,-1.3608,-1.4824,-1.5737,-1.5886,-1.6697,-1.7111,4.1945,4.1515,4.1542,4.122,4.0625,4.0135,3.9287,3.8131,3.6761,3.5569,3.4529,3.2859,3.166,3.1199,3.186,3.1967,3.1404,3.0856,2.9971,2.8961,2.8162,2.7384,2.6739,2.6953,2.7056,2.7187,2.7769,2.8654,2.975,3.0215,3.0584,3.0871,3.0526,3.0526,3.0814,3.0559,3.0576,3.0918,3.0998,3.1116,3.1268,3.1406,3.0673,3.0002,2.9339,2.7142,2.3662,2.0994,1.7507,1.3028,0.4225,-0.1568,-0.3466,-0.9558,-0.9919,-0.3602,0.3242,0.8489,1.1344,1.3532,1.5644,1.7658,1.871,1.8834,1.7969,1.6973,1.5852,1.4673,1.3833,1.3622,1.4307,1.4324,1.291,0.8701,0.8063,0.1348,-1.092,-1.1146,-1.4993,-1.9563,-1.8769,-1.5709,-1.234,-1.0282,-0.9221,-0.8539,-0.8493,-0.9128,-1.0525,-1.2916,-1.542,-1.7515,-2.0058,-2.2942,-2.5203,-1.9323,-1.7543,-1.6097,-1.1618,-0.9838,-1.0008,-0.9851,-0.9211,-0.8657,-0.8728,-0.921,-1.0157,-1.1495,-1.3077,-1.4466,-1.5745,-1.6524,-1.6784,-1.7375,-1.791,4.1134,4.0451,4.0707,4.0563,4.0087,3.9212,3.8365,3.7494,3.6307,3.5061,3.3893,3.2587,3.1559,3.0717,3.0363,3.0513,3.0815,3.0417,2.9843,2.9146,2.8104,2.6924,2.5741,2.6068,2.6308,2.6366,2.7034,2.8161,2.9556,3.0172,3.0501,3.0568,3.0359,3.0215,3.0241,3.0267,3.0444,3.0697,3.1198,3.1704,3.1463,2.8579,2.7973,3.0806,2.7102,2.3255,1.9493,1.5848,1.1673,0.6822,0.0842,-0.4067,-0.7721,-0.9658,-0.8738,-0.429,0.0302,0.4916,0.9212,1.2046,1.478,1.76,1.8957,1.9201,1.8489,1.7307,1.6062,1.4958,1.4194,1.4322,1.4355,1.1722,0.8743,0.7279,-0.0663,-0.7603,-1.2796,-1.6867,-2.0414,-2.1442,-1.919,-1.5607,-1.3231,-1.1521,-1.0753,-1.0349,-1.0653,-1.1635,-1.3033,-1.4934,-1.6911,-1.8824,-2.0186,-2.152,-2.345,-2.1706,-1.9326,-1.7552,-1.4761,-1.2202,-1.1328,-1.0983,-1.0264,-0.9657,-0.974,-1.0645,-1.1662,-1.2823,-1.4258,-1.4895,-1.6237,-1.7345,-1.7794,-1.8593,-1.9191,3.788,4.029,4.0271,3.9902,3.9265,3.7978,3.6873,3.5951,3.4892,3.3825,3.2807,3.1704,3.0825,3.0106,2.91,2.8939,2.9577,2.9488,2.9361,2.8983,2.7874,2.6677,2.5688,2.5646,2.5783,2.609,2.7034,2.8273,2.9467,3.013,3.0241,3.0064,2.9761,2.9524,2.9464,2.9669,2.9253,2.8243,3.0162,3.0764,2.8556,2.7624,2.581,2.4187,2.0298,1.6833,1.4049,1.03,0.5596,0.0435,-0.3127,-0.6584,-0.9985,-0.913,-0.7263,-0.4775,-0.2231,0.1063,0.5043,0.7579,1.0697,1.5231,1.6269,1.693,1.8358,1.7453,1.621,1.5313,1.4887,1.4765,1.1632,0.6215,0.2894,0.3311,-0.6902,-1.5335,-1.6469,-2.0743,-2.204,-2.0348,-1.7234,-1.4567,-1.316,-1.2487,-1.205,-1.1896,-1.2506,-1.355,-1.4812,-1.6114,-1.7364,-1.9229,-1.974,-2.0191,-2.0939,-1.981,-1.886,-1.7239,-1.6024,-1.3846,-1.2361,-1.1893,-1.1396,-1.087,-1.1223,-1.221,-1.3244,-1.4338,-1.4982,-1.5409,-1.6585,-1.7901,-1.8757,-1.9879,-2.027,3.1868,4.0002,4.0272,3.9201,3.8019,3.6458,3.4829,3.3493,3.2512,3.194,3.1282,3.0045,2.9513,2.914,2.8437,2.7802,2.7578,2.8214,2.844,2.8082,2.7612,2.6958,2.6252,2.5661,2.5592,2.596,2.765,2.8732,2.9361,2.9881,2.9876,2.9143,2.8607,2.8419,2.8467,2.7953,2.5875,2.3801,2.7167,2.664,2.1453,2.6565,2.3779,1.208,0.9213,0.7945,0.6883,0.4062,-0.0356,-0.6173,-0.8862,-1.0421,-1.0467,-0.9352,-0.7901,-0.6113,-0.4342,-0.2664,-0.0882,0.0576,0.4593,1.03,1.0956,1.3365,1.7485,1.7463,1.6358,1.5666,1.557,1.3723,0.6906,0.0808,-0.292,-0.3344,-1.0817,-1.7562,-2.1511,-2.3244,-2.2207,-1.8406,-1.5413,-1.3601,-1.3037,-1.2903,-1.2837,-1.3193,-1.4,-1.5056,-1.6028,-1.7296,-1.8472,-1.8885,-1.9295,-1.961,-1.9003,-1.8231,-1.7812,-1.7175,-1.618,-1.4721,-1.3564,-1.2891,-1.2474,-1.2011,-1.2214,-1.3119,-1.3897,-1.4991,-1.5627,-1.6263,-1.7489,-1.8476,-1.9365,-2.0245,-2.098,2.7994,3.0368,3.6908,3.835,3.626,3.4925,3.3408,3.1847,3.12,3.0537,2.9812,2.9529,2.9023,2.8261,2.7729,2.7138,2.6589,2.7129,2.7642,2.8005,2.8436,2.7982,2.7044,2.6313,2.6036,2.6258,2.7585,2.8543,2.895,2.9271,2.9055,2.8389,2.7554,2.735,2.7011,2.3689,2.0894,2.0849,1.9339,1.7579,1.566,1.4796,1.21,0.8441,0.2348,-0.2308,-0.4811,-0.482,-0.7167,-1.1918,-1.2004,-1.1415,-1.0312,-0.8903,-0.7456,-0.6217,-0.5755,-0.4461,-0.232,-0.1093,0.2135,0.8003,1.0054,1.2691,1.646,1.6678,1.6079,1.5762,1.6528,1.453,0.7482,0.0882,-0.4751,-1.0159,-1.7494,-2.2275,-2.3676,-2.2644,-1.9897,-1.7113,-1.4968,-1.3932,-1.3843,-1.3712,-1.3837,-1.4166,-1.5019,-1.597,-1.7022,-1.7811,-1.8452,-1.8931,-1.9065,-1.9065,-1.8519,-1.7833,-1.7241,-1.665,-1.5838,-1.5091,-1.4119,-1.3475,-1.3138,-1.3061,-1.3323,-1.3848,-1.4625,-1.5363,-1.599,-1.6917,-1.7894,-1.8785,-1.9684,-2.0323,-2.0919,1.8951,2.492,3.0192,3.3441,3.4283,3.2766,3.1072,2.9601,2.9004,2.8363,2.7639,2.7432,2.7126,2.654,2.6287,2.5898,2.5535,2.6114,2.6716,2.7142,2.8064,2.7982,2.7384,2.6945,2.6735,2.6958,2.7875,2.8591,2.8904,2.92,2.8748,2.736,2.4263,2.2692,2.2664,1.7942,1.4954,1.3401,1.1608,0.9265,0.6147,0.2509,0.0678,0.0066,-0.5006,-0.9186,-1.1527,-1.1058,-1.2072,-1.4402,-1.4394,-1.2038,-0.7673,-0.6984,-0.7019,-0.6472,-0.6538,-0.6332,-0.5376,-0.3978,-0.0503,0.4768,0.759,1.0931,1.4563,1.5685,1.572,1.6437,1.7743,1.4571,0.4916,0.0402,-0.6924,-1.8027,-2.2684,-2.5168,-2.4176,-2.1186,-1.8695,-1.6564,-1.4935,-1.4306,-1.4301,-1.4171,-1.4509,-1.5033,-1.5689,-1.6619,-1.7624,-1.8206,-1.8594,-1.8798,-1.8741,-1.8539,-1.8202,-1.7501,-1.6673,-1.6034,-1.5312,-1.4647,-1.3844,-1.3395,-1.3036,-1.2896,-1.3046,-1.376,-1.4537,-1.533,-1.6026,-1.7156,-1.8107,-1.8527,-1.914,-1.9931,-2.0533,0.6087,2.2469,2.1513,2.5254,3.0912,2.9591,2.823,2.6831,2.6125,2.5501,2.4835,2.4293,2.3939,2.3935,2.4005,2.402,2.4074,2.504,2.5368,2.5591,2.6424,2.7171,2.7478,2.7669,2.7154,2.6372,2.7116,2.7326,2.5653,2.6247,2.7682,2.3609,1.8427,1.571,1.5477,1.1659,0.7037,0.4069,0.4651,0.1264,-0.5722,-0.7171,-0.8397,-0.9933,-1.1514,-1.2975,-1.4018,-1.5228,-1.5437,-1.5325,-1.4932,-1.1056,-0.4101,-0.4563,-0.6153,-0.6475,-0.7176,-0.8452,-0.912,-0.6892,-0.3503,0.0718,0.4239,0.7975,1.3547,1.5059,1.5781,1.721,1.8916,1.3679,0.1514,-0.1917,-0.907,-2.2787,-2.5652,-2.4756,-2.2094,-1.9387,-1.7564,-1.6529,-1.5078,-1.4015,-1.4472,-1.4191,-1.4587,-1.5455,-1.6083,-1.7027,-1.7977,-1.8411,-1.868,-1.8617,-1.8405,-1.7988,-1.7647,-1.7097,-1.6324,-1.5613,-1.4911,-1.4274,-1.363,-1.3112,-1.3112,-1.2959,-1.2959,-1.3673,-1.453,-1.5401,-1.6334,-1.7376,-1.7995,-1.8135,-1.8694,-1.9563,-2.0146,-0.0794,0.2296,1.6496,2.1331,2.0287,2.4934,2.6498,2.4588,2.3606,2.2673,2.1889,2.1569,2.0953,2.0337,2.1608,2.2012,2.1518,2.2698,2.3891,2.4267,2.5797,2.6895,2.7925,2.8871,2.6008,2.1055,2.1192,1.9138,1.4072,1.5288,1.4834,1.3289,1.2067,1.1053,1.062,0.5689,0.2739,0.092,-0.2494,-0.4649,-0.7462,-0.9081,-1.0402,-1.2349,-1.3974,-1.5637,-1.7349,-1.9362,-1.6373,-0.9682,-1.0374,-0.8009,-0.1659,-0.2467,-0.4375,-0.5973,-0.7306,-0.8599,-0.9445,-0.7597,-0.4096,-0.0585,0.3375,0.7427,1.3194,1.445,1.55,1.7304,1.9338,1.4522,0.1067,-0.2087,-0.9138,-2.1878,-2.5217,-2.3697,-2.102,-1.8769,-1.6888,-1.5605,-1.4296,-1.4126,-1.4497,-1.4537,-1.4471,-1.5182,-1.5945,-1.682,-1.7731,-1.8222,-1.8405,-1.8202,-1.793,-1.7501,-1.7088,-1.6533,-1.5903,-1.5188,-1.4553,-1.3912,-1.3258,-1.2599,-1.2886,-1.3244,-1.2952,-1.3375,-1.4681,-1.5762,-1.6756,-1.7577,-1.7903,-1.8143,-1.8721,-1.9491,-1.987,-0.6643,-0.3115,0.8704,1.5204,1.8067,2.3634,2.457,2.2475,2.1293,1.9956,1.8734,1.8642,1.7375,1.5271,1.5212,1.5571,1.5787,1.6874,1.7218,1.7149,1.7414,1.9699,2.2057,2.2164,1.7678,1.4356,1.4781,1.3067,0.9583,0.7814,0.7609,0.7982,0.504,0.4199,0.5218,0.051,-0.2601,-0.3385,-0.6753,-0.911,-1.0168,-1.1175,-1.3032,-1.5093,-1.684,-1.8552,-2.0634,-2.2152,-1.848,-1.1262,-0.8794,-0.6037,-0.0633,-0.2258,-0.3293,-0.3195,-0.4206,-0.5572,-0.6136,-0.5535,-0.3541,0.067,0.4798,0.8699,1.1985,1.3658,1.5242,1.7432,2.0002,1.3021,0.0335,-0.7048,-1.4972,-2.3385,-2.423,-2.2304,-1.9707,-1.7866,-1.6146,-1.4689,-1.3948,-1.3848,-1.4561,-1.4497,-1.4699,-1.4958,-1.5478,-1.6381,-1.7352,-1.7716,-1.792,-1.7716,-1.7295,-1.6872,-1.6158,-1.5525,-1.4871,-1.4235,-1.3673,-1.3105,-1.2959,-1.2298,-1.2592,-1.2959,-1.2872,-1.3375,-1.4816,-1.5974,-1.6605,-1.7223,-1.7652,-1.8107,-1.864,-1.9352,-1.9707,-0.9706,0.101,0.0558,0.8257,1.9298,2.2814,2.2595,2.0333,1.9088,1.7535,1.6003,1.5398,1.2662,0.9083,0.8446,0.7616,0.8977,1.0151,0.9989,0.9269,0.8298,0.9114,1.3892,1.1404,0.8518,0.7412,0.8052,0.759,0.5406,0.3232,0.4142,0.3776,-0.1357,-0.2699,-0.1105,-0.4036,-0.6809,-0.7828,-0.8946,-1.0867,-1.2478,-1.3807,-1.5677,-1.8232,-1.8104,-1.8217,-1.9154,-1.9842,-1.7036,-1.1282,-0.9244,-0.4736,0.0204,-0.2747,-0.1888,0.112,-0.0076,-0.1285,-0.0899,-0.264,-0.1967,0.2639,0.768,1.118,1.1694,1.3077,1.5111,1.761,1.9056,1.0814,-0.2412,-1.6633,-2.3156,-2.546,-2.3614,-2.1238,-1.8526,-1.6826,-1.5232,-1.3539,-1.3388,-1.3783,-1.3977,-1.4305,-1.4711,-1.4614,-1.5113,-1.5816,-1.665,-1.7235,-1.731,-1.7157,-1.6664,-1.6158,-1.5296,-1.4514,-1.3708,-1.2976,-1.2418,-1.207,-1.2519,-1.2231,-1.2378,-1.2526,-1.2952,-1.3947,-1.5296,-1.6114,-1.6709,-1.7489,-1.835,-1.8232,-1.8232,-1.9109,-1.9655,-0.1933,-0.163,0.3067,0.5855,0.9063,1.8134,2.1232,1.8691,1.7098,1.5951,1.4523,1.107,0.7166,0.3745,0.4287,0.4939,0.4584,0.6047,0.8085,0.8138,0.0565,-0.0552,0.3138,0.4698,0.4529,0.1623,0.1598,-0.0278,-0.4008,-0.3968,-0.4659,-0.3657,-0.3377,-0.4923,-0.4852,-0.5402,-0.7141,-0.8661,-0.9857,-1.1832,-1.4014,-1.5224,-1.6968,-1.9484,-1.7311,-1.2638,-0.8023,-0.6899,-0.6086,-0.4931,-0.4113,-0.1939,0.1144,0.3792,0.4437,0.3428,0.2192,0.0605,-0.0075,0.1513,0.2589,0.3559,0.7191,1.0201,1.1781,1.2732,1.4864,1.6148,1.3271,0.5021,-0.8477,-1.943,-2.3758,-2.4058,-2.2833,-2.0582,-1.7189,-1.5356,-1.4266,-1.2757,-1.2875,-1.3542,-1.3119,-1.3833,-1.4217,-1.4298,-1.47,-1.5267,-1.5922,-1.6678,-1.6729,-1.6673,-1.6315,-1.5666,-1.4593,-1.3803,-1.3063,-1.2398,-1.1835,-1.1781,-1.215,-1.2452,-1.2599,-1.2966,-1.3324,-1.453,-1.593,-1.6498,-1.7097,-1.8027,-1.89,-1.8777,-1.8885,-1.9354,-1.9684,0.1631,0.0556,0.3708,0.6428,0.9474,1.6157,1.8788,1.7789,1.6417,1.4203,1.1241,0.6947,0.3087,-0.0265,-0.0524,-0.087,-0.0694,-0.0343,0.0506,-0.0166,-0.539,-0.7627,-0.7116,-0.3951,-0.402,-0.6995,-0.578,-0.7269,-0.8694,-0.8604,-0.7323,-0.7084,-0.6009,-0.5764,-0.6093,-0.6395,-0.7375,-0.9105,-1.0736,-1.2839,-1.5362,-1.5138,-1.4352,-1.504,-1.2655,-0.8692,-0.5247,-0.4195,-0.376,-0.2613,-0.0063,0.2086,0.2961,0.552,0.6655,0.7647,0.7376,0.616,0.5839,0.6036,0.6703,0.5503,0.8018,0.9492,1.1216,1.2378,1.2138,1.1507,0.826,0.2045,-1.1641,-1.6035,-1.9272,-1.8616,-1.5099,-1.1495,-1.0783,-1.29,-1.3986,-1.1853,-1.1733,-1.2452,-1.2802,-1.3331,-1.3572,-1.3644,-1.4162,-1.4744,-1.5446,-1.6122,-1.6237,-1.6175,-1.5886,-1.518,-1.4034,-1.3164,-1.2498,-1.2057,-1.1694,-1.2003,-1.2599,-1.282,-1.2966,-1.347,-1.4034,-1.5296,-1.6567,-1.6991,-1.7736,-1.8803,-1.9475,-1.942,-1.9584,-1.9866,-2.014,0.5422,0.5608,0.4689,0.7408,1.1968,1.3149,1.334,1.338,1.3417,0.9887,0.6963,0.3436,-0.0266,-0.3295,-0.5262,-0.5899,-0.5791,-0.6565,-0.6028,-0.6824,-0.9158,-1.116,-1.1433,-1.1404,-1.1215,-1.2587,-1.07,-1.0253,-0.9175,-0.847,-0.7774,-0.7395,-0.6475,-0.6096,-0.6405,-0.6703,-0.7749,-0.9846,-1.1691,-1.392,-1.5957,-1.4808,-1.2369,-0.7918,-0.7196,-0.4296,-0.1326,-0.0127,-0.0632,-0.0939,0.5104,0.7221,0.6873,0.6567,0.7408,1.2611,1.2042,1.0875,0.9526,0.9674,0.9165,0.8232,0.8998,0.9685,1.0396,1.2078,1.2016,1.0109,0.7586,0.294,-1.1276,-1.184,-1.1447,-1.0248,-0.3329,-0.1092,-0.435,-1.084,-1.136,-1.0526,-1.0831,-1.1985,-1.2236,-1.2579,-1.2739,-1.3039,-1.3622,-1.4266,-1.4974,-1.5321,-1.5305,-1.5155,-1.4728,-1.4235,-1.3091,-1.199,-1.1403,-1.1552,-1.1403,-1.2077,-1.2746,-1.3258,-1.3615,-1.4258,-1.5029,-1.628,-1.7307,-1.8065,-1.887,-1.9727,-2.0063,-2.015,-2.0291,-2.0366,-2.0613,1.6246,1.4347,1.0272,0.6364,0.3057,0.4232,0.282,-0.0997,0.1121,0.2071,0.2902,-0.0524,-0.3813,-0.5891,-0.6254,-0.6609,-0.7132,-0.8181,-0.8969,-0.9309,-1.0875,-1.1986,-1.3149,-1.3284,-1.326,-1.3041,-1.206,-1.069,-0.9327,-0.8376,-0.7702,-0.6703,-0.617,-0.6173,-0.6784,-0.7532,-0.8864,-1.0793,-1.2583,-1.4696,-1.6251,-1.4755,-0.999,-0.3484,-0.2251,0.1951,0.8947,1.1614,1.2643,1.2777,1.3677,1.3212,1.2127,1.2164,1.2771,1.2795,1.2493,1.167,1.0812,1.0132,0.9231,0.8542,0.8699,0.9306,1.0321,1.2417,1.3422,1.3521,1.0731,0.4808,-1.1899,-0.7108,-0.3223,-0.203,-0.1073,-0.0881,-0.4717,-0.6248,-0.7829,-0.7944,-0.9668,-1.1688,-1.1889,-1.2137,-1.2365,-1.2813,-1.347,-1.3818,-1.4299,-1.4291,-1.414,-1.378,-1.3353,-1.2785,-1.207,-1.0956,-1.0293,-1.0887,-1.1111,-1.1842,-1.2659,-1.3535,-1.4258,-1.4966,-1.586,-1.6954,-1.7978,-1.9003,-1.9998,-2.0858,-2.0933,-2.0944,-2.1008,-2.1071,-2.1262,1.9117,1.5785,0.8891,0.4864,0.261,-0.0934,-0.2857,-0.4167,-0.4562,-0.3952,-0.371,-0.5651,-0.7442,-0.7918,-0.7404,-0.7404,-0.8017,-0.9152,-0.9763,-1.0279,-1.1225,-1.2251,-1.3476,-1.3367,-1.3804,-1.3892,-1.329,-1.1665,-0.9744,-0.8765,-0.7931,-0.7015,-0.6483,-0.6405,-0.7015,-0.8138,-0.9825,-1.1665,-1.3375,-1.5192,-1.6716,-1.4003,-0.7025,-0.1099,0.2401,0.6626,1.1422,1.3879,1.4356,1.4577,1.4696,1.4363,1.4148,1.4083,1.4011,1.2959,1.2298,1.1626,1.1025,1.0501,0.9895,0.8461,0.8699,0.9231,1.0349,1.2414,1.4396,1.2566,0.8279,0.2544,-0.6348,0.0761,0.4735,0.5805,0.7755,0.7664,0.4765,0.3752,-0.0148,-0.5135,-0.8646,-1.061,-1.1702,-1.1848,-1.1996,-1.2512,-1.3171,-1.344,-1.3563,-1.3331,-1.2961,-1.2384,-1.1951,-1.1749,-1.1323,-1.0663,-1.0073,-1.0519,-1.1105,-1.1916,-1.2865,-1.4034,-1.4966,-1.5824,-1.6775,-1.7648,-1.8716,-1.9738,-2.0858,-2.18,-2.1726,-2.1651,-2.1726,-2.1851,-2.1963,1.8642,1.3646,0.7894,0.3801,0.0387,-0.4917,-0.7787,-0.7714,-0.9226,-0.9634,-0.9275,-1.0032,-1.0019,-0.93,-0.8532,-0.8116,-0.846,-0.9767,-1.0376,-1.0982,-1.1923,-1.2813,-1.3431,-1.3684,-1.4099,-1.4643,-1.4452,-1.3288,-1.1224,-0.9814,-0.8689,-0.7778,-0.7092,-0.6865,-0.7472,-0.8888,-1.0638,-1.2659,-1.434,-1.607,-1.5255,-1.1378,-0.5264,0.1369,0.4268,0.6689,1.0198,1.0787,1.2071,1.299,1.3382,1.315,1.3535,1.3688,1.3251,1.2519,1.2739,1.2439,1.1916,1.1168,1.034,0.8993,0.9084,0.9397,1.0883,1.2748,1.369,0.8098,0.8246,0.4621,0.3119,0.9114,1.2673,1.3723,1.7458,2.0027,1.3401,0.9171,0.4748,-0.0513,-0.6211,-0.9798,-1.118,-1.1842,-1.1983,-1.1922,-1.2579,-1.2198,-1.2318,-1.2145,-1.1771,-1.1045,-1.0616,-1.0634,-1.0576,-1.0738,-1.0449,-1.0899,-1.1626,-1.2432,-1.3513,-1.4673,-1.5604,-1.6464,-1.7335,-1.82,-1.9333,-2.0398,-2.1325,-2.2049,-2.2235,-2.2359,-2.2297,-2.2347,-2.2457,1.6214,0.8208,1.2909,0.3989,-1.2231,-1.1694,-1.5161,-2.0607,-1.8118,-1.6812,-1.471,-1.2143,-1.0778,-1.0077,-0.924,-0.8911,-0.9257,-1.0028,-1.1068,-1.1757,-1.2522,-1.3381,-1.4163,-1.4252,-1.4584,-1.5078,-1.4889,-1.4106,-1.2684,-1.1279,-0.9873,-0.8746,-0.7544,-0.7242,-0.8152,-0.9836,-1.2224,-1.4646,-1.6191,-1.6278,-1.4803,-1.1972,-0.743,-0.3268,0.0153,0.3219,0.6847,0.7614,0.8844,1.1534,1.118,1.1304,1.199,1.2372,1.2746,1.3185,1.3753,1.4091,1.3063,1.1951,1.0703,0.9593,0.9155,0.9566,1.0149,1.2329,1.123,0.0627,1.0122,1.5317,1.1376,1.6294,1.9758,1.9938,2.0075,1.7307,1.2256,1.3744,0.9287,0.3702,-0.2203,-0.7664,-1.1141,-1.1624,-1.2044,-1.1909,-1.1687,-1.1304,-1.0691,-1.0364,-1.0198,-0.9396,-0.919,-0.9205,-0.9895,-1.0056,-1.0599,-1.1061,-1.2077,-1.3011,-1.4163,-1.5242,-1.6167,-1.701,-1.7949,-1.8747,-1.9727,-2.0719,-2.1776,-2.2235,-2.242,-2.2604,-2.2787,-2.2836,-2.2944,0.5422,0.0228,-0.0982,-0.6474,-1.4871,-1.7615,-2.0544,-2.2695,-2.1363,-1.9528,-1.7814,-1.5367,-1.3206,-1.1787,-1.0707,-1.0376,-1.0549,-1.0982,-1.1585,-1.2272,-1.2838,-1.34,-1.3902,-1.4535,-1.5033,-1.5445,-1.5848,-1.5762,-1.4268,-1.2138,-1.022,-0.9185,-0.7842,-0.7468,-0.8817,-1.0837,-1.3491,-1.5868,-1.7369,-1.7321,-1.5558,-1.292,-0.9734,-0.6363,-0.3755,-0.046,0.2384,0.463,0.61,0.8751,0.9523,1.0755,1.1409,1.2144,1.2966,1.3615,1.4322,1.4099,1.2931,1.2031,1.092,0.9508,0.8505,0.7509,0.6674,0.6237,0.8042,0.4819,1.0405,1.4841,1.6825,1.9796,2.0604,2.107,2.0671,1.8301,1.4693,1.5104,1.3483,0.763,0.2285,-0.2183,-0.7216,-1.0359,-0.9768,-0.8421,-0.902,-0.9718,-0.8727,-0.7732,-0.7656,-0.7588,-0.76,-0.777,-0.8761,-0.9453,-1.0235,-1.0911,-1.2285,-1.3295,-1.4665,-1.5737,-1.6733,-1.7881,-1.9003,-1.9727,-2.0246,-2.1037,-2.2025,-2.2408,-2.2604,-2.2848,-2.315,-2.3305,-2.3471,-0.8631,-1.0514,-1.1781,-1.3652,-1.6645,-2.2446,-2.4047,-2.2905,-2.1855,-2.0623,-1.9149,-1.705,-1.4906,-1.3237,-1.1906,-1.1322,-1.1483,-1.1752,-1.1918,-1.2345,-1.2814,-1.3188,-1.3601,-1.4379,-1.5114,-1.5803,-1.6666,-1.6612,-1.5271,-1.3216,-1.1163,-0.9772,-0.8523,-0.8376,-0.9702,-1.2052,-1.4952,-1.8596,-1.9264,-1.8854,-1.7331,-1.4536,-1.1866,-0.934,-0.698,-0.4373,-0.1462,0.0694,0.2929,0.579,0.7431,0.8737,1.0409,1.1378,1.2498,1.331,1.4114,1.3818,1.2858,1.189,1.092,0.9326,0.6417,0.4036,-0.0285,-0.2166,-0.1172,0.3605,1.1094,1.5709,1.9247,2.0891,2.0471,2.0005,1.9359,1.8557,1.7665,1.6399,1.5249,1.1485,0.7287,0.5691,0.0137,-0.6688,-0.7712,-0.5377,-0.5862,-0.7639,-0.7134,-0.5912,-0.6066,-0.6374,-0.7,-0.7314,-0.8389,-0.9231,-0.9938,-1.1055,-1.2432,-1.3757,-1.5168,-1.6332,-1.7354,-1.8623,-1.9857,-2.0568,-2.1014,-2.1667,-2.2261,-2.2641,-2.2957,-2.3198,-2.3437,-2.3649,-2.3943,-2.5523,-2.4603,-0.9553,-1.169,-2.3775,-2.4146,-2.3813,-2.299,-2.1952,-2.0874,-1.9492,-1.6976,-1.5011,-1.3497,-1.2583,-1.1826,-1.1455,-1.2083,-1.1986,-1.1975,-1.2292,-1.3085,-1.3534,-1.403,-1.4896,-1.5998,-1.6924,-1.6959,-1.6149,-1.4458,-1.2351,-1.0548,-0.9513,-0.989,-1.1458,-1.3955,-1.7341,-2.0385,-2.1082,-2.0407,-1.8929,-1.6528,-1.3859,-1.17,-0.984,-0.7727,-0.4841,-0.2931,-0.054,0.2772,0.425,0.6572,0.8864,0.9852,1.0971,1.2572,1.3251,1.3018,1.2485,1.1951,1.1243,0.9452,0.5223,-0.1373,-0.7749,0.1191,0.2936,-0.0536,0.6836,1.5,1.8382,1.9849,1.6486,1.5995,1.478,1.515,1.4717,1.5151,1.4104,1.3314,1.1659,0.946,0.7651,0.0842,-0.3156,-0.1122,-0.3906,-0.5739,-0.5678,-0.4916,-0.5226,-0.569,-0.6546,-0.7395,-0.8546,-0.9539,-1.0594,-1.1848,-1.3222,-1.4498,-1.5757,-1.6871,-1.823,-1.9222,-2.0386,-2.1089,-2.1842,-2.247,-2.2967,-2.31,-2.3352,-2.378,-2.4086,-2.4319,-2.4536,-2.6308,-2.6083,-1.9586,-2.0093,-2.517,-2.4669,-2.4162,-2.357,-2.251,-2.1221,-1.9766,-1.7747,-1.6355,-1.535,-1.4273,-1.3451,-1.3027,-1.2607,-1.251,-1.2681,-1.3178,-1.3381,-1.3689,-1.4273,-1.5239,-1.6083,-1.674,-1.6673,-1.5807,-1.4909,-1.3259,-1.1527,-1.0421,-1.0989,-1.2746,-1.6151,-1.9918,-2.159,-2.2177,-2.1554,-2.0396,-1.8221,-1.5739,-1.3682,-1.2535,-1.0586,-0.8103,-0.6159,-0.354,-0.0848,0.1314,0.4167,0.6942,0.7862,0.9466,1.1304,1.1835,1.205,1.2178,1.1273,0.9337,0.2749,-0.1824,-0.7459,-1.4539,-0.9716,-0.5735,-0.3887,0.1078,0.8809,1.2395,0.9527,0.6229,0.7894,0.9353,1.0395,1.0901,1.1171,1.1256,0.9774,1.1519,1.2016,1.045,0.8375,0.5194,0.28,-0.069,-0.3663,-0.4059,-0.4608,-0.5148,-0.6063,-0.7069,-0.8138,-0.9286,-1.0415,-1.1471,-1.2778,-1.4076,-1.5415,-1.6729,-1.8014,-1.9212,-2.0128,-2.1078,-2.2053,-2.2857,-2.342,-2.3669,-2.3787,-2.4105,-2.4478,-2.4778,-2.4905,-2.4905,-2.6057,-2.6837,-2.6684,-2.6103,-2.5465,-2.5218,-2.4931,-2.4357,-2.3213,-2.1614,-1.9863,-1.8496,-1.761,-1.6952,-1.5628,-1.4615,-1.3873,-1.3288,-1.3045,-1.313,-1.3275,-1.3523,-1.3885,-1.4417,-1.5204,-1.6005,-1.6616,-1.6634,-1.5675,-1.5296,-1.3715,-1.2124,-1.1316,-1.1883,-1.3731,-1.8177,-2.1872,-2.2795,-2.3081,-2.254,-2.159,-1.9717,-1.7784,-1.5974,-1.4719,-1.2912,-1.0672,-0.8515,-0.6007,-0.3388,-0.1004,0.1702,0.4017,0.6103,0.7795,0.9256,1.0335,1.0771,1.1027,1.0863,0.7449,0.062,-0.5068,-1.2082,-1.7766,-1.6722,-0.912,-1.0018,-0.5193,0.0757,0.6527,0.313,0.2394,0.4697,0.4708,0.5525,0.5597,0.585,0.6226,0.6093,0.7227,0.6806,0.7749,0.5567,0.3834,0.1298,-0.1081,-0.3669,-0.4292,-0.4916,-0.5761,-0.6827,-0.804,-0.91,-1.0237,-1.1931,-1.3469,-1.4395,-1.5607,-1.6624,-1.7909,-1.9159,-2.0395,-2.146,-2.2396,-2.3251,-2.3923,-2.457,-2.4584,-2.4412,-2.4765,-2.5059,-2.5005,-2.5075,-2.5018,-2.6786,-2.7841,-2.7126,-2.6395,-2.5955,-2.6254,-2.6054,-2.5087,-2.3632,-2.1886,-1.9932,-1.8736,-1.8095,-1.7359,-1.5951,-1.4942,-1.4176,-1.3535,-1.313,-1.3039,-1.3464,-1.3366,-1.3651,-1.43,-1.5249,-1.6279,-1.6727,-1.6519,-1.5675,-1.5367,-1.4004,-1.2872,-1.2365,-1.2778,-1.3584,-1.8263,-2.1675,-2.3361,-2.3833,-2.3454,-2.2614,-2.1197,-1.9597,-1.7948,-1.6305,-1.4522,-1.2563,-1.0278,-0.7845,-0.5393,-0.3335,-0.0543,0.2551,0.4026,0.588,0.8121,0.8903,0.922,0.9163,1.0636,0.6021,-0.1654,-0.7995,-1.3863,-1.708,-1.3646,-0.8468,-0.929,-0.2445,0.182,0.2166,-0.0718,-0.0809,-0.0695,-0.0989,-0.0646,-0.0655,0.0514,0.0799,0.1287,-0.1157,-0.2652,-0.0,0.117,0.0227,-0.1236,-0.2495,-0.375,-0.4985,-0.5983,-0.713,-0.8468,-0.9814,-1.1064,-1.2403,-1.4063,-1.5449,-1.6235,-1.7005,-1.7871,-1.9041,-2.0415,-2.1623,-2.2735,-2.3638,-2.4416,-2.5065,-2.5714,-2.5605,-2.5439,-2.5312,-2.5423,-2.5354,-2.5244,-2.5061,-2.6989,-2.792,-2.751,-2.7482,-2.7668,-2.765,-2.7011,-2.5795,-2.3745,-2.1735,-2.0089,-1.9311,-1.8754,-1.7853,-1.678,-1.5606,-1.4692,-1.4203,-1.3795,-1.3294,-1.3971,-1.4307,-1.4435,-1.4698,-1.5514,-1.6363,-1.6692,-1.6484,-1.5666,-1.5641,-1.4442,-1.3251,-1.2952,-1.4091,-1.5651,-1.8705,-2.1253,-2.2795,-2.3526,-2.3826,-2.3546,-2.2164,-2.0568,-1.9013,-1.7239,-1.5483,-1.37,-1.1273,-0.9085,-0.695,-0.4974,-0.2255,0.0388,0.1865,0.4196,0.628,0.7271,0.6113,0.4605,0.3551,0.1176,-0.5771,-1.1475,-1.5695,-1.795,-1.1012,-0.7949,-0.6332,-0.2126,-0.0399,-0.3736,-0.9419,-1.0849,-0.9921,-0.9597,-0.8602,-0.7859,-0.5831,-0.4601,-0.4063,-0.5335,-0.6052,-0.4705,-0.3737,-0.4313,-0.5217,-0.6554,-0.6703,-0.7639,-0.8401,-0.9316,-1.0695,-1.2085,-1.3244,-1.4553,-1.5983,-1.6908,-1.7561,-1.8113,-1.8716,-1.9998,-2.1623,-2.2529,-2.3579,-2.4573,-2.5508,-2.6026,-2.6443,-2.6549,-2.6486,-2.6087,-2.5703,-2.5466,-2.5244,-2.5061,-2.7537,-2.8712,-2.8145,-2.8381,-2.9045,-2.9032,-2.8066,-2.6252,-2.3979,-2.2017,-2.0692,-1.9942,-1.924,-1.8336,-1.7269,-1.637,-1.5296,-1.4391,-1.4153,-1.3737,-1.4314,-1.4482,-1.4655,-1.5131,-1.5819,-1.6455,-1.6806,-1.6661,-1.6576,-1.6531,-1.5666,-1.4289,-1.2698,-1.1411,-1.3271,-1.6278,-2.1454,-2.2997,-2.4008,-2.4553,-2.3852,-2.2591,-2.1014,-1.9201,-1.7366,-1.5404,-1.3621,-1.1729,-0.9728,-0.7901,-0.5906,-0.3665,-0.1717,0.0624,0.2963,0.4977,0.3756,0.2765,0.1325,-0.6599,-0.9442,-1.3121,-1.5999,-1.7228,-1.6376,-0.9778,-0.7483,-0.5611,-0.3162,-0.5589,-0.9416,-1.5492,-1.5128,-1.3909,-1.361,-1.236,-1.1806,-0.9601,-0.979,-0.9225,-1.0077,-1.0131,-0.9947,-0.9141,-0.8893,-0.9802,-1.0646,-1.0595,-1.0456,-1.1132,-1.1939,-1.3158,-1.4434,-1.5635,-1.6638,-1.7658,-1.8449,-1.889,-1.9344,-1.9792,-2.1311,-2.2915,-2.3638,-2.446,-2.5604,-2.652,-2.6811,-2.71,-2.7137,-2.6878,-2.6379,-2.5976,-2.5605,-2.5313,-2.5075,-2.8312,-2.9931,-2.9035,-2.8986,-2.9749,-3.0001,-2.8783,-2.6375,-2.4376,-2.2818,-2.1583,-2.0235,-1.9548,-1.8825,-1.744,-1.6535,-1.5884,-1.4391,-1.3984,-1.3906,-1.4153,-1.423,-1.4538,-1.5,-1.5786,-1.6453,-1.6781,-1.6555,-1.7104,-1.3744,-1.3314,-1.3561,-1.0057,-0.8577,-1.0013,-1.3963,-1.9452,-2.139,-2.4695,-2.4341,-2.2851,-2.2124,-1.9772,-1.7615,-1.5402,-1.3968,-1.2364,-1.0771,-0.9432,-0.7833,-0.6143,-0.4443,-0.2496,-0.0,0.2418,0.2709,-0.0069,-0.0399,-0.4787,-1.4256,-1.734,-1.7721,-1.3497,-1.5924,-1.483,-0.9118,-0.5938,-0.5937,-0.5154,-0.9325,-1.359,-1.3822,-1.3974,-1.3824,-1.3964,-1.3618,-1.3693,-1.3569,-1.4418,-1.5189,-1.6741,-1.7064,-1.6466,-1.5659,-1.3378,-1.4344,-1.4974,-1.4792,-1.4603,-1.4159,-1.4965,-1.5687,-1.6961,-1.8081,-1.8951,-1.9191,-1.941,-1.9704,-2.059,-2.1215,-2.2784,-2.3955,-2.47,-2.5549,-2.6834,-2.7458,-2.7473,-2.7524,-2.761,-2.7255,-2.6878,-2.6258,-2.5907,-2.5425,-2.5188,-2.7018,-2.8597,-2.8596,-2.879,-2.9198,-2.9364,-2.8368,-2.6481,-2.4779,-2.3283,-2.1659,-2.1155,-2.0391,-1.932,-1.8014,-1.7107,-1.6206,-1.5304,-1.4314,-1.4068,-1.4068,-1.4321,-1.4504,-1.4689,-1.5518,-1.6531,-1.6732,-1.5163,-0.9914,-0.7446,-0.6227,-0.5332,-0.6271,-0.5541,-0.6957,-1.043,-1.4455,-1.846,-2.2802,-2.2538,-2.0765,-1.9609,-1.6772,-1.3596,-1.265,-1.1509,-1.0718,-0.9643,-0.8447,-0.7387,-0.5925,-0.4533,-0.3917,-0.1012,0.1309,-0.0992,-0.2173,-0.3758,-1.3284,-1.8507,-2.1026,-2.0588,-1.5667,-1.2995,-1.1962,-0.841,-0.3701,-0.4356,-0.6133,-0.9493,-1.2103,-1.2914,-1.3256,-1.3567,-1.3698,-1.3821,-1.3867,-1.4171,-1.5176,-1.6871,-1.8602,-1.9768,-1.967,-1.9626,-1.7845,-1.8843,-1.9209,-1.8764,-1.8304,-1.7648,-1.7466,-1.8195,-1.8767,-1.9727,-1.9912,-2.015,-2.0302,-2.0571,-2.1376,-2.2163,-2.3276,-2.4385,-2.5467,-2.6453,-2.7464,-2.781,-2.7855,-2.794,-2.8107,-2.791,-2.753,-2.6826,-2.615,-2.5715,-2.5494,-2.6476,-2.8078,-2.8093,-2.8225,-2.8387,-2.8529,-2.788,-2.6612,-2.538,-2.3868,-2.2478,-2.2188,-2.1221,-1.9775,-1.8877,-1.79,-1.6617,-1.5718,-1.4734,-1.4075,-1.4068,-1.4068,-1.4058,-1.409,-1.4685,-1.5835,-1.6091,-1.4458,-0.7233,-0.2525,-0.094,-0.3395,-0.346,-0.249,-0.3467,-0.6216,-0.9222,-1.2784,-1.5864,-1.7804,-1.7445,-1.598,-1.2415,-0.9749,-0.9443,-0.9283,-0.8849,-0.7977,-0.7302,-0.67,-0.5467,-0.4696,-0.5054,-0.4045,-0.1831,-0.4188,-0.8265,-1.1814,-1.8585,-2.2819,-2.3407,-2.1526,-1.7474,-1.3908,-0.9463,-0.5474,-0.3329,-0.2876,-0.5494,-0.8138,-1.0279,-1.2197,-1.2762,-1.3322,-1.3509,-1.369,-1.3757,-1.389,-1.5147,-1.6826,-1.8362,-1.9814,-2.0598,-2.1118,-2.1471,-2.1311,-2.1413,-2.1451,-2.0865,-2.0178,-1.9868,-2.0116,-2.047,-2.1026,-2.1008,-2.0828,-2.0955,-2.1123,-2.1705,-2.2603,-2.369,-2.4995,-2.6279,-2.7166,-2.7932,-2.8125,-2.8171,-2.8462,-2.8574,-2.8286,-2.7993,-2.7414,-2.6745,-2.6244,-2.6115,-2.6115,-2.8088,-2.7723,-2.7459,-2.7459,-2.7815,-2.7537,-2.6905,-2.5963,-2.4743,-2.3514,-2.3084,-2.1745,-2.0157,-1.9483,-1.8443,-1.7009,-1.5801,-1.4824,-1.4082,-1.373,-1.3626,-1.3477,-1.3296,-1.3756,-1.4817,-1.4246,-1.1801,-0.6937,-0.128,0.1667,-0.2871,-0.1296,0.0386,0.1217,-0.3319,-0.5378,-0.4694,-0.7564,-0.985,-1.2329,-1.1645,-0.9933,-0.8103,-0.7643,-0.7597,-0.6732,-0.6224,-0.5851,-0.5541,-0.5079,-0.4309,-0.6156,-0.7552,-0.5596,-0.8428,-1.3589,-1.8331,-2.1932,-2.5095,-2.4671,-2.2241,-1.8169,-1.2798,-0.7415,-0.4073,-0.2435,-0.3637,-0.6381,-0.8214,-1.0301,-1.1697,-1.2417,-1.2659,-1.2725,-1.2991,-1.3273,-1.381,-1.5084,-1.6748,-1.8295,-1.976,-2.1404,-2.1954,-2.2676,-2.2809,-2.3002,-2.3374,-2.2882,-2.2139,-2.1779,-2.1616,-2.169,-2.1702,-2.1262,-2.121,-2.14,-2.1741,-2.2188,-2.3166,-2.4359,-2.5753,-2.7181,-2.7799,-2.8319,-2.8448,-2.8574,-2.8811,-2.8811,-2.8398,-2.8091,-2.7849,-2.7348,-2.6849,-2.6582,-2.4455,-2.5971,-2.6902,-2.6934,-2.6445,-2.7229,-2.7242,-2.6658,-2.6371,-2.5193,-2.3745,-2.318,-2.208,-2.0323,-1.9662,-1.862,-1.7172,-1.5659,-1.4559,-1.4062,-1.3555,-1.3161,-1.3112,-1.2723,-1.2959,-1.2685,-1.1323,-0.7929,-0.2722,0.3103,0.6706,0.3648,0.3032,0.289,0.3051,-0.156,-0.104,0.0594,-0.0,-0.3352,-0.6548,-0.7805,-0.7203,-0.4077,-0.2402,-0.466,-0.453,-0.4683,-0.4533,-0.438,-0.399,-0.4741,-0.6592,-0.7359,-1.0863,-1.5542,-1.8442,-2.2465,-2.455,-2.4805,-2.2562,-1.9099,-1.4289,-0.9056,-0.5031,-0.3003,-0.3026,-0.5157,-0.6983,-0.8579,-1.0003,-1.1105,-1.1903,-1.1918,-1.1939,-1.2291,-1.2638,-1.386,-1.5084,-1.6651,-1.8208,-1.9922,-2.1705,-2.2847,-2.3577,-2.3943,-2.4118,-2.4189,-2.378,-2.3113,-2.2567,-2.2396,-2.2347,-2.2223,-2.1663,-2.1526,-2.1702,-2.2113,-2.2615,-2.3709,-2.5024,-2.6448,-2.7879,-2.8238,-2.859,-2.8716,-2.8904,-2.909,-2.8997,-2.8574,-2.8446,-2.8255,-2.8027,-2.7545,-2.7233,-2.3328,-2.47,-2.5826,-2.6041,-2.579,-2.6616,-2.6876,-2.6496,-2.6233,-2.5417,-2.4397,-2.3913,-2.2585,-2.0566,-1.9773,-1.8689,-1.7324,-1.5621,-1.4719,-1.4105,-1.3407,-1.2798,-1.249,-1.1992,-1.1473,-1.081,-0.6611,-0.2432,0.0145,0.5782,0.8426,0.5745,0.3906,0.2978,0.2196,0.133,0.1329,0.2501,0.368,0.1581,-0.22,-0.3027,-0.3514,-0.0311,-0.1333,-0.2982,-0.2821,-0.313,-0.3602,-0.4812,-0.5848,-0.5741,-0.8852,-1.3477,-1.7064,-1.9989,-2.247,-2.4867,-2.5185,-2.295,-1.8696,-1.4502,-1.1748,-0.7081,-0.4846,-0.3179,-0.3932,-0.5912,-0.7383,-0.8878,-0.9785,-1.0802,-1.101,-1.1043,-1.1137,-1.136,-1.2338,-1.365,-1.513,-1.6789,-1.8522,-2.0478,-2.2225,-2.3787,-2.435,-2.4421,-2.4677,-2.4447,-2.4112,-2.376,-2.3283,-2.2921,-2.2739,-2.2297,-2.1486,-2.1577,-2.1928,-2.2457,-2.305,-2.473,-2.625,-2.7384,-2.8414,-2.8621,-2.8858,-2.9013,-2.9198,-2.9289,-2.9182,-2.8811,-2.8732,-2.8732,-2.8446,-2.8073,-2.764,-2.2592,-2.3904,-2.4963,-2.5203,-2.5165,-2.6155,-2.6593,-2.6458,-2.6,-2.5557,-2.5157,-2.4815,-2.2996,-2.1206,-1.9858,-1.883,-1.7488,-1.564,-1.4724,-1.4104,-1.3251,-1.2512,-1.1735,-1.0967,-1.0048,-0.7557,-0.365,-0.3287,-0.294,0.3371,0.6311,0.4285,0.3444,0.2668,0.1564,0.1093,0.1245,0.1555,0.1944,0.1798,0.1091,0.0782,-0.0312,-0.1409,-0.2123,-0.2199,-0.1961,-0.196,-0.2744,-0.4624,-0.7248,-0.8558,-1.157,-1.7359,-2.1179,-2.3766,-2.4025,-2.3961,-2.2208,-1.8797,-1.4364,-1.0573,-0.8772,-0.6512,-0.4063,-0.4323,-0.507,-0.609,-0.7475,-0.8631,-0.9535,-1.0307,-1.036,-1.057,-1.0749,-1.0938,-1.2184,-1.3578,-1.5263,-1.6927,-1.8833,-2.0785,-2.2433,-2.4008,-2.4637,-2.4721,-2.4677,-2.4403,-2.4054,-2.37,-2.3283,-2.2921,-2.2739,-2.2111,-2.1423,-2.1901,-2.2421,-2.2977,-2.3781,-2.5739,-2.7297,-2.7944,-2.8477,-2.8794,-2.9014,-2.9029,-2.9121,-2.9167,-2.9059,-2.8904,-2.8967,-2.8873,-2.8494,-2.8107,-2.7725,-2.2139,-2.3469,-2.4773,-2.5189,-2.5232,-2.6141,-2.658,-2.6539,-2.6483,-2.6057,-2.5363,-2.4759,-2.3395,-2.1387,-1.9703,-1.863,-1.7863,-1.5878,-1.493,-1.4402,-1.338,-1.2422,-1.149,-1.0706,-0.8311,-0.5956,-0.3652,-0.2275,-0.3513,0.0378,0.2543,0.1088,0.1639,0.1086,0.0076,-0.0,0.0459,0.0688,0.0538,0.0386,-0.0,-0.0548,-0.1176,-0.1806,-0.2201,-0.2435,-0.2354,-0.1884,-0.1884,-0.3321,-0.6845,-1.0305,-1.4943,-2.0098,-2.3965,-2.5968,-2.6214,-2.2636,-1.9888,-1.3506,-0.8444,-0.8742,-0.6481,-0.3067,-0.2386,-0.4178,-0.49,-0.5513,-0.6805,-0.8005,-0.8961,-1.0185,-1.0605,-1.098,-1.1248,-1.1613,-1.2498,-1.3947,-1.5517,-1.7073,-1.8721,-2.0426,-2.2003,-2.3301,-2.4234,-2.4305,-2.4408,-2.4144,-2.3936,-2.3582,-2.3223,-2.2982,-2.2739,-2.2297,-2.1788,-2.2531,-2.3113,-2.3657,-2.4416,-2.6105,-2.7327,-2.7959,-2.8396,-2.8652,-2.8779,-2.8795,-2.8889,-2.8936,-2.8936,-2.8826,-2.8982,-2.8936,-2.8494,-2.8042,-2.7545]},{"header":{"parameterUnit":"m.s-1","parameterCategory":1,"la1":31.0,"la2":29.5877,"lo1":-88.7671,"lo2":-86.6584,"dy":0.0162,"dx":0.0185,"nx":115,"ny":88,"refTime":"2024-07-24T12:00:00:Z","depth":0,"parameterNumber":3,"parameterNumberName":"V-component_of_WINDS"},"data":[0.0,0.0,0.0,0.0,0.0,0.0,0.0,0.0,0.0,0.0,0.0,0.0,0.0,0.0,0.0,0.0,0.0,0.0,0.0,0.0,0.0,0.0,0.0,0.0,0.0,0.0,0.0,0.0,0.0,0.0,0.0,0.0,0.0,0.0,0.0,0.0,0.0,0.0,0.0,0.0,0.0,0.0,0.0,0.0,0.0,0.0,0.0,0.0,0.0,0.0,0.0,0.0,0.0,0.0,0.0,0.0,0.0,0.0,0.0,0.0,0.0,0.0,0.0,0.0,0.0,0.0,0.0,0.0,0.0,0.0,0.0,0.0,0.0,0.0,0.0,0.0,0.0,0.0,0.0,0.0,0.0,0.0,0.0,0.0,0.0,0.0,0.0,0.0,0.0,0.0,0.0,0.0,0.0,0.0,0.0,0.0,0.0,0.0,0.0,0.0,0.0,0.0,0.0,0.0,0.0,0.0,0.0,0.0,0.0,0.0,0.0,0.0,0.0,0.0,0.0,0.0,0.0,0.0,0.0,0.0,0.0,0.0,0.0,0.0,0.0,0.0,0.0,0.0,0.0,0.0,0.0,0.0,0.0,0.0,0.0,0.0,0.0,0.0,0.0,0.0,0.0,0.0,0.0,0.0,0.0,0.0,0.0,0.0,0.0,0.0,0.0,0.0,0.0,0.0,0.0,0.0,0.0,0.0,0.0,0.0,0.0,0.0,0.0,0.0,0.0,0.0,0.0,0.0,0.0,0.0,0.0,0.0,0.0,0.0,0.0,0.0,0.0,0.0,0.0,0.0,0.0,0.0,0.0,0.0,0.0,0.0,0.0,0.0,0.0,0.0,0.0,0.0,0.0,0.0,0.0,0.0,0.0,0.0,0.0,0.0,0.0,0.0,0.0,0.0,0.0,0.0,0.0,0.0,0.0,0.0,0.0,0.0,0.0,0.0,0.0,0.0,0.0,0.0,0.0,0.0,0.0,0.0,0.0,0.0,0.0,0.0,0.0,0.0,0.0,0.0,0.0,0.0,0.0,0.0,0.0,0.0,0.0,0.0,0.0,0.0,0.0,0.0,0.0,0.0,0.0,0.0,0.0,0.0,0.0,0.0,0.0,0.0,0.0,0.0,0.0,0.0,0.0,0.0,0.0,0.0,0.0,0.0,0.0,0.0,0.0,0.0,0.0,0.0,0.0,0.0,0.0,0.0,0.0,0.0,0.0,0.0,0.0,0.0,0.0,0.0,0.0,0.0,0.0,0.0,0.0,0.0,0.0,0.0,0.0,0.0,0.0,0.0,0.0,0.0,0.0,0.0,0.0,0.0,0.0,0.0,0.0,0.0,0.0,0.0,0.0,0.0,0.0,0.0,0.0,0.0,0.0,0.0,0.0,0.0,0.0,0.0,0.0,0.0,0.0,0.0,0.0,0.0,0.0,0.0,0.0,0.0,0.0,0.0,0.0,0.0,0.0,0.0,0.0,0.0,0.0,0.0,0.0,0.0,0.0,0.0,0.0,0.0,0.0,0.0,0.0,0.0,0.0,0.0,0.0,0.0,0.0,0.0,0.0,0.0,0.0,0.0,0.0,0.0,0.0,0.0,0.0,0.0,0.0,0.0,0.0,0.0,0.0,0.0,0.0,0.0,0.0,0.0,0.0,0.0,0.0,0.0,0.0,0.0,0.0,0.0,0.0,0.0,0.0,0.0,0.0,0.0,0.0,0.0,0.0,0.0,0.0,0.0,0.0,0.0,0.0,0.0,0.0,0.0,0.0,0.0,0.0,0.0,0.0,0.0,0.0,0.0,0.0,0.0,0.0,0.0,0.0,0.0,0.0,0.0,0.0,0.0,0.0,0.0,0.0,0.0,0.0,0.0,0.0,0.0,0.0,0.0,0.0,0.0,0.0,0.0,0.0,0.0,0.0,0.0,0.0,0.0,0.0,0.0,0.0,0.0,0.0,0.0,0.0,0.0,0.0,0.0,0.0,0.0,0.0,0.0,0.0,0.0,0.0,0.0,0.0,0.0,0.0,0.0,0.0,0.0,0.0,0.0,0.0,0.0,0.0,0.0,0.0,0.0,0.0,0.0,0.0,0.0,0.0,0.0,0.0,0.0,0.0,0.0,0.0,0.0,0.0,0.0,0.0,0.0,0.0,0.0,0.0,0.0,0.0,0.0,0.0,0.0,0.0,0.0,0.0,0.0,0.0,0.0,0.0,0.0,0.0,0.0,0.0,0.0,0.0,0.0,0.0,0.0,0.0,0.0,0.0,0.0,0.0,0.0,0.0,0.0,0.0,0.0,0.0,0.0,0.0,0.0,0.0,0.0,0.0,0.0,0.0,0.0,0.0,0.0,0.0,0.0,0.0,0.0,0.0,0.0,0.0,0.0,0.0,0.0,0.0,0.0,0.0,0.0,0.0,0.0,0.0,0.0,0.0,0.0,0.0,0.0,0.0,0.0,0.0,0.0,0.0,0.0,0.0,0.0,0.0,0.0,0.0,0.0,0.0,0.0,0.0,0.0,0.0,0.0,0.0,0.0,0.0,0.0,0.0,0.0,0.0,0.0,0.0,0.0,0.0,0.0,0.0,0.0,0.0,0.0,0.0,0.0,0.0,0.0,0.0,0.0,0.0,0.0,0.0,0.0,0.0,0.0,0.0,0.0,0.0,0.0,0.0,0.0,0.0,0.0,0.0,0.0,0.0,0.0,0.0,0.0,0.0,0.0,0.0,0.0,0.0,0.0,0.0,0.0,0.0,0.0,0.0,0.0,0.0,0.0,0.0,0.0,0.0,0.0,0.0,0.0,0.0,0.0,0.0,0.0,0.0,0.0,0.0,0.0,0.0,0.0,0.0,0.0,0.0,0.0,0.0,0.0,0.0,0.0,0.0,0.0,0.0,0.0,0.0,0.0,0.0,0.0,0.0,0.0,0.0,0.0,0.0,0.0,0.0,0.0,0.0,0.0,0.0,0.0,0.0,0.0,0.0,0.0,0.0,0.0,0.0,0.0,0.0,0.0,0.0,0.0,0.0,0.0,0.0,0.0,0.0,0.0,0.0,0.0,0.0,0.0,0.0,0.0,0.0,0.0,0.0,0.0,0.0,0.0,0.0,0.0,0.0,0.0,0.0,0.0,0.0,0.0,0.0,0.0,0.0,0.0,0.0,0.0,0.0,0.0,0.0,0.0,0.0,0.0,0.0,0.0,0.0,0.0,0.0,0.0,0.0,0.0,0.0,0.0,0.0,0.0,0.0,0.0,0.0,0.0,0.0,0.0,0.0,0.0,0.0,0.0,0.0,0.0,0.0,0.0,0.0,0.0,0.0,0.0,0.0,0.0,0.0,0.0,0.0,0.0,0.0,0.0,0.0,0.0,0.0,0.0,0.0,0.0,0.0,0.0,0.0,0.0,0.0,0.0,0.0,0.0,0.0,0.0,0.0,0.0,0.0,0.0,0.0,0.0,0.0,0.0,0.0,0.0,0.0,0.0,0.0,0.0,0.0,0.0,0.0,0.0,0.0,0.0,0.0,0.0,0.0,0.0,0.0,0.0,0.0,0.0,0.0,0.0,0.0,0.0,0.0,0.0,0.0,0.0,0.0,0.0,0.0,0.0,0.0,0.0,0.0,0.0,0.0,0.0,0.0,0.0,0.0,0.0,0.0,0.0,0.0,0.0,0.0,0.0,0.0,0.0,0.0,0.0,0.0,0.0,0.0,0.0,0.0,0.0,0.0,0.0,0.0,0.0,0.0,0.0,0.0,0.0,0.0,0.0,0.0,0.0,0.0,0.0,0.0,0.0,0.0,0.0,0.0,0.0,0.0,0.0,0.0,0.0,0.0,0.0,0.0,0.0,0.0,0.0,0.0,0.0,0.0,0.0,0.0,0.0,0.0,0.0,0.0,0.0,0.0,0.0,0.0,0.0,0.0,0.0,0.0,0.0,0.0,0.0,0.0,0.0,0.0,0.0,0.0,0.0,0.0,0.0,0.0,0.0,0.0,0.0,0.0,0.0,0.0,0.0,0.0,0.0,0.0,0.0,0.0,0.0,0.0,0.0,0.0,0.0,0.0,0.0,0.0,0.0,0.0,0.0,0.0,0.0,0.0,0.0,0.0,0.0,0.0,0.0,0.0,0.0,0.0,0.0,0.0,0.0,0.0,0.0,0.0,0.0,0.0,0.0,0.0,0.0,0.0,0.0,0.0,0.0,0.0,0.0,0.0,0.0,0.0,0.0,0.0,0.0,0.0,0.0,0.0,0.0,0.0,0.0,0.0,0.0,0.0,0.0,0.4398,0.0,0.0,0.0,0.0,0.0,0.0,0.0,0.0,0.0,0.0,0.0,0.0,0.0,0.0,0.0,0.0,0.0,0.0,0.0,0.0,0.0,0.0,0.0,0.0,0.0,0.0,0.0,0.0,0.0,0.0,0.0,0.0,0.0,0.0,0.0,0.0,0.0,0.0,0.0,0.0,0.0,0.0,0.0,0.0,0.0,0.0,0.0,0.0,0.0,0.0,0.0,0.0,0.0,0.0,0.0,0.0,0.0,0.0,0.0,0.0,0.0,0.0,0.0,0.0,0.0,0.0,0.0,0.0,0.0,0.0,0.0,0.0,0.0,0.0,0.0,0.0,0.0,0.0,0.0,0.0,0.0,0.0,0.0,0.0,0.0,0.0,0.0,0.0,0.0,0.0,0.0,0.0,0.0,0.0,0.0,0.0,0.0,0.0,0.0,0.0,0.0,0.0,0.0,0.0,0.0,0.0,0.0,0.0,0.0,0.0,0.5184,0.4639,0.4504,0.4391,0.4313,0.0,0.0,0.0,0.0,0.0,0.0,0.0,0.0,0.0,0.0,0.0,0.0,0.0,0.0,0.0,0.0,0.0,0.0,0.0,0.0,0.0,0.0,0.0,0.0,0.0,0.0,0.0,0.0,0.0,0.0,0.0,0.0,0.0,0.0,0.0,0.0,0.0,0.0,0.0,0.0,0.0,0.0,0.0,0.0,0.0,0.0,0.0,0.0,0.0,0.0,0.0,0.0,0.0,0.0,0.0,0.0,0.0,0.0,0.0,0.0,0.0,0.0,0.0,0.0,0.0,0.0,0.0,0.0,0.0,0.0,0.0,0.0,0.0,0.0,0.0,0.0,0.0,0.0,0.0,0.0,0.0,0.0,0.0,0.0,0.0,0.0,0.0,0.0,0.0,0.0,0.0,0.0,0.0,0.0,0.0,0.0,0.0,0.0,0.0,0.0,0.0,0.0,0.0,0.0,0.0,0.0,0.0,0.0,0.0,0.0,0.0,0.0,0.4395,0.4287,0.4301,0.0,0.0,0.0,0.0,0.0,0.0,0.0,0.0,0.0,0.0,0.0,0.0,0.0,0.0,0.0,0.0,0.0,0.0,0.0,0.0,0.0,0.0,0.0,0.0,0.0,0.0,0.0,0.0,0.0,0.0,0.0,0.0,0.0,0.0,0.0,0.0,0.0,0.0,0.0,0.0,0.0,0.0,0.0,0.0,0.0,0.0,0.0,0.0,0.0,0.0,0.0,0.0,0.0,0.0,0.0,0.0,0.0,0.0,0.0,0.0,0.0,0.0,0.0,0.0,0.0,0.0,0.0,0.0,0.0,0.0,0.0,0.0,0.0,0.0,0.0,0.0,0.0,0.0,0.0,0.0,0.0,0.0,0.0,0.0,0.0,0.0,0.0,0.0,0.0,0.0,0.0,0.0,0.0,0.0,0.0,0.0,0.0,0.0,0.0,0.0,0.0,0.0,0.0,0.0,0.0,0.0,0.0,0.0,0.0,0.0,0.4988,0.5637,0.4897,0.0,0.457,0.0,0.0,0.0,0.0,0.0,0.0,0.0,0.0,0.0,0.0,0.0,0.0,0.0,0.0,0.0,0.0,0.0,0.0,0.0,0.0,0.0,0.0,0.0,0.0,0.0,0.0,0.0,0.0,0.0,0.0,0.0,0.0,0.0,0.0,0.0,0.0,0.0,0.0,0.0,0.0,0.0,0.0,0.0,0.0,0.0,0.0,0.0,0.0,0.0,0.0,0.0,0.0,0.0,0.0,0.0,0.0,0.0,0.0,0.0,0.0,0.0,0.0,0.0,0.0,0.0,0.0,0.0,0.0,0.0,0.0,0.0,0.0,0.0,0.0,0.0,0.0,0.0,0.0,0.0,0.0,0.0,0.0,0.0,0.0,0.0,0.0,0.0,0.0,0.0,0.0,0.0,0.0,0.0,0.0,0.0,0.0,0.0,0.0,0.0,0.0,0.0,0.0,0.0,0.0,0.0,0.0,0.0,0.0,0.0,0.0,0.0,0.4906,0.4146,0.3717,0.0,0.0,0.0,0.0,0.0,0.0,0.0,0.0,0.0,0.0,0.0,0.0,0.0,0.0,0.0,0.0,0.0,0.0,0.0,0.0,0.0,0.0,0.0,0.0,0.0,0.0,0.0,0.0,0.0,0.0,0.0,0.0,0.0,0.0,0.0,0.0,0.0,0.0,0.0,0.0,0.0,0.0,0.0,0.0,0.0,0.0,0.0,0.0,0.0,0.0,0.0,0.0,0.0,0.0,0.0,0.0,0.0,0.0,0.0,0.0,0.0,0.0,0.0,0.0,0.0,0.0,0.0,0.0,0.0,0.0,0.0,0.0,0.0,0.0,0.0,0.0,0.0,0.0,0.0,0.0,0.0,0.0,0.0,0.0,0.0,0.0,0.0,0.0,0.0,0.0,0.0,0.0,0.0,0.0,0.0,0.0,0.0,0.0,0.0,0.0,0.0,0.0,0.0,0.0,0.0,0.0,0.0,0.0,0.0,0.0,0.484,0.0,0.4285,0.3628,0.321,0.3076,0.0,0.0,0.0,0.0,0.0,0.0,0.0,0.0,0.0,0.0,0.0,0.0,0.0,0.0,0.0,0.0,0.0,0.0,0.0,0.0,0.0,0.0,0.0,0.0,0.0,0.0,0.0,0.0,0.0,0.0,0.0,0.0,0.0,0.0,0.0,0.0,0.0,0.0,0.0,0.0,0.0,0.0,0.0,0.0,0.0,0.0,0.0,0.0,0.0,0.0,0.0,0.0,0.0,0.0,0.0,0.0,0.0,0.0,0.0,0.0,0.0,0.0,0.0,0.0,0.0,0.0,0.0,0.0,0.0,0.0,0.0,0.0,0.0,0.0,0.0,0.0,0.0,0.0,0.0,0.0,0.0,0.0,0.0,0.0,0.0,0.0,0.0,0.0,0.0,0.0,0.0,0.0,0.0,0.0,0.0,0.0,0.0,0.0,0.0,0.0,0.0,0.0,0.0,0.0,0.0,0.0,0.0,0.0,0.0,0.5346,0.4823,0.4247,0.37,0.3256,0.0,0.0,0.0,0.0,0.0,0.0,0.0,0.0,0.0,0.0,0.0,0.0,0.0,0.0,0.0,0.0,0.0,0.0,0.0,0.0,0.0,0.0,0.0,0.0,0.0,0.0,0.0,0.0,0.0,0.0,0.0,0.0,0.0,0.0,0.0,0.0,0.0,0.0,0.0,0.0,0.0,0.0,0.0,0.0,0.0,0.0,0.0,0.0,0.0,0.0,0.0,0.0,0.0,0.0,0.0,0.0,0.0,0.0,0.0,0.0,0.0,0.0,0.0,0.0,0.0,0.0,0.0,0.0,0.0,0.0,0.0,0.0,0.0,0.0,0.0,0.0,0.0,0.0,0.0,0.0,0.0,0.0,0.0,0.0,0.0,0.0,0.0,0.0,0.0,0.0,0.0,0.0,0.0,0.0,0.0,0.0,0.0,0.0,0.0,0.0,0.0,0.0,0.0,0.0,0.0,0.0,0.0,0.0,0.0,0.3645,0.3851,0.3589,0.0,0.2724,0.2342,0.0,0.0,0.0,0.0,0.0,0.0,0.0,0.0,0.0,0.0,0.0,0.0,0.0,0.0,0.0,0.0,0.0,0.0,0.0,0.0,0.0,0.0,0.0,0.0,0.0,0.0,0.0,0.0,0.0,0.0,0.0,0.0,0.0,0.0,0.0,0.0,0.0,0.0,0.0,0.0,0.0,0.0,0.0,0.0,0.0,0.0,0.0,0.0,0.0,0.0,0.0,0.0,0.0,0.0,0.0,0.0,0.0,0.0,0.0,0.0,0.0,0.0,0.0,0.0,0.0,0.0,0.0,0.0,0.0,0.0,0.0,0.0,0.0,0.0,0.0,0.0,0.0,0.0,0.0,0.0,0.0,0.0,0.0,0.0,0.0,0.0,0.0,0.0,0.0,0.0,0.0,0.0,0.0,0.0,0.0,0.0,0.0,0.0,0.0,0.0,0.0,0.0,0.0,0.0,0.0,0.0,0.0,0.0,0.0,0.2547,0.0,0.3029,0.0,0.2229,0.178,0.0,0.0,0.0,0.0,0.0,0.0,0.0,0.0,0.0,0.0,0.0,0.0,0.0,0.0,0.0,0.0,0.0,0.0,0.0,0.0,0.0,0.0,0.0,0.0,0.0,0.0,0.0,0.0,0.0,0.0,0.0,0.0,0.0,0.0,0.0,0.0,0.0,0.0,0.0,0.0,0.0,0.0,0.0,0.0,0.0,0.0,0.0,0.0,0.0,0.0,0.0,0.0,0.0,0.0,0.0,0.0,0.0,0.0,0.0,0.0,0.0,0.0,0.0,0.0,0.0,0.0,0.0,0.0,0.0,0.0,0.0,0.0,0.0,0.0,0.0,0.0,0.0,0.0,0.0,0.0,0.0,0.0,0.0,0.0,0.0,0.0,0.0,0.0,0.0,0.0,0.0,0.0,0.0,0.0,0.0,0.0,0.0,0.0,0.0,0.0,0.0,0.0,0.0,0.0,0.0,0.0,0.0,0.0,0.0615,0.2818,0.3163,0.3112,0.3018,0.2244,0.1676,0.0,0.0,0.0,0.0,0.0,0.0,0.0,0.0,0.0,0.0,0.0,0.0,0.0,0.0,0.0,0.0,0.0,0.0,0.0,0.0,0.0,0.0,0.0,0.0,0.0,0.0,0.0,0.0,0.0,0.0,0.0,0.0,0.0,0.0,0.0,0.0,0.0,0.0,0.0,0.0,0.0,0.0,0.0,0.0,0.0,0.0,0.0,0.0,0.0,0.0,0.0,0.0,0.0,0.0,0.0,0.0,0.0,0.0,0.0,0.0,0.0,0.0,0.0,0.0,0.0,0.0,0.0,0.0,0.0,0.0,0.0,0.0,0.0,0.0,0.0,0.0,0.0,0.0,0.0,0.0,0.0,0.0,0.0,0.0,0.0,0.0,0.0,0.0,0.0,0.0,0.0,0.0,0.0,0.0,0.0,0.0,0.0,0.0,0.0,0.0,0.0,0.0,0.0,0.0,0.0,0.0,0.0,0.0,0.0,-0.018,-0.0086,0.0093,0.0479,0.1263,0.1142,0.0,0.0,0.0,0.0,0.0,0.0,0.0,0.0,0.0,0.0,0.0,0.0,0.0,0.0,0.0,0.0,0.0,0.0,0.0,0.0,0.0,0.0,0.0,0.0,0.0,0.0,0.0,0.0,0.0,0.0,0.0,0.0,0.0,0.0,0.0,0.0,0.0,0.0,0.0,0.0,0.0,0.0,0.0,0.0,0.0,0.0,0.0,0.0,0.0,0.0,0.0,0.0,0.0,0.0,0.0,0.0,0.0,0.0,0.0,0.0,0.0,0.0,0.0,0.0,0.0,0.0,0.0,0.0,0.0,0.0,0.0,0.0,0.0,0.0,0.0,0.0,0.0,0.0,0.0,0.0,0.0,0.0,0.0,0.0,0.0,0.0,0.0,0.0,0.0,0.0,0.0,0.0,0.0,0.0,0.0,0.0,0.0,0.0,0.0,0.0,0.0,0.0,0.0,0.0,0.0,0.0,0.0,0.0,0.0,-0.343,-0.2794,-0.209,-0.1193,-0.0248,0.0029,-0.0372,0.0,0.0,0.0,0.0,0.0,0.0,0.0,0.0,0.0,0.0,0.0,0.0,0.0,0.0,0.0,0.0,0.0,0.0,0.0,0.0,0.0,0.0,0.0,0.0,0.0,0.0,0.0,0.0,0.0,0.0,0.0,0.0,0.0,0.0,0.0,0.0,0.0,0.0,0.0,0.0,0.0,0.0,0.0,0.0,0.0,0.0,0.0,0.0,0.0,0.0,0.0,0.0,0.0,0.0,0.0,0.0,0.0,0.0,0.0,0.0,0.0,0.0,0.0,0.0,0.0,0.0,0.0,0.0,0.0,0.0,0.0,0.0,0.0,0.0,0.0,0.0,0.0,0.0,0.0,0.0,0.0,0.0,0.0,0.0,0.0,0.0,0.0,0.0,0.0,0.0,0.0,0.0,0.0,0.0,0.0,0.0,0.0,0.0,0.0,0.0,0.0,0.0,0.0,0.0,0.0,0.0,0.0,0.0,-0.656,-0.4947,-0.3563,-0.2368,-0.2142,-0.1531,0.0,0.0,0.0,0.0,0.0,0.0,0.0,0.0,0.0,0.0,0.0,0.0,0.0,0.0,0.0,0.0,0.0,0.0,0.0,0.0,0.0,0.0,0.0,0.0,0.0,0.0,0.0,0.0,0.0,0.0,0.0,0.0,0.0,0.0,0.0,0.0,0.0,0.0,0.0,0.0,0.0,0.0,0.0,0.0,0.0,0.0,0.0,0.0,0.0,0.0,0.0,0.0,0.0,0.0,0.0,0.0,0.0,0.0,0.0,0.0,0.0,0.0,0.0,0.0,0.0,0.0,0.0,0.0,0.0,0.0,0.0,0.0,0.0,0.0,0.0,0.0,0.0,0.0,0.0,0.0,0.0,0.0,0.0,0.0,0.0,0.0,0.0,0.0,0.0,0.0,0.0,0.0,0.0,0.0,0.0,0.0,0.0,0.0,0.0,0.0,0.0,0.0,0.0,0.0,0.0,0.0,0.0,0.0,0.0,-0.6261,-0.7136,-0.7014,-0.5606,-0.3451,-0.2139,0.0,0.0,0.0,0.0,0.0,0.0,0.0,0.0,0.0,0.0,0.0,0.0,0.0,0.0,0.0,0.0,0.0,0.0,0.0,0.0,0.0,0.0,0.0,0.0,0.0,0.0,0.0,0.0,0.0,0.0,0.0,0.0,0.0,0.0,0.0,0.0,0.0,0.0,0.0,0.0,0.0,0.0,0.0,0.0,0.0,0.0,0.0,0.0,0.0,0.0,0.0,0.0,0.0,0.0,0.0,0.0,0.0,0.0,0.0,0.0,0.0,0.0,0.0,0.0,0.0,0.0,0.0,0.0,0.0,0.0,0.0,0.0,0.0,0.0,0.0,0.0,0.0,0.0,0.0,0.0,0.0,0.0,0.0,0.0,0.0,0.0,0.0,0.0,0.0,0.0,0.0,0.0,0.0,0.0,0.0,0.0,0.0,0.0,0.0,0.0,0.0,0.0,0.0,0.0,0.0,0.0,0.0,0.0,-0.5448,-0.669,-0.8171,-0.8652,-0.803,-0.5166,-0.3357,0.0,0.0,0.0,0.0,0.0,0.0,0.0,0.0,0.0,0.0,0.0,0.0,0.0,0.0,0.0,0.0,0.0,0.0,0.0,0.0,0.0,0.0,0.0,0.0,0.0,0.0,0.0,0.0,0.0,0.0,0.0,0.0,0.0,0.0,0.0,0.0,0.0,0.0,0.0,0.0,0.0,0.0,0.0,0.0,0.0,0.0,0.0,0.0,0.0,0.0,0.0,0.0,0.0,0.0,0.0,0.0,0.0,0.0,0.0,0.0,0.0,0.0,0.0,0.0,0.0,0.0,0.0,0.0,0.0,0.0,0.0,0.0,0.0,0.0,0.0,0.0,0.0,0.0,0.0,0.0,0.0,0.0,0.0,0.0,0.0,0.0,0.0,0.0,0.0,0.0,0.0,0.0,0.0,0.0,0.0,0.0,0.0,0.0,0.0,0.0,0.0,0.0,0.0,0.0,0.0,0.0,0.0,0.0,-0.4973,-0.7321,-0.8353,-0.9041,-0.9357,-0.696,-0.4775,0.0,0.0,0.0,0.0,0.0,0.0,0.0,0.0,0.0,0.0,0.0,0.0,0.0,0.0,0.0,0.0,0.0,0.0,0.0,0.0,0.0,0.0,0.0,0.0,0.0,0.0,0.0,0.0,0.0,0.0,0.0,0.0,0.0,0.0,0.0,0.0,0.0,0.0,0.0,0.0,0.0,0.0,0.0,0.0,0.0,0.0,0.0,0.0,0.0,0.0,0.0,0.0,0.0,0.0,0.0,0.0,0.0,0.0,0.0,0.0,0.0,0.0,0.0,0.0,0.0,0.0,0.0,0.0,0.0,0.0,0.0,0.0,0.0,0.0,0.0,0.0,0.0,0.0,0.0,0.0,0.0,0.0,0.0,0.0,0.0,0.0,0.0,0.0,0.0,0.0,0.0,0.0,0.0,0.0,0.0,0.0,0.0,0.0,0.0,0.0,0.0,0.0,0.0,0.0,0.0,0.0,0.0,0.0,-0.4379,-0.6024,-0.7473,-0.8314,-0.8612,-0.6974,-0.5315,0.0,0.0,0.0,0.0,0.0,0.0,0.0,0.0,0.0,0.0,0.0,0.0,0.0,0.0,0.0,0.0,0.0,0.0,0.0,0.0,0.0,0.0,0.0,0.0,0.0,0.0,0.0,0.0,0.0,0.0,0.0,0.0,0.0,0.0,0.0,0.0,0.0,0.0,0.0,0.0,0.0,0.0,0.0,0.0,0.0,0.0,0.0,0.0,0.0056,0.0,0.0,0.0,0.0,0.0,0.0,0.0,0.0,0.0,0.0,0.0,0.0,0.0,0.0,0.0,0.0,0.0,0.0,0.0,0.0,0.0,0.0,0.0,0.0,0.0,0.0,0.0,0.0,0.0,0.0,0.0,0.0,0.0,0.0,0.0,0.0,0.0,0.0,0.0,0.0,0.0,0.0,0.0,0.0,0.0,0.0,0.0,0.0,0.0,0.0,0.0,0.0,0.0,0.0,0.0,0.0,0.0,0.0,0.0,-0.3536,-0.4895,-0.6395,-0.7192,-0.7237,-0.6361,-0.5285,0.0,0.0,0.0,0.0,0.0,0.0,0.0,0.0,0.0,0.0,0.0,0.0,0.0,0.0,0.0,0.0,0.0,0.0,0.0,0.0,0.0,0.0,0.0,0.0,0.0,0.0,0.0,0.0,0.0,0.0,0.0,0.0,0.0,0.0,0.0,0.0,0.0,0.0,0.0,0.0,0.0,0.0,0.0,0.0,0.0,0.0,0.0,0.0,0.0,0.0,0.0,0.0,0.0,0.0,0.0,0.0,0.0,0.0,0.0,0.0,0.0,0.0,0.0,0.0,0.0,0.0,0.0,0.0,0.0,0.0,0.0,0.0,0.0,0.0,0.0,0.0,0.0,0.0,0.0,0.0,0.0,0.0,0.0,0.0,0.0,0.0,0.0,0.0,0.0,0.0,0.0,0.0,0.0,0.0,0.0,0.0,0.0,0.0,0.0,0.0,0.0,0.0,0.0,0.0,0.0,0.0,0.0,-0.1215,-0.2504,-0.3811,-0.5227,-0.5923,-0.5892,-0.5628,-0.4998,-0.3927,0.0,0.0,0.0,0.0,0.0,0.0,0.0,0.0,0.0,0.0,0.0,0.0,0.0,0.0,0.0,0.0,0.0,0.0,0.0,0.0,0.0,0.0,0.0,0.0,0.0,0.0,0.0,0.0,0.0,0.0,0.0,0.0,0.0,0.0,0.0,0.0,0.0,0.0,-0.0795,-0.1818,0.0,0.0,0.0,0.0,0.0,0.0,0.0,0.0,0.0057,0.0,0.0,0.0,0.0,0.0,0.0,0.0,0.0,0.0,0.0,0.0,0.0,0.0,0.0,0.0,0.0,0.0,0.0,0.0,0.0,0.0,0.0,0.0,0.0,0.0,0.0,0.0,0.0,0.0,0.0,0.0,0.0,0.0,0.0,0.0,0.0,0.0,0.0,0.0,0.0,0.0,0.0,0.0,0.0,0.0,0.0,0.0,0.0,0.0,0.0,0.0,0.0,0.0,0.0,0.0,0.0,0.1283,-0.0097,-0.1408,-0.2473,-0.3989,-0.5006,-0.5453,-0.5376,-0.4769,-0.3557,0.0,0.0,0.0,0.0,0.0,0.0,0.0,0.0,0.0,0.0,0.0,0.0,0.0,0.0,0.0,0.0,0.0,0.0,0.0,0.0,0.0,0.0,0.0,0.0,0.0,0.0,0.0,0.0,0.0,0.0,0.0,0.0,0.0,0.0,0.0,0.0,0.0,0.0,0.0,-0.1974,-0.3427,0.0,0.0,0.0,0.0,0.0,0.0,0.0,0.0,-0.1654,0.0,0.0,0.0,0.0,0.0,0.0,0.0,0.0,0.0,0.0,0.0,0.0,0.0,0.0,0.0,0.0,0.0,0.0,0.0,0.0,0.0,0.0,0.0,0.0,0.0,0.0,0.0,0.0,0.0,0.0,0.0,0.0,0.0,0.0,0.0,0.0,0.0,0.0,0.0,0.0,0.0,0.0,0.0,0.0,0.0,0.0,0.0,0.0,0.0,0.0,0.0,0.0,0.0,0.0,0.0,0.132,0.0,-0.0643,-0.0622,-0.2575,-0.3574,-0.3399,-0.4472,-0.4625,0.0,0.0,0.0,0.0,0.0,0.0,0.0,0.0,0.0,0.0,0.0,0.0,0.0,0.0,0.0,0.0,0.0,0.0,0.0,0.0,0.0,0.0,0.0,0.0,0.0,0.0,0.0,0.0,0.0,0.0,0.0,0.0,0.0,0.0,0.0,0.0,0.0,0.0,0.0,0.0,-0.3009,-0.4228,-0.5208,0.0,0.0,0.0,0.0,0.0,0.0,-0.3208,-0.3561,0.0,0.0,0.0,0.0,0.0,0.0,0.0,0.0,0.0,0.0,0.0,0.0,0.0,0.0,0.0,0.0,0.0,0.0,0.0,0.0,0.0,0.0,0.0,0.0,0.0,0.0,0.0,0.0,0.0,0.0,0.0,0.0,0.0,0.0,0.0,0.0,0.0,0.0,0.0,0.0,0.0,0.0,0.0,0.0,0.0,0.0,0.0,0.0,0.0,0.0,0.0,0.0,0.0,0.0,0.0,0.1247,0.0103,0.012,0.1237,-0.122,-0.2101,-0.1243,-0.3258,-0.4075,0.0,0.0,0.0,0.0,0.0,0.0,0.0,0.0,0.0,0.0,0.0,0.0,0.0,0.0,0.0,0.0,0.0,0.0,0.0,0.0,0.0,0.0,0.0,0.0,0.0,0.0,0.0,0.0,0.0,0.0,0.0,0.0,0.0,0.0,0.0,0.0,0.0,0.0,0.0,0.0,0.0,-0.4961,-0.5232,-0.5305,0.0,0.0,0.0,0.0,-0.3751,-0.5262,0.0,0.0,0.0,0.0,0.0,0.0,0.0,0.0,0.0,0.0,0.0,0.0,0.0,0.0,0.0,0.0,0.0,0.0,0.0,0.0,0.0,0.0,0.0,0.0,0.0,0.0,0.0,0.0,0.0,0.0,0.0,0.0,0.0,0.0,0.0,0.0,0.0,0.0,0.0,0.0,0.0,0.0,0.0,0.0,0.0,0.0,0.0,0.0,0.0,0.0,0.0,0.0,0.0,0.0,0.0,0.0,0.1561,0.0859,0.116,0.2474,0.0067,-0.0872,0.0067,-0.1862,-0.2327,0.0,0.0,0.0,0.0,0.0,0.0,0.0,0.0,0.0,0.0,0.0,0.0,0.0,0.0,0.0,0.0,0.0,0.0,0.0,0.0,0.0,0.0,0.0,0.0,0.0,0.0,0.0,0.0,0.0,0.0,0.0,0.0,0.0,0.0,0.0,0.0,0.0,0.0,0.0,0.0,0.0,-0.561,-0.6443,-0.6354,-0.6012,0.0,0.0,-0.7082,-0.5302,-0.8621,0.0,0.0,0.0,0.0,0.0,0.0,0.0,0.0,0.0,0.0,0.0,0.0,0.0,0.0,0.0,0.0,0.0,0.0,0.0,0.0,0.0,0.0,0.0,0.0,0.0,0.0,0.0,0.0,0.0,0.0,0.0,0.0,0.0,0.0,0.0,0.0,0.0,0.0,0.0,0.0,0.0,0.0,0.0,0.0,0.0,0.0,0.0,0.0,0.0,0.0,0.0,0.0,0.0,0.0,0.0,-0.0308,0.0402,0.0107,0.0609,0.2067,0.1274,0.1208,0.2146,0.0614,-0.0241,0.0,0.0,0.0,0.0,0.0,0.0,0.0,0.0,0.0,0.0,0.0,0.0,0.0,0.0,0.0,0.0,0.0,0.0,0.0,0.0,0.0,0.0,0.0,0.0,0.0,0.0,0.0,0.0,0.0,0.0,0.0,0.0,0.0,0.0,0.0,0.0,0.0,0.0,0.0,0.0,0.0,0.0,-0.7536,-0.7789,0.0,0.0,0.0,-1.0257,-0.8906,0.0,0.0,0.0,0.0,0.0,0.0,0.0,0.0,0.0,0.0,0.0,0.0,0.0,0.0,0.0,0.0,0.0,0.0,0.0,0.0,0.0,0.0,0.0,0.0,0.0,0.0,0.0,0.0,0.0,0.0,0.0,0.0,0.0,0.0,0.0,0.0,0.0,0.0,0.0,0.0,0.0,0.0,0.0,0.0,0.0,0.0,0.0,0.0,0.0,0.0,0.0,0.0,0.0,0.0,0.0,0.0,0.0,-0.1337,-0.128,-0.0568,0.0733,0.1676,0.2485,0.2947,0.1673,0.0,0.0,0.0,0.0,0.0,0.0,0.0,0.0,0.0,0.0,0.0,0.0,0.0,0.0,0.0,0.0,0.0,0.0,0.0,0.0,0.0,0.0,0.0,0.0,0.0,0.0,0.0,-0.1977,0.0,0.0,0.0,0.0,0.0,0.0,0.0,0.0,0.0,0.0,0.0,0.0,0.0,0.0,-0.7169,-0.8571,-0.9445,-0.9946,0.0,0.0,-1.3104,-1.2285,-1.4879,-1.5917,0.0,0.0,0.0,0.0,0.0,0.0,0.0,0.0,0.0,0.0,0.0,0.0,0.0,0.0,0.0,0.0,0.0,0.0,0.0,0.0,0.0,0.0,0.0,0.0,0.0,0.0,0.0,0.0,0.0,0.0,0.0,0.0,0.0,0.0,0.0,0.0,0.0,0.0,0.0,0.0,0.0,0.0,0.0,0.0,0.0,0.0,0.0,0.0,0.0,0.0,0.0,0.0,0.0,0.0,0.0,-0.3537,-0.3161,-0.2518,-0.1533,0.0868,0.1941,0.1472,0.0,0.0,0.0,0.0,0.0,0.0,0.0,0.0,0.0,0.0,0.0,0.0,0.0,0.0,0.0,0.0,0.0,0.0,0.0,0.0,0.0,0.0,0.0,0.0,0.0,0.0,0.0,0.0,0.0,0.0,0.0,0.0,0.0,0.0,0.0,0.0,0.0,0.0,0.0,0.0,0.0,0.0,0.0,-0.8674,-0.9568,-1.1191,-1.2314,0.0,0.0,-1.5133,-1.4634,-1.8019,-1.9056,-1.4113,0.0,0.0,0.0,0.0,0.0,0.0,0.0,0.0,0.0,0.0,0.0,0.0,0.0,0.0,0.0,0.0,0.0,0.0,0.0,0.0,0.0,0.0,0.0,0.0,0.0,0.0,0.0,0.0,0.0,0.0,0.0,0.0,0.0,0.0,0.0,0.0,0.0,0.0,0.0,0.0,0.0,0.0,0.0,0.0,0.0,0.0,0.0,0.0,0.0,0.0,0.0,0.0,0.0,-0.3934,-0.4522,-0.4627,-0.4491,-0.4017,-0.0856,0.0132,-0.1454,-0.2539,-0.1862,0.0,0.0,0.0,0.0,0.0,0.0,0.0,0.0,0.0,0.0,0.0,0.0,0.0,0.0,0.0,0.0,0.0,0.0,0.0,0.0,0.0,0.0,0.0,0.0,0.0,0.0,0.0,0.0,-0.6029,-0.626,-0.5631,0.0,0.0,0.0,0.0,0.0,0.0,0.0,0.0,0.0,0.0,-1.0646,-1.2193,-1.3389,0.0,0.0,-1.6943,-1.7946,-1.7047,-1.9061,-1.9543,-1.6056,-1.5367,0.0,0.0,0.0,0.0,0.0,0.0,0.0,0.0,0.0,0.0,0.0,0.0,0.0,0.0,0.0,0.0,0.0,0.0,0.0,0.0,0.0,0.0,0.0,0.0,0.0,0.0,0.0,0.0,0.0,0.0,0.0,0.0,0.0,0.0,0.0,0.0,0.0,0.0,0.0,0.0,0.0,0.0,0.0,0.0,0.0,0.0,0.0,0.0,0.0,0.0,0.0,0.0,-0.4954,-0.5379,-0.6154,-0.6586,-0.6423,-0.4178,-0.3461,-0.4443,-0.5422,-0.4627,0.0,0.0,0.0,0.0,0.0,0.0,0.0,0.0,0.0,0.0,0.0,0.0,0.0,0.0,0.0,0.0,0.0,0.0,0.0,0.0,0.0,0.0,0.0,0.0,0.0,0.0,0.0,0.0,-0.6755,-0.6949,-0.618,0.0,0.0,0.0,0.0,0.0,0.0,0.0,0.0,0.0,0.0,-1.3148,-1.4135,-1.5091,-1.5994,-1.6568,-1.8037,-1.8977,-1.8559,-1.937,-1.9468,-1.7823,0.0,0.0,0.0,0.0,0.0,0.0,0.0,0.0,0.0,0.0,0.0,0.0,0.0,0.0,0.0,0.0,0.0,0.0,0.0,0.0,0.0,0.0,0.0,0.0,0.0,0.0,0.0,0.0,0.0,0.0,0.1433,0.0,0.0,0.0,0.0,0.0,0.0,0.0,0.0,0.0,0.0,0.0,0.0,0.0,0.0,0.0,0.0,0.0,0.0,0.0,0.0,0.0,0.0,-0.5616,-0.627,-0.7831,-0.8646,-0.8648,-0.9442,-0.896,-0.7364,-0.8483,-0.819,-0.5981,0.0,0.0,0.0,0.0,0.0,0.0,0.0,0.0,0.0,0.0,0.0,0.0,0.0,0.0,0.0,0.0,0.0,0.0,0.0,0.0,0.0,0.0,0.0,0.0,0.0,0.0,-0.4439,-0.5755,-0.6811,0.0,0.0,0.0,0.0,0.0,0.0,0.0,0.0,0.0,0.0,-1.4523,-1.624,-1.5034,-1.6101,-1.7,-1.6696,-1.6981,-1.7675,-1.9031,-1.9124,-1.9081,0.0,0.0,0.0,0.0,0.0,0.0,0.0,0.0,0.0,0.0,0.0,0.0,0.0,0.0,0.0,0.0,0.0,0.0,0.0,0.0,0.0,0.0,0.0,0.0,0.0,0.0,0.0,0.2735,0.2338,0.0,0.0,0.0,0.0,0.0,0.0,0.0,0.0,0.0,0.0,0.0,0.1748,0.1379,0.0,0.0,0.0,0.0,0.0,0.0,0.0,0.0,0.0,0.0,0.0,0.0,-0.6362,-0.7045,-0.9412,-1.0648,-1.0801,-1.1645,-1.174,-1.0891,-1.0891,-1.0009,-0.8112,0.0,0.0,0.0,0.0,0.0,0.0,0.0,0.0,0.0,0.0,0.0,0.0,0.0,0.0,0.0,0.0,0.0,0.0,0.0,0.0,0.0,0.0,0.0,0.0,0.0,-0.5994,0.0,0.0,0.0,0.0,0.0,0.0,0.0,0.0,0.0,0.0,0.0,-1.2877,-1.4401,-1.6353,-1.7552,-1.7362,-1.8292,-1.9368,0.0,0.0,0.0,0.0,0.0,0.0,0.0,0.0,0.0,0.0,0.0,0.0,0.0,0.0,-2.3678,-1.8989,-1.8015,-1.8014,-1.8334,0.0,0.0,0.0,0.0,0.0,0.0,0.0,0.0,0.0,0.0,0.0,0.0,0.0,0.0,0.2379,0.0,0.2408,0.0,0.0,0.0,0.0,0.0,0.0,0.0,0.0,0.1504,0.1154,0.0696,0.0423,-0.006,0.0,-0.167,-0.18,0.0,0.0,0.0,0.0,0.0,0.0,0.0,0.0,-0.6993,-0.7969,-1.0464,-1.2003,-1.2528,-1.3083,-1.331,-1.3218,-1.2389,-1.1383,-1.0137,-0.8731,-0.761,0.0,0.0,0.0,0.0,0.0,0.0,0.0,0.0,0.0,0.0,0.0,0.0,0.0,0.0,0.0,0.0,0.0,0.0,0.0,0.0,0.0,0.0,0.0,-0.745,0.0,0.0,0.0,0.0,0.0,0.0,0.0,0.0,0.0,-1.5825,-1.5674,-1.605,-1.7663,-1.8919,-1.9417,-1.868,0.0,0.0,0.0,0.0,0.0,0.0,0.0,-1.8095,-1.8711,-1.858,-1.9508,-2.2824,-2.6451,-2.8948,-2.9051,0.0,0.0,-2.3604,-2.2476,-2.2342,-2.226,-2.21,-2.2105,-2.2515,-2.3029,-2.3373,0.0,0.0,0.0,0.0,0.0,0.0,0.0,0.0,0.141,0.1659,0.0,0.2014,0.0,0.0,0.0,0.0,0.0,0.0,0.0,0.0,0.055,0.0216,-0.0807,-0.1278,-0.1951,-0.2818,-0.39,-0.4466,-0.4532,-0.3971,0.0,0.0,0.0,0.0,0.0,0.0,-0.7491,-0.9127,-1.1084,-1.2704,-1.389,-1.3821,-1.3881,-1.4112,-1.316,-1.2471,-1.2202,-1.0819,-0.9958,-0.9622,-0.7265,0.0,0.0,0.0,0.0,0.0,0.0,0.0,0.0,0.0,0.0,0.0,0.0,0.0,0.0,0.0,0.0,0.0,0.0,0.0,0.0,-0.838,0.0,0.0,0.0,0.0,0.0,0.0,0.0,0.0,0.0,0.0,-2.0376,-1.9626,-1.9473,-2.0921,0.0,0.0,0.0,0.0,-2.0112,-1.9099,-1.7563,-1.7126,-1.843,-1.8261,-1.8562,-2.0316,0.0,0.0,-2.5169,-2.8084,-2.9978,-2.9346,-3.0702,-3.1161,-2.939,-2.7738,-2.6734,-2.65,-2.5707,-2.5237,-2.5827,-2.6478,-2.6656,0.0503,0.0,0.0,0.0,0.0,0.0757,0.0661,0.0603,0.1013,0.1047,0.0786,0.1147,0.0,0.0,0.0,0.0,0.0,0.0,-0.4426,-0.3448,-0.2608,-0.2351,-0.2609,-0.3209,-0.4027,-0.4973,-0.6083,-0.665,-0.6895,-0.7744,-0.6907,-0.4473,0.0,0.0,0.0,0.0,-0.8672,-1.0202,-1.2327,-1.3599,-1.401,-1.4428,-1.4488,-1.4189,-1.419,-1.3895,-1.3223,-1.2534,-1.179,-1.0833,-1.0078,0.0,0.0,0.0,0.0,0.0,0.0,0.0,0.0,0.0,0.0,0.0,0.0,0.0,0.0,0.0,0.0,0.0,0.0,0.0,-0.8453,-1.0301,-1.1094,0.0,0.0,0.0,0.0,0.0,0.0,0.0,0.0,0.0,-2.2913,-2.1228,-2.008,0.0,0.0,-2.0695,-1.9582,-2.0963,-2.2363,-2.3134,0.0,0.0,0.0,-2.2605,-2.2256,-2.2484,-2.5623,-2.8984,-3.1561,-3.2936,-3.3609,-3.337,-3.3786,-3.3789,-3.2608,-3.1614,-3.086,-3.0604,-3.0131,-2.9776,-2.9839,-2.9867,-2.971,0.0,0.0064,-0.0,0.018,0.0508,-0.0201,-0.0551,-0.0629,-0.0345,-0.0339,-0.0529,-0.0192,-0.0425,-0.1133,-0.2774,0.0,0.0,0.0,-0.6599,-0.5476,-0.4819,-0.4568,-0.4583,-0.5271,-0.6043,-0.6809,-0.8128,-0.8827,-0.8995,-1.0309,-0.9739,-0.7356,0.0,0.0,-0.73,-0.8659,-1.0079,-1.1655,-1.3224,-1.4205,-1.4605,-1.4877,-1.4902,-1.4746,-1.4478,-1.4128,-1.3828,-1.3356,-1.2783,-1.2223,-1.1653,-1.0343,0.0,0.0,0.0,0.0,0.0,0.0,0.0,0.0,0.0,0.0,0.0,-0.3963,-0.4168,0.0,0.0,0.0,-0.9958,-1.1118,-1.1964,-1.2657,0.0,0.0,0.0,0.0,0.0,0.0,0.0,-1.8438,-2.1693,-2.4081,-2.4252,-2.3143,-2.2509,-2.3007,-2.2709,-2.2276,-2.1818,0.0,-2.4697,-2.5731,-2.5404,-2.5225,-2.5762,-2.557,-2.5327,-2.5263,-2.8425,-3.1371,-3.2887,-3.4308,-3.5172,-3.5043,-3.5045,-3.4859,-3.4169,-3.3714,-3.3091,-3.2262,-3.2069,-3.2001,-3.1813,-3.181,-3.1787,0.0,0.0,-0.1144,-0.0902,0.0,-0.1627,-0.2432,-0.2503,-0.2215,-0.2141,-0.225,-0.1815,-0.1456,-0.1413,-0.5095,0.0,0.0,-0.753,-0.7349,-0.6572,-0.6572,-0.6587,-0.6605,-0.7495,-0.8112,-0.8456,-1.0054,-1.0879,-1.0983,-1.1884,-1.2011,-1.1374,-1.0721,-1.0229,-0.9998,-1.0429,-1.1564,-1.3321,-1.3791,-1.4551,-1.5638,-1.5276,-1.5264,-1.5496,-1.4181,-1.3624,-1.3941,-1.338,-1.3171,-1.3457,-1.2333,-1.1532,-1.1065,0.0,0.0,0.0,0.0,0.0,0.0,0.0,0.0,0.0,0.0,0.0,0.0,0.0,0.0,0.0,-1.385,0.0,-1.7151,-1.5558,0.0,0.0,0.0,-1.9597,-1.9551,-2.181,-2.2922,-2.1835,0.0,0.0,-2.497,0.0,-2.6178,-2.6967,-2.6183,-2.5311,-2.4726,-2.581,-2.6883,-2.6961,-2.693,-2.6904,-2.7362,-2.7508,-2.7824,-2.8388,-3.0192,-3.1576,-3.1788,-3.3583,-3.5086,-3.4888,-3.487,-3.4831,-3.4626,-3.4489,-3.3982,-3.2288,-3.2293,-3.252,-3.2363,-3.2661,-3.2793,0.0,0.0,-0.2962,-0.312,-0.1605,-0.252,-0.2931,-0.2974,-0.2879,-0.2879,-0.2888,-0.2766,-0.3262,-0.436,-0.7202,-0.8677,-0.9259,-1.0399,-1.0516,-0.9702,-0.9557,-0.9562,-0.9718,-1.0071,-1.076,-1.1539,-1.2124,-1.2352,-1.2439,-1.2673,-1.2641,-1.2373,-1.2189,-1.1522,-1.0506,-1.0849,-1.1871,-1.3511,-1.4127,-1.5003,-1.6064,-1.6157,-1.5713,-1.4828,-1.4383,-1.3811,-1.3047,-1.3082,-1.303,-1.2987,-1.3067,-1.2446,-1.0957,-0.9191,0.0,0.0,0.0,0.0,0.0,0.0,0.0,0.0,0.0,-0.7321,-0.6885,0.0,-1.0669,0.0,-1.7478,-1.9984,-1.9478,-2.027,0.0,0.0,-2.1883,-2.2882,-2.4907,-2.6287,-2.639,-2.4577,-2.7467,-2.9148,-2.7893,-2.8088,-2.8596,-2.9178,-2.6816,-2.4786,-2.4331,-2.6719,-2.8223,-2.7792,-2.968,-3.1003,-3.0023,-2.9749,-3.009,-3.1014,-3.2471,-3.3664,-3.417,-3.4759,-3.5176,-3.4966,-3.4889,-3.4769,-3.4626,-3.4602,-3.4338,-3.3623,-3.3358,-3.3219,-3.3081,-3.3045,-3.297,-0.0261,-0.1451,-0.3295,-0.4012,-0.3921,-0.406,-0.4075,-0.4062,-0.4103,-0.4201,-0.4279,-0.4154,-0.4815,-0.6009,-0.8058,-0.9432,-1.0218,-1.1781,-1.2124,-1.1341,-1.1298,-1.1174,-1.0944,-1.1594,-1.1896,-1.2003,-1.3112,-1.3411,-1.2973,-1.3404,-1.3588,-1.3569,-1.3631,-1.3072,-1.2007,-1.197,-1.2526,-1.3519,-1.4567,-1.5662,-1.6941,-1.6337,-1.575,-1.5174,-1.3994,-1.2941,-1.2087,-1.1825,-1.1631,-1.1551,-1.1832,-1.1516,-1.0512,-0.9359,-0.834,0.0,0.0,0.0,0.0,0.0,0.0,0.0,0.0,0.0,0.0,0.0,-1.435,0.0,-2.0758,-2.2774,-2.2,-2.3502,-2.4713,-2.5156,-2.626,-2.7495,-2.8707,-2.9602,-2.9846,-2.8942,-3.0939,-3.2219,-3.1741,-3.1148,-3.0862,-3.1166,-2.8741,-2.6683,-2.6271,-2.849,-3.0109,-2.9439,-3.1979,-3.3894,-3.2978,-3.2436,-3.2326,-3.2998,-3.3692,-3.4304,-3.4749,-3.5136,-3.5318,-3.5094,-3.4997,-3.4927,-3.4728,-3.4642,-3.451,-3.4173,-3.3797,-3.3473,-3.3322,-3.3152,-3.3055,-0.0715,-0.2639,-0.3039,-0.436,-0.6073,-0.56,-0.5433,-0.5456,-0.5479,-0.5624,-0.582,-0.5737,-0.6102,-0.6894,-0.8322,-0.9533,-1.0761,-1.2311,-1.2712,-1.2198,-1.2338,-1.2077,-1.1484,-1.2579,-1.2505,-1.162,-1.3608,-1.4057,-1.3193,-1.4217,-1.4681,-1.4585,-1.4703,-1.4409,-1.3647,-1.3293,-1.3285,-1.3631,-1.4989,-1.636,-1.7656,-1.6127,-1.5349,-1.5423,-1.321,-1.1695,-1.1217,-1.0426,-0.9994,-1.0005,-1.0113,-1.02,-1.0179,-0.9467,-0.9192,0.0,-0.9288,0.0,0.0,0.0,0.0,0.0,0.0,0.0,0.0,-1.76,-1.8776,-2.1217,-2.38,-2.5176,-2.4813,-2.6269,-2.7606,-2.8527,-3.0715,-3.1915,-3.1303,-3.198,-3.2706,-3.3241,-3.4273,-3.5072,-3.5202,-3.4117,-3.3155,-3.2587,-3.1115,-2.9446,-2.8647,-3.0341,-3.1716,-3.1265,-3.3521,-3.5205,-3.5232,-3.4714,-3.4144,-3.432,-3.4284,-3.4262,-3.4619,-3.5132,-3.5489,-3.5218,-3.5162,-3.5102,-3.4849,-3.4682,-3.4529,-3.4293,-3.3884,-3.3522,-3.3375,-3.3226,-3.3165,-0.0753,-0.1401,-0.3524,-0.5039,-0.6082,-0.6294,-0.6197,-0.6002,-0.6026,-0.618,-0.6349,-0.6485,-0.7219,-0.8243,-0.8535,-0.9678,-1.149,-1.1781,-1.2365,-1.2952,-1.3039,-1.3119,-1.3273,-1.3695,-1.3833,-1.384,-1.4353,-1.4497,-1.4281,-1.4944,-1.4936,-1.4295,-1.4171,-1.3941,-1.3689,0.0,0.0,0.0,-1.5523,-1.6225,-1.6527,-1.5226,-1.4288,-1.369,-1.2398,0.0,-1.078,-1.0656,-1.0488,-1.0192,-1.0733,0.0,0.0,0.0,0.0,0.0,0.0,0.0,0.0,0.0,0.0,0.0,-1.9921,-1.9563,-1.9555,-2.1602,-2.3388,-2.4486,-2.6759,-2.8452,-2.8999,-3.03,-3.1306,-3.17,-3.2254,-3.2598,-3.2602,-3.2822,-3.3196,-3.381,-3.4881,-3.5784,-3.6205,-3.6056,-3.5239,-3.362,-3.2634,-3.1249,-2.8977,-3.0902,-3.1856,-3.0657,-3.3327,-3.5419,-3.5341,-3.5063,-3.474,-3.45,-3.4582,-3.5055,-3.5892,-3.5719,-3.5516,-3.5345,-3.5278,-3.5152,-3.4908,-3.4689,-3.4469,-3.4335,-3.3998,-3.3689,-3.3504,-3.3415,-3.3316,-0.117,0.0,-0.3637,-0.5083,0.0,-0.6895,-0.7164,-0.7243,-0.7003,-0.6827,-0.6749,-0.7311,-0.8189,-0.9354,-0.9834,-1.0908,-1.2374,-1.2479,-1.289,-1.369,-1.3761,-1.4229,-1.4903,-1.4911,-1.4911,-1.484,-1.5054,-1.5054,-1.4768,-1.5333,-1.5432,-1.501,-1.5061,-1.5,-1.4763,-1.5024,-1.5223,-1.526,-1.5813,-1.6443,-1.7037,-1.6147,-1.5441,-1.5029,0.0,0.0,0.0,0.0,0.0,0.0,0.0,0.0,0.0,0.0,0.0,-1.4899,-1.6145,-1.7225,-1.8221,-2.0599,-2.2977,-2.5045,-2.5998,-2.5719,-2.3922,-2.6264,-2.8181,-2.8912,-3.0223,-3.1144,-3.1579,-3.2302,-3.2827,-3.3045,-3.3045,-3.3124,-3.3309,-3.3286,-3.364,-3.4655,-3.5784,-3.6821,-3.7797,-3.7581,-3.6917,-3.5565,-3.3983,-3.2421,-3.0865,-3.1678,-3.2597,-3.2675,-3.4313,-3.5822,-3.5859,-3.5653,-3.5577,-3.5507,-3.5685,-3.5976,-3.6358,-3.6328,-3.6054,-3.5628,-3.5384,-3.522,-3.4925,-3.4651,-3.4386,-3.4221,-3.391,-3.3698,-3.3625,-3.3577,-3.3509,-0.2196,-0.3352,-0.421,-0.5458,-0.6827,-0.7541,-0.8235,-0.8792,0.0,0.0,0.0,-0.8687,-0.9761,-1.0975,-1.1548,-1.2415,-1.3401,-1.3481,-1.3851,-1.4444,-1.4709,-1.5214,-1.6123,-1.5956,-1.5816,-1.5711,-1.5824,-1.5683,-1.5313,-1.5912,-1.6061,-1.5982,-1.6333,-1.6333,-1.6044,-1.6272,-1.6305,-1.6141,-1.6039,-1.6552,-1.7667,-1.6973,-1.6677,-1.6837,-1.5922,-1.5103,-1.4476,-1.3861,-1.3183,-1.2456,-1.2095,-1.2186,-1.2806,-1.414,-1.5665,-1.7355,-1.94,-2.0819,-2.1465,-2.468,-2.7476,-2.947,-3.0723,-3.0547,-2.8495,-3.0311,-3.188,-3.2568,-3.2858,-3.3021,-3.3141,-3.3284,-3.34,-3.3625,-3.3658,-3.3746,-3.3852,-3.3826,-3.4298,-3.5498,-3.6668,-3.7849,-3.8998,-3.885,-3.8244,-3.7387,-3.562,-3.3773,-3.2929,-3.2822,-3.3527,-3.5132,-3.5862,-3.6276,-3.6422,-3.64,-3.6433,-3.675,-3.6934,-3.6955,-3.6769,-3.6784,-3.6608,-3.6053,-3.566,-3.5276,-3.4977,-3.4632,-3.434,-3.4124,-3.3787,-3.3561,-3.3707,-3.3679,-3.3605,-0.5112,-0.5904,-0.6442,-0.7055,-0.7653,-0.8303,-0.9376,-1.0575,-0.978,-0.9784,-1.0471,-1.1539,-1.2837,-1.4177,-1.342,-1.3784,-1.5041,-1.4411,-1.4603,0.0,-1.5679,-1.6113,-1.6627,-1.6367,-1.6697,-1.7434,-1.6603,-1.6324,-1.6853,-1.7389,-1.72,-1.6421,-1.7088,-1.7226,-1.676,-1.6839,-1.6775,-1.6725,-1.6178,-1.613,-1.661,-1.5674,-1.5543,-1.6191,-1.5987,-1.5683,-1.5419,-1.5428,-1.4958,-1.4019,-1.3656,-1.3982,-1.5079,-1.6453,-1.8552,-2.1513,-2.3496,-2.521,-2.6571,-2.8623,-3.0368,-3.1758,-3.2125,-3.2072,-3.1757,-3.2037,-3.24,-3.2766,-3.289,-3.3057,-3.3314,-3.3426,-3.3587,-3.388,-3.4411,-3.4702,-3.4568,-3.4852,-3.5356,-3.6099,-3.7356,-3.8264,-3.8915,-3.9611,-3.9388,-3.8037,-3.724,-3.6805,-3.5518,-3.4105,-3.3954,-3.5471,-3.6148,-3.6385,-3.6678,-3.6882,-3.7163,-3.7785,-3.7765,-3.7863,-3.8139,-3.756,-3.7016,-3.6806,-3.6008,-3.5335,-3.4954,-3.4574,-3.4274,-3.4049,-3.3743,-3.3597,-3.3633,-3.3605,-3.3605,-0.7588,-0.8001,-0.8774,-0.9383,-0.9736,-1.1037,-1.1825,-1.2331,-1.3018,-1.2729,-1.23,-1.3828,-1.51,-1.5901,-1.5671,-1.6001,-1.682,-1.5753,-1.5683,-1.6515,-1.6666,-1.7168,-1.793,-1.7677,-1.793,-1.867,-1.7619,-1.7423,-1.8017,-1.791,-1.7508,-1.7097,-1.7245,-1.7176,-1.7107,-1.7038,-1.7116,-1.7176,-1.6677,-1.6617,-1.7006,-1.6826,-1.7124,-1.7937,-1.8339,-1.8584,-1.8666,-1.8629,-1.8406,-1.7775,-1.7381,-1.7622,-1.8529,-1.9711,-2.1483,-2.3862,-2.5582,-2.6936,-2.7888,-3.0069,-3.1584,-3.2214,-3.2249,-3.2232,-3.2301,-3.2523,-3.2719,-3.2957,-3.3154,-3.3361,-3.3616,-3.3707,-3.3899,-3.4403,-3.4659,-3.4847,-3.497,-3.4865,-3.5309,-3.6385,-3.6986,-3.7754,-3.9061,-3.9772,-3.9915,-3.8909,-3.8649,-3.8064,-3.7113,-3.6086,-3.5528,-3.6291,-3.6444,-3.655,-3.6869,-3.717,-3.7632,-3.8259,-3.8635,-3.8814,-3.8913,-3.8167,-3.7591,-3.7109,-3.6198,-3.5361,-3.4966,-3.4536,-3.4203,-3.3913,-3.3698,-3.3549,-3.353,-3.3411,-3.3393,-1.0422,-1.0622,-1.1437,-1.2011,-1.2427,-1.4056,-1.4586,-1.4589,-1.6545,-1.6454,-1.5151,-1.6351,-1.7443,-1.8074,-1.8193,-1.836,-1.837,-1.7342,-1.7219,-1.7862,-1.7946,-1.851,-1.9399,-1.9166,-1.9354,-1.9759,-1.87,-1.8509,-1.91,-1.8327,-1.7862,-1.7842,-1.7373,-1.7176,-1.7245,-1.7314,-1.7373,-1.7529,-1.7254,-1.7323,-1.7608,-1.8076,-1.8812,-1.9687,-2.0504,-2.1141,-2.1354,-2.1544,-2.1412,-2.0945,-2.0825,-2.1068,-2.1733,-2.2728,-2.4138,-2.5934,-2.7363,-2.8383,-2.9098,-3.0957,-3.2109,-3.2108,-3.2073,-3.2108,-3.2179,-3.247,-3.2813,-3.3081,-3.335,-3.3597,-3.3788,-3.3788,-3.4,-3.4467,-3.4437,-3.448,-3.4759,-3.4599,-3.4897,-3.6189,-3.6522,-3.7338,-3.8733,-3.958,-3.9883,-3.9874,-3.948,-3.8832,-3.8174,-3.7742,-3.7339,-3.6894,-3.6471,-3.5805,-3.6038,-3.6745,-3.7368,-3.8026,-3.9043,-3.9548,-3.9444,-3.888,-3.8163,-3.7519,-3.634,-3.5425,-3.4977,-3.4519,-3.4087,-3.3753,-3.3567,-3.3452,-3.3339,-3.323,-3.3194,-1.4011,-1.4469,-1.4595,-1.4903,-1.5481,-1.65,-1.706,-1.7541,-1.9928,-2.0712,-2.0046,-1.9673,-2.0362,-2.1546,-2.0987,-2.0504,-2.0143,-1.9322,-1.9261,-1.9771,-1.9836,-2.016,-2.0688,-2.0655,-2.0719,-2.0816,-1.9704,-1.9486,-2.0009,-1.932,-1.8731,-1.8442,-1.8056,-1.7735,-1.7529,-1.7579,-1.7638,-1.7706,-1.7862,-1.794,-1.7949,-1.8327,-1.9079,-2.0289,-2.1095,-2.1679,-2.1944,-2.2768,-2.2815,-2.1977,-2.2657,-2.326,-2.3733,-2.4781,-2.6429,-2.8625,-2.9516,-3.0512,-3.1718,-3.2092,-3.2179,-3.2108,-3.1984,-3.1948,-3.2073,-3.2249,-3.257,-3.3019,-3.3273,-3.3494,-3.3698,-3.3605,-3.3509,-3.3412,-3.3628,-3.3673,-3.3734,-3.4301,-3.4846,-3.5011,-3.63,-3.7479,-3.8171,-3.9146,-3.9967,-4.0373,-4.0079,-3.9656,-3.9135,-3.8244,-3.7347,-3.6791,-3.5871,-3.4225,-3.3272,-3.4703,-3.6437,-3.6767,-3.8592,-3.9898,-4.0075,-3.9326,-3.8407,-3.7998,-3.6654,-3.5393,-3.4926,-3.4502,-3.4055,-3.3615,-3.3375,-3.3244,-3.3147,-3.3032,-3.3019,-1.7137,-1.6865,-1.7409,-1.7589,-1.7781,-1.9034,-1.9747,-2.0229,-2.2203,-2.3528,-2.4062,-2.3351,-2.2864,-2.2669,-2.2433,-2.2045,-2.1482,-2.1007,-2.0764,-2.0819,-2.0941,-2.1175,-2.1553,-2.1491,-2.1502,-2.1526,-2.0473,-2.0031,-2.0172,-1.9396,-1.8865,-1.8586,-1.8124,-1.792,-1.8056,-1.793,-1.7998,-1.8134,-1.8279,-1.8337,-1.8395,-1.8596,-1.9121,-2.0042,-2.0996,-2.1894,-2.2761,-2.3566,-2.4323,-2.5092,-2.5389,-2.5993,-2.7097,-2.7616,-2.8696,-3.0429,-3.1352,-3.1894,-3.214,-3.2125,-3.202,-3.1763,-3.1671,-3.1709,-3.1802,-3.2144,-3.2519,-3.2876,-3.3124,-3.3321,-3.3397,-3.3327,-3.3131,-3.2816,-3.3011,-3.3178,-3.3258,-3.3699,-3.4322,-3.5179,-3.5949,-3.6859,-3.791,-3.9091,-3.9966,-4.0312,-4.0023,-3.9431,-3.8753,-3.7503,-3.6064,-3.4674,-3.3474,-3.3528,-3.384,-3.5266,-3.6548,-3.7492,-3.8764,-3.9937,-4.0214,-3.925,-3.8245,-3.8364,-3.6579,-3.5211,-3.4717,-3.4352,-3.3928,-3.3502,-3.2988,-3.2716,-3.2651,-3.235,-3.2282,-1.9571,-1.8872,-1.9422,-1.9745,-1.9859,-2.1167,-2.2157,-2.2973,-2.4644,-2.6007,-2.692,-2.6614,-2.5768,-2.4585,-2.4072,-2.3452,-2.2942,-2.2444,-2.217,-2.1943,-2.1966,-2.2151,-2.2579,-2.2482,-2.2359,-2.2212,-2.1404,-2.0719,-2.0248,-1.9417,-1.8875,-1.8674,-1.8385,-1.8317,-1.8442,-1.8327,-1.8405,-1.8414,-1.8414,-1.8559,-1.8657,-1.8492,-1.8777,-1.9651,-2.0719,-2.2066,-2.3769,-2.4641,-2.5938,-2.7849,-2.8099,-2.8674,-2.9716,-3.0053,-3.0728,-3.1806,-3.2741,-3.295,-3.2313,-3.2178,-3.1934,-3.1466,-3.1291,-3.1252,-3.1487,-3.1914,-3.2401,-3.2781,-3.3081,-3.3298,-3.3129,-3.2908,-3.2527,-3.2111,-3.2201,-3.2334,-3.2377,-3.282,-3.3573,-3.4541,-3.5055,-3.6137,-3.7698,-3.8858,-3.9605,-3.9739,-3.935,-3.8556,-3.7564,-3.6228,-3.466,-3.3106,-3.2124,-3.2169,-3.4127,-3.504,-3.6067,-3.7348,-3.8285,-3.9625,-3.9993,-3.8857,-3.7898,-3.7758,-3.6121,-3.5013,-3.4525,-3.4144,-3.3716,-3.3262,-3.2716,-3.2265,-3.2214,-3.1735,-3.1514,-2.1142,-2.0473,-2.0374,-2.0889,-2.1943,-2.2707,-2.3957,-2.5478,-2.745,-2.8293,-2.8337,-2.8944,-2.9138,-2.8339,-2.6263,-2.4975,-2.4426,-2.357,-2.3311,-2.3452,-2.301,-2.3182,-2.3865,-2.3741,-2.3623,-2.3323,-2.2688,-2.1592,-2.0161,-1.9528,-1.9019,-1.8549,-1.9075,-1.9075,-1.8607,-1.8911,-1.8921,-1.8395,-1.8259,-1.8329,-1.8418,-1.7588,-1.7888,-1.9391,-2.0448,-2.2374,-2.4935,-2.6276,-2.7613,-2.9091,-3.0549,-3.123,-3.1018,-3.1757,-3.2443,-3.2889,-3.3672,-3.3733,-3.2945,-3.2469,-3.1898,-3.121,-3.0683,-3.0584,-3.1123,-3.1588,-3.2144,-3.2763,-3.319,-3.3298,-3.2903,-3.2362,-3.1753,-3.1111,-3.0899,-3.0869,-3.0838,-3.1918,-3.2338,-3.2882,-3.4035,-3.5701,-3.77,-3.8373,-3.8782,-3.8918,-3.8708,-3.8021,-3.6704,-3.5247,-3.4033,-3.3291,-3.21,-3.0864,-3.0303,-3.2479,-3.4245,-3.5527,-3.7417,-3.9094,-3.905,-3.8788,-3.8001,-3.7129,-3.5666,-3.4676,-3.4289,-3.3864,-3.3411,-3.2876,-3.2283,-3.1913,-3.1733,-3.1346,-3.1021,-2.2801,-2.2422,-2.1872,-2.2138,-2.3028,-2.4265,-2.5514,-2.6744,-2.8366,-2.9681,-3.0251,-2.986,-2.9818,-3.0186,-2.8438,-2.7115,-2.6202,-2.5523,-2.4931,-2.4456,-2.4323,-2.4563,-2.4966,-2.4738,-2.4425,-2.416,-2.35,-2.22,-2.0409,-1.9594,-1.9152,-1.9008,-1.9341,-1.9528,-1.9452,-1.9375,-1.9023,-1.8536,-1.7561,-1.6504,-1.5859,-1.576,-1.7226,-1.991,-2.1461,-2.4081,-2.81,-2.8887,-3.0017,-3.1756,-3.2157,-3.254,-3.3116,-3.3682,-3.4093,-3.4323,-3.4647,-3.4436,-3.3502,-3.2653,-3.1877,-3.1108,-3.0485,-3.0285,-3.0771,-3.1384,-3.2039,-3.2634,-3.3037,-3.2939,-3.2242,-3.1774,-3.1261,-3.0611,-3.0383,-3.0492,-3.0892,-3.1556,-3.2199,-3.2861,-3.4091,-3.5681,-3.7106,-3.7978,-3.8446,-3.8961,-3.8089,-3.6901,-3.5807,-3.4142,-3.2659,-3.2117,-3.1232,-3.0591,-3.1119,-3.2029,-3.3474,-3.4634,-3.6082,-3.7005,-3.7343,-3.7079,-3.6393,-3.6356,-3.512,-3.4284,-3.3869,-3.3405,-3.2988,-3.2684,-3.2039,-3.1452,-3.1133,-3.064,-3.0269,-2.4365,-2.3262,-2.2784,-2.3153,-2.418,-2.5496,-2.7036,-2.8597,-2.9669,-3.0995,-3.1959,-3.102,-3.0825,-3.1176,-3.0003,-2.9066,-2.819,-2.7258,-2.6206,-2.5306,-2.5319,-2.5316,-2.5244,-2.5203,-2.5007,-2.4543,-2.35,-2.2089,-2.0537,-1.966,-1.9452,-1.9617,-2.0074,-2.0386,-2.044,-2.0106,-1.9918,-1.9868,-1.8847,-1.7494,-1.6321,-1.7011,-2.0165,-2.4399,-2.4955,-2.6422,-3.03,-3.0783,-3.1737,-3.32,-3.3232,-3.348,-3.4258,-3.4678,-3.4917,-3.5087,-3.5222,-3.4808,-3.3746,-3.2828,-3.1969,-3.1056,-3.0437,-3.0231,-3.0553,-3.1325,-3.1986,-3.2468,-3.2666,-3.24,-3.1744,-3.1243,-3.0763,-3.0229,-3.0198,-3.059,-3.1303,-3.1941,-3.2676,-3.3367,-3.4007,-3.5169,-3.6405,-3.6786,-3.7363,-3.8313,-3.6841,-3.5531,-3.4684,-3.3038,-3.1487,-3.1074,-3.0543,-3.0505,-3.0898,-3.1702,-3.2998,-3.4202,-3.4959,-3.5606,-3.59,-3.5544,-3.5337,-3.5277,-3.4797,-3.4007,-3.3408,-3.2975,-3.2687,-3.2488,-3.186,-3.1162,-3.0608,-2.9892,-2.977,-2.6037,-2.3446,-2.2901,-2.4023,-2.5644,-2.661,-2.871,-3.1096,-3.1534,-3.2361,-3.34,-3.2789,-3.2349,-3.2081,-3.0898,-3.0341,-3.0228,-2.8711,-2.7344,-2.6417,-2.5862,-2.536,-2.4912,-2.5438,-2.5369,-2.4851,-2.2895,-2.1553,-2.0655,-1.9966,-1.9868,-2.0692,-2.146,-2.1708,-2.1549,-2.1546,-2.2002,-2.2587,-2.2098,-2.1476,-2.1082,-2.1226,-2.5388,-3.2745,-3.0372,-2.9394,-3.1703,-3.193,-3.2596,-3.3717,-3.396,-3.4087,-3.4236,-3.4598,-3.4918,-3.5116,-3.5359,-3.482,-3.3699,-3.3022,-3.2174,-3.1236,-3.0515,-3.0373,-3.0747,-3.1342,-3.1933,-3.2299,-3.2281,-3.1942,-3.1478,-3.0868,-3.0328,-2.9931,-3.0336,-3.104,-3.2043,-3.2889,-3.3551,-3.39,-3.3821,-3.3876,-3.4639,-3.521,-3.5754,-3.6248,-3.5314,-3.4217,-3.3794,-3.219,-3.0895,-3.0667,-3.0434,-3.0488,-3.0709,-3.1106,-3.2466,-3.3709,-3.4306,-3.4893,-3.5107,-3.4944,-3.4743,-3.4637,-3.4255,-3.352,-3.3142,-3.2705,-3.2579,-3.2266,-3.1551,-3.1211,-3.099,-3.0587,-2.9824,-2.9116,-2.8319,-2.6084,-2.6234,-2.8076,-2.9176,-3.0613,-3.1986,-3.3022,-3.3767,-3.3994,-3.3671,-3.3387,-3.3089,-3.2182,-3.1634,-3.1409,-3.0396,-2.9128,-2.7762,-2.6867,-2.6438,-2.6231,-2.6084,-2.5586,-2.4593,-2.2942,-2.1803,-2.1227,-2.0782,-2.0917,-2.1587,-2.2613,-2.2949,-2.2867,-2.3792,-2.4356,-2.367,-2.367,-2.3118,-2.2057,-2.2248,-2.5086,-2.9682,-3.1593,-3.3005,-3.3701,-3.3759,-3.3719,-3.3655,-3.3666,-3.387,-3.4263,-3.4737,-3.5076,-3.5257,-3.5335,-3.5069,-3.4257,-3.338,-3.2567,-3.1801,-3.1173,-3.102,-3.1286,-3.17,-3.2074,-3.2318,-3.2263,-3.1884,-3.1165,-3.1081,-3.0867,-3.0583,-3.0607,-3.1085,-3.2143,-3.2641,-3.3115,-3.3587,-3.3422,-3.3635,-3.4262,-3.4588,-3.5127,-3.6194,-3.4957,-3.367,-3.3589,-3.2132,-3.0861,-3.0593,-3.051,-3.051,-3.0821,-3.1201,-3.2087,-3.3033,-3.3581,-3.4095,-3.4297,-3.4429,-3.4225,-3.4025,-3.3608,-3.3226,-3.2848,-3.2574,-3.2424,-3.2325,-3.1952,-3.189,-3.1964,-3.1445,-3.058,-3.2991,-3.1189,-2.98,-2.9198,-2.954,-3.0958,-3.2036,-3.2875,-3.3661,-3.4254,-3.4592,-3.4332,-3.4101,-3.3817,-3.3047,-3.2558,-3.2247,-3.1679,-3.0734,-2.9621,-2.831,-2.7618,-2.7028,-2.6249,-2.5482,-2.438,-2.2775,-2.1741,-2.1388,-2.1215,-2.1663,-2.2755,-2.4157,-2.4982,-2.5061,-2.6228,-2.6703,-2.6731,-2.6856,-2.6907,-2.7165,-2.7307,-2.8254,-3.0312,-3.2527,-3.3692,-3.3956,-3.3783,-3.3393,-3.2925,-3.2908,-3.3301,-3.3908,-3.4715,-3.5285,-3.535,-3.5278,-3.5018,-3.4426,-3.3613,-3.2926,-3.2385,-3.1922,-3.1745,-3.1955,-3.216,-3.223,-3.1914,-3.1521,-3.1069,-3.0604,-3.0681,-3.0914,-3.1067,-3.1079,-3.1641,-3.2672,-3.3096,-3.3383,-3.3774,-3.3544,-3.3499,-3.3692,-3.4001,-3.46,-3.563,-3.4426,-3.3333,-3.3321,-3.2179,-3.1254,-3.0675,-3.0733,-3.0855,-3.1055,-3.1411,-3.1858,-3.2337,-3.2836,-3.3287,-3.3629,-3.3789,-3.3741,-3.3816,-3.3549,-3.322,-3.2844,-3.2504,-3.2319,-3.2265,-3.2168,-3.177,-3.1541,-3.1742,-3.1169,-3.7379,-3.2239,-3.3769,-3.2616,-3.0377,-3.2012,-3.3347,-3.4035,-3.3893,-3.4462,-3.5304,-3.5182,-3.4832,-3.4503,-3.381,-3.3366,-3.3135,-3.2485,-3.218,-3.1602,-3.0263,-2.8632,-2.7239,-2.6029,-2.5322,-2.47,-2.2955,-2.1932,-2.2201,-2.2318,-2.2517,-2.477,-2.6439,-2.7487,-2.8066,-2.8677,-2.9886,-3.0905,-3.1119,-3.2182,-3.4192,-3.4856,-3.4641,-3.3805,-3.2741,-3.2317,-3.2432,-3.1925,-3.1651,-3.1597,-3.2022,-3.2569,-3.3401,-3.4662,-3.5347,-3.5369,-3.5273,-3.4869,-3.4337,-3.3876,-3.3332,-3.2902,-3.2754,-3.2593,-3.2505,-3.2479,-3.2178,-3.137,-3.0717,-3.019,-3.0138,-3.0252,-3.0618,-3.1221,-3.1678,-3.2555,-3.4022,-3.4092,-3.4102,-3.4269,-3.3865,-3.3219,-3.3086,-3.3229,-3.3952,-3.451,-3.353,-3.2884,-3.311,-3.2377,-3.1089,-3.0831,-3.0935,-3.1157,-3.1351,-3.1654,-3.2038,-3.2369,-3.2719,-3.3024,-3.3316,-3.3502,-3.3502,-3.3541,-3.3541,-3.3214,-3.2827,-3.247,-3.223,-3.217,-3.1805,-3.1252,-3.1422,-3.1924,-3.1929,-4.0441,-3.7547,-3.5989,-3.4137,-3.2625,-3.4006,-3.469,-3.4952,-3.5834,-3.6109,-3.643,-3.6801,-3.6661,-3.6314,-3.5435,-3.4886,-3.4435,-3.381,-3.3339,-3.2945,-3.1434,-2.974,-2.7925,-2.6109,-2.5782,-2.6352,-2.4923,-2.4606,-2.6052,-2.6084,-2.7038,-2.8499,-2.9313,-2.996,-3.0199,-3.1462,-3.211,-3.2428,-3.356,-3.4158,-3.4735,-3.5114,-3.4562,-3.325,-3.1385,-3.0525,-3.051,-2.9531,-2.9691,-3.0942,-3.1459,-3.2122,-3.3025,-3.4208,-3.5001,-3.522,-3.5127,-3.4813,-3.435,-3.4266,-3.3973,-3.351,-3.3522,-3.3503,-3.3071,-3.284,-3.2315,-3.1542,-3.1099,-3.079,-3.0567,-3.0808,-3.1352,-3.1983,-3.2422,-3.3069,-3.3802,-3.4035,-3.4246,-3.4442,-3.3885,-3.3278,-3.2948,-3.3037,-3.3683,-3.4503,-3.3617,-3.231,-3.2999,-3.2372,-3.0935,-3.1055,-3.1213,-3.1411,-3.1637,-3.193,-3.2249,-3.257,-3.288,-3.3178,-3.3444,-3.3698,-3.3569,-3.3408,-3.3522,-3.3314,-3.2781,-3.2318,-3.2189,-3.2038,-3.1969,-3.1743,-3.2425,-3.2925,-3.2584,-4.3163,-4.0721,-3.9261,-3.6934,-3.4523,-3.5205,-3.5417,-3.5448,-3.6329,-3.6947,-3.7167,-3.7802,-3.7907,-3.7561,-3.6952,-3.6463,-3.6093,-3.5576,-3.5302,-3.4966,-3.363,-3.1679,-2.9673,-2.8115,-2.829,-2.8481,-2.7223,-2.7091,-2.783,-2.8418,-2.916,-3.0052,-3.1375,-3.1893,-3.2039,-3.3394,-3.4002,-3.3619,-3.4342,-3.4602,-3.4326,-3.4649,-3.3512,-3.1643,-2.9316,-2.803,-2.8271,-2.7725,-2.8054,-2.9338,-3.017,-3.1059,-3.2259,-3.3341,-3.4197,-3.4775,-3.4884,-3.4692,-3.4359,-3.4461,-3.4408,-3.4095,-3.4137,-3.3942,-3.3611,-3.3178,-3.2502,-3.1939,-3.1396,-3.0862,-3.0682,-3.1146,-3.1744,-3.2187,-3.3045,-3.3697,-3.4134,-3.432,-3.4429,-3.4397,-3.3882,-3.3226,-3.2898,-3.2948,-3.3605,-3.4196,-3.3383,-3.3036,-3.3156,-3.1961,-3.1196,-3.1312,-3.1524,-3.1731,-3.2056,-3.2368,-3.2631,-3.2934,-3.3214,-3.3484,-3.3541,-3.3788,-3.368,-3.3541,-3.3532,-3.3314,-3.2699,-3.2214,-3.2069,-3.2053,-3.2175,-3.2168,-3.2449,-3.269,-3.2477,-4.518,-4.2058,-4.2652,-4.0136,-3.6104,-3.5811,-3.5811,-3.5756,-3.6281,-3.697,-3.7701,-3.8352,-3.8683,-3.8574,-3.8098,-3.7855,-3.7756,-3.7235,-3.6955,-3.6498,-3.5588,-3.4015,-3.1571,-3.1121,-3.0979,-3.0579,-2.979,-2.9347,-2.9529,-2.9511,-2.9949,-3.1316,-3.2726,-3.3367,-3.3751,-3.4747,-3.5028,-3.4594,-3.4282,-3.3948,-3.3597,-3.375,-3.2685,-2.9899,-2.7483,-2.6631,-2.6978,-2.6938,-2.7263,-2.7924,-2.8663,-2.9901,-3.123,-3.2207,-3.3247,-3.42,-3.4648,-3.4644,-3.4344,-3.4508,-3.4632,-3.4489,-3.4287,-3.4154,-3.3961,-3.3411,-3.2778,-3.2265,-3.125,-3.0751,-3.0647,-3.1282,-3.1726,-3.2007,-3.3105,-3.3988,-3.4479,-3.4689,-3.4822,-3.4593,-3.3771,-3.3274,-3.3129,-3.3096,-3.3237,-3.4429,-3.355,-3.3159,-3.3033,-3.2245,-3.1716,-3.16,-3.1841,-3.2056,-3.2433,-3.2791,-3.3094,-3.3367,-3.3661,-3.385,-3.3707,-3.3834,-3.378,-3.3726,-3.3522,-3.3057,-3.2433,-3.2144,-3.1927,-3.1551,-3.1308,-3.1263,-3.1263,-3.1491,-3.1454,-4.4274,-4.1491,-4.2526,-4.0378,-3.669,-3.6571,-3.6591,-3.6487,-3.7088,-3.7808,-3.8588,-3.925,-3.9631,-3.9805,-3.9141,-3.8828,-3.8733,-3.8176,-3.7238,-3.5966,-3.6968,-3.6129,-3.4153,-3.2908,-3.2222,-3.2322,-3.1815,-3.1913,-3.2645,-3.2906,-3.3683,-3.4082,-3.4287,-3.5027,-3.5076,-3.5094,-3.5101,-3.4737,-3.4376,-3.3644,-3.2816,-3.2834,-3.1746,-2.8887,-2.7043,-2.6949,-2.775,-2.7669,-2.7739,-2.8324,-2.8809,-2.9585,-3.0838,-3.2042,-3.3142,-3.4046,-3.4599,-3.4682,-3.4433,-3.4654,-3.4845,-3.4583,-3.4572,-3.4439,-3.3972,-3.3606,-3.2998,-3.2389,-3.1647,-3.1259,-3.1092,-3.1707,-3.1815,-3.1638,-3.1863,-3.2463,-3.3196,-3.449,-3.487,-3.4348,-3.3761,-3.3309,-3.352,-3.319,-3.3494,-3.4308,-3.401,-3.3308,-3.2827,-3.2383,-3.2137,-3.1858,-3.202,-3.2299,-3.2777,-3.3118,-3.3375,-3.3606,-3.3891,-3.3972,-3.3842,-3.3753,-3.3698,-3.3559,-3.3397,-3.2827,-3.2127,-3.1861,-3.1654,-3.1067,-3.0543,-3.0642,-3.0667,-3.0674,-3.0603,-4.3954,-4.2496,-4.2377,-4.0588,-3.7997,-3.738,-3.7073,-3.7087,-3.7757,-3.8499,-3.9201,-3.9908,-4.0351,-4.0487,-4.0055,-3.9873,-3.9779,-3.9354,-3.8668,-3.8007,-3.8353,-3.7912,-3.7037,-3.5366,-3.4611,-3.4772,-3.4084,-3.4197,-3.4548,-3.4832,-3.4824,-3.5212,-3.5432,-3.5393,-3.5457,-3.5364,-3.5073,-3.4583,-3.4051,-3.3231,-3.2207,-3.2097,-3.1493,-2.936,-2.7931,-2.7568,-2.7969,-2.8067,-2.8089,-2.8435,-2.9004,-2.9829,-3.0756,-3.1711,-3.2709,-3.3794,-3.4334,-3.4493,-3.443,-3.4674,-3.4889,-3.4743,-3.4731,-3.4519,-3.4266,-3.4009,-3.3576,-3.2951,-3.2522,-3.2279,-3.1554,-3.1812,-3.1759,-3.1604,-3.1835,-3.2686,-3.3687,-3.4503,-3.4836,-3.4423,-3.4319,-3.3982,-3.3789,-3.3415,-3.3382,-3.3984,-3.3772,-3.3116,-3.2751,-3.2336,-3.2213,-3.2091,-3.2214,-3.2553,-3.3063,-3.3419,-3.3652,-3.3813,-3.3961,-3.3895,-3.3698,-3.3615,-3.3559,-3.3339,-3.3063,-3.2433,-3.1825,-3.1623,-3.1189,-3.0534,-3.0133,-3.0192,-3.0156,-3.0158,-2.9999,-4.3373,-4.333,-4.1965,-4.046,-3.8842,-3.7653,-3.6901,-3.6762,-3.789,-3.8577,-3.9488,-4.0283,-4.0605,-4.0726,-4.0657,-4.0688,-4.0565,-4.0309,-3.9741,-3.9711,-3.9278,-3.892,-3.829,-3.73,-3.6397,-3.6297,-3.5553,-3.5177,-3.4848,-3.4945,-3.5066,-3.5168,-3.5369,-3.5476,-3.5422,-3.5307,-3.4952,-3.4339,-3.3714,-3.2793,-3.183,-3.1756,-3.1402,-3.0896,-2.9406,-2.8743,-2.8915,-2.9023,-2.8977,-2.8695,-2.9701,-3.0665,-3.1325,-3.157,-3.2086,-3.3506,-3.4005,-3.4232,-3.4348,-3.4591,-3.481,-3.4962,-3.4793,-3.4628,-3.4544,-3.4344,-3.3931,-3.359,-3.3187,-3.2779,-3.1624,-3.1667,-3.1666,-3.1541,-3.2349,-3.3361,-3.4197,-3.412,-3.4198,-3.4974,-3.4881,-3.4563,-3.4081,-3.3643,-3.3625,-3.353,-3.3298,-3.3006,-3.2669,-3.2486,-3.2451,-3.25,-3.2695,-3.2934,-3.3447,-3.3858,-3.408,-3.403,-3.408,-3.3868,-3.3643,-3.3444,-3.328,-3.2988,-3.2601,-3.1951,-3.1384,-3.0977,-3.0493,-2.9946,-2.9745,-2.9733,-2.9661,-2.9633,-2.9438,-4.0979,-4.1372,-4.0817,-3.9075,-3.6787,-3.6435,-3.5827,-3.5142,-3.6682,-3.7932,-3.9052,-3.9996,-4.0524,-4.063,-4.0635,-4.0579,-4.045,-4.0211,-4.0043,-3.9925,-3.9548,-3.9205,-3.8459,-3.7253,-3.6431,-3.6074,-3.5528,-3.4965,-3.4807,-3.4887,-3.5102,-3.5307,-3.5443,-3.5463,-3.5311,-3.5059,-3.4585,-3.3971,-3.3433,-3.2624,-3.1724,-3.1824,-3.2422,-3.247,-3.1208,-3.0798,-3.1203,-3.1272,-3.1292,-3.1428,-3.1643,-3.2094,-3.2436,-3.2318,-3.2629,-3.3332,-3.3863,-3.4134,-3.4293,-3.448,-3.4752,-3.4908,-3.4889,-3.4732,-3.4566,-3.4348,-3.4073,-3.3676,-3.3273,-3.2656,-3.0998,-3.1413,-3.1319,-3.0969,-3.0723,-3.1062,-3.2037,-3.2908,-3.3913,-3.5108,-3.516,-3.4932,-3.4286,-3.3805,-3.3743,-3.3597,-3.3339,-3.3154,-3.2885,-3.2867,-3.2911,-3.3064,-3.3259,-3.3524,-3.385,-3.4227,-3.4473,-3.4269,-3.4197,-3.391,-3.3634,-3.3291,-3.2988,-3.2651,-3.2161,-3.1554,-3.0982,-3.041,-2.9789,-2.9241,-2.9212,-2.9227,-2.9182,-2.9136,-2.8997,-3.9634,-3.9817,-3.8899,-3.7577,-3.6195,-3.5671,-3.5314,-3.5203,-3.6493,-3.7605,-3.8533,-3.9579,-4.0156,-4.0264,-4.0441,-4.0441,-4.0304,-4.0041,-3.9897,-3.9747,-3.947,-3.8856,-3.8055,-3.6725,-3.5727,-3.5042,-3.4397,-3.4363,-3.4551,-3.4832,-3.5051,-3.5266,-3.5407,-3.5422,-3.5266,-3.4904,-3.4264,-3.364,-3.3103,-3.2396,-3.1438,-3.2013,-3.3051,-3.3576,-3.3292,-3.2934,-3.2939,-3.2895,-3.2626,-3.2549,-3.2624,-3.2836,-3.2929,-3.2978,-3.3009,-3.3541,-3.3788,-3.4005,-3.4184,-3.4348,-3.4508,-3.4907,-3.4889,-3.4752,-3.466,-3.4577,-3.433,-3.3835,-3.29,-3.2322,-3.1555,-3.169,-3.1679,-3.1322,-3.0817,-3.1322,-3.2366,-3.2931,-3.3808,-3.4878,-3.5003,-3.4703,-3.4227,-3.3928,-3.3876,-3.3689,-3.3437,-3.3266,-3.3153,-3.3205,-3.333,-3.357,-3.3747,-3.388,-3.4087,-3.434,-3.4558,-3.4404,-3.4179,-3.3884,-3.3514,-3.3063,-3.2651,-3.2266,-3.1716,-3.1193,-3.0542,-2.9962,-2.9241,-2.8668,-2.87,-2.8732,-2.87,-2.8605,-2.8494,-3.8649,-3.8534,-3.7139,-3.6168,-3.5506,-3.4988,-3.4764,-3.516,-3.6327,-3.7251,-3.7905,-3.9145,-3.9813,-3.9887,-4.0138,-4.0344,-4.0233,-3.9916,-3.9762,-3.9599,-3.9305,-3.8572,-3.7408,-3.6358,-3.5338,-3.4289,-3.3436,-3.3306,-3.4037,-3.451,-3.4851,-3.5086,-3.5251,-3.5315,-3.5152,-3.468,-3.3999,-3.3195,-3.259,-3.1882,-3.1804,-3.2582,-3.3712,-3.4836,-3.4758,-3.4414,-3.4154,-3.3953,-3.3621,-3.3403,-3.3332,-3.3382,-3.3291,-3.325,-3.3426,-3.3707,-3.3625,-3.3716,-3.3884,-3.4117,-3.4357,-3.4774,-3.4811,-3.4768,-3.4782,-3.4789,-3.4534,-3.3729,-3.2767,-3.1874,-3.1663,-3.1785,-3.1764,-3.1751,-3.1658,-3.205,-3.2755,-3.3068,-3.2743,-3.359,-3.4345,-3.417,-3.3414,-3.391,-3.3839,-3.3902,-3.3643,-3.3742,-3.3615,-3.3595,-3.3707,-3.3993,-3.419,-3.4246,-3.4325,-3.4316,-3.4446,-3.4306,-3.4005,-3.3698,-3.3237,-3.2763,-3.2351,-3.1966,-3.1435,-3.0897,-3.0201,-2.954,-2.8951,-2.8477,-2.8332,-2.8235,-2.8284,-2.822,-2.8107,-3.7739,-3.7411,-3.6454,-3.5008,-3.3605,-3.3961,-3.3657,-3.33,-3.5179,-3.6468,-3.7344,-3.8809,-3.9534,-3.9678,-4.0021,-4.0196,-4.0098,-3.9851,-3.9575,-3.9376,-3.9119,-3.8317,-3.7137,-3.6181,-3.4993,-3.3865,-3.3051,-3.3032,-3.3478,-3.3957,-3.4433,-3.4756,-3.5117,-3.52,-3.4961,-3.4301,-3.3358,-3.2325,-3.1777,-3.1776,-3.2296,-3.3345,-3.4222,-3.4729,-3.498,-3.5028,-3.4821,-3.4702,-3.451,-3.4222,-3.4154,-3.4031,-3.3858,-3.3762,-3.3643,-3.3473,-3.3202,-3.2996,-3.3375,-3.3747,-3.4204,-3.4593,-3.4772,-3.5087,-3.482,-3.4338,-3.3562,-3.1947,-3.1622,-3.1579,-3.1256,-3.0644,-3.0718,-3.0997,-3.121,-3.1384,-3.1928,-3.2379,-3.2122,-3.1875,-3.2523,-3.2547,-3.2127,-3.3055,-3.3776,-3.3865,-3.3943,-3.4031,-3.4167,-3.4166,-3.4154,-3.4465,-3.4601,-3.4658,-3.4508,-3.4502,-3.44,-3.4296,-3.3868,-3.3458,-3.2965,-3.2502,-3.2074,-3.1657,-3.1089,-3.0592,-2.9946,-2.9316,-2.8637,-2.8332,-2.8186,-2.8039,-2.789,-2.7825,-2.771,-3.5743,-3.4804,-3.4615,-3.4098,-3.3401,-3.3304,-3.3361,-3.3647,-3.4692,-3.5779,-3.6728,-3.7796,-3.8625,-3.9163,-3.9614,-3.9762,-3.9717,-3.9599,-3.9427,-3.9219,-3.8934,-3.8103,-3.6693,-3.5752,-3.4781,-3.3312,-3.2493,-3.2318,-3.2813,-3.3576,-3.4229,-3.4582,-3.5011,-3.5133,-3.4718,-3.3855,-3.257,-3.1481,-3.0857,-3.0929,-3.1722,-3.3011,-3.4229,-3.4754,-3.4994,-3.5114,-3.5193,-3.5165,-3.5039,-3.4775,-3.4632,-3.4372,-3.4099,-3.3823,-3.3559,-3.328,-3.2939,-3.3014,-3.3468,-3.3739,-3.4115,-3.4576,-3.4756,-3.4585,-3.394,-3.3248,-3.2557,-3.1311,-3.1098,-3.1114,-3.1313,-3.0925,-3.0981,-3.1092,-3.0936,-3.1381,-3.1508,-3.114,-3.1195,-3.0888,-3.0755,-3.1213,-3.1569,-3.2121,-3.3243,-3.4092,-3.4262,-3.4457,-3.468,-3.4876,-3.4893,-3.4947,-3.5005,-3.5047,-3.4813,-3.4672,-3.4551,-3.4344,-3.3752,-3.3325,-3.2745,-3.2265,-3.1804,-3.1128,-3.041,-2.9946,-2.9597,-2.9088,-2.8446,-2.8171,-2.8039,-2.784,-2.759,-2.7408,-2.724,-3.3375,-3.2358,-3.304,-3.337,-3.3385,-3.2967,-3.3251,-3.4118,-3.4638,-3.5363,-3.6205,-3.7197,-3.8085,-3.8718,-3.9249,-3.9483,-3.9396,-3.9357,-3.9287,-3.9154,-3.886,-3.8032,-3.6868,-3.5815,-3.4554,-3.2581,-3.2015,-3.1912,-3.238,-3.3125,-3.3852,-3.436,-3.4832,-3.4887,-3.44,-3.3338,-3.1883,-2.9904,-2.9665,-2.9881,-3.0632,-3.2268,-3.3508,-3.4257,-3.4695,-3.4982,-3.5243,-3.5364,-3.525,-3.5072,-3.4961,-3.4718,-3.4315,-3.4006,-3.3652,-3.3361,-3.305,-3.3154,-3.3496,-3.381,-3.4115,-3.4504,-3.4625,-3.4098,-3.2674,-3.1977,-3.1599,-3.1041,-3.0901,-3.1167,-3.1408,-3.1118,-3.0929,-3.0953,-3.1132,-3.1662,-3.2034,-3.167,-3.1438,-3.1341,-3.1251,-3.1085,-3.1386,-3.1465,-3.2435,-3.3952,-3.4565,-3.4816,-3.5063,-3.5329,-3.5303,-3.5249,-3.5189,-3.5165,-3.4944,-3.4752,-3.4658,-3.4277,-3.3698,-3.301,-3.2343,-3.1881,-3.147,-3.069,-2.9859,-2.9374,-2.9057,-2.8622,-2.8238,-2.7959,-2.7725,-2.7524,-2.7321,-2.7086,-2.6826,-3.0824,-3.0792,-3.2512,-3.3011,-3.2724,-3.3082,-3.3539,-3.4084,-3.4624,-3.5261,-3.6088,-3.7251,-3.8107,-3.8649,-3.9017,-3.9294,-3.9302,-3.9216,-3.9205,-3.9167,-3.8987,-3.8274,-3.7184,-3.6079,-3.4882,-3.3354,-3.2167,-3.1728,-3.2039,-3.2666,-3.3478,-3.4232,-3.4595,-3.4489,-3.3753,-3.2481,-3.0649,-2.8978,-2.8621,-2.901,-2.9857,-3.125,-3.2649,-3.3504,-3.4036,-3.4497,-3.4999,-3.5269,-3.5386,-3.5223,-3.5252,-3.5033,-3.4585,-3.4358,-3.4017,-3.3625,-3.3426,-3.3476,-3.3616,-3.3747,-3.3846,-3.4085,-3.3936,-3.3116,-3.108,-3.2107,-3.1955,-3.0698,-3.0213,-3.0756,-3.0744,-3.0566,-3.0364,-3.089,-3.1338,-3.1941,-3.2293,-3.2307,-3.2054,-3.1946,-3.1818,-3.1684,-3.1868,-3.2137,-3.2778,-3.4278,-3.4958,-3.5239,-3.5348,-3.554,-3.5496,-3.5425,-3.5316,-3.5168,-3.4926,-3.4689,-3.4381,-3.3928,-3.3354,-3.2563,-3.1777,-3.1399,-3.0948,-3.0318,-2.9524,-2.9027,-2.8465,-2.7997,-2.7615,-2.753,-2.7342,-2.6997,-2.675,-2.6539,-2.6312,-3.1492,-3.1222,-3.2276,-3.263,-3.2508,-3.3036,-3.3409,-3.3662,-3.4333,-3.5144,-3.6028,-3.6999,-3.7614,-3.7993,-3.8431,-3.8789,-3.8933,-3.9091,-3.9082,-3.9027,-3.882,-3.8317,-3.7356,-3.6235,-3.484,-3.353,-3.2329,-3.1858,-3.2231,-3.2527,-3.3234,-3.3956,-3.4353,-3.4073,-3.3204,-3.1359,-2.9253,-2.8264,-2.788,-2.8217,-2.8994,-3.0476,-3.1916,-3.2829,-3.3305,-3.3832,-3.441,-3.493,-3.5154,-3.5322,-3.5405,-3.5203,-3.4902,-3.4746,-3.4425,-3.4031,-3.3891,-3.3795,-3.3687,-3.3691,-3.3387,-3.2227,-3.2116,-3.1371,-2.9001,-2.9249,-2.9506,-2.9038,-2.9062,-2.9738,-3.0297,-2.9988,-2.9945,-3.0801,-3.1574,-3.2232,-3.258,-3.2674,-3.2459,-3.2222,-3.2305,-3.2352,-3.2646,-3.2976,-3.3743,-3.4613,-3.5149,-3.5593,-3.5629,-3.5601,-3.5508,-3.5284,-3.5136,-3.4904,-3.4656,-3.4334,-3.4037,-3.3505,-3.296,-3.2139,-3.1298,-3.0735,-3.0302,-2.9701,-2.9011,-2.8227,-2.7605,-2.7181,-2.699,-2.6886,-2.6654,-2.6365,-2.6111,-2.6016,-2.6016,-3.1751,-3.1146,-3.1661,-3.2091,-3.2302,-3.2865,-3.3084,-3.3219,-3.3933,-3.4927,-3.6019,-3.6696,-3.7129,-3.7413,-3.7964,-3.8323,-3.864,-3.8865,-3.8989,-3.896,-3.8828,-3.8453,-3.7638,-3.6599,-3.5388,-3.3935,-3.2788,-3.2296,-3.2317,-3.2433,-3.3112,-3.3768,-3.4068,-3.3792,-3.2745,-3.0252,-2.8121,-2.753,-2.7265,-2.7588,-2.8264,-2.9648,-3.0959,-3.1865,-3.2485,-3.3203,-3.3846,-3.4472,-3.4956,-3.5189,-3.5376,-3.5428,-3.526,-3.5059,-3.4802,-3.4543,-3.4338,-3.4162,-3.3937,-3.3682,-3.2918,-3.1556,-3.0698,-2.8989,-2.7098,-2.7022,-2.7862,-2.7156,-2.7681,-2.8896,-3.0061,-2.9777,-3.0414,-3.1428,-3.1979,-3.2582,-3.3005,-3.3179,-3.2793,-3.248,-3.2267,-3.1679,-3.2909,-3.3268,-3.4318,-3.4976,-3.5374,-3.5652,-3.5601,-3.554,-3.5374,-3.5124,-3.4826,-3.4564,-3.4285,-3.3692,-3.3128,-3.2715,-3.2176,-3.1597,-3.0864,-3.0219,-2.9399,-2.8607,-2.7905,-2.7223,-2.6686,-2.6119,-2.6133,-2.6293,-2.6096,-2.595,-2.5893,-2.5853,-2.5907,-3.1087,-3.0119,-3.066,-3.1317,-3.191,-3.2421,-3.2608,-3.2843,-3.3594,-3.4688,-3.5958,-3.6574,-3.6895,-3.7226,-3.7808,-3.8176,-3.8425,-3.8759,-3.896,-3.897,-3.8826,-3.8818,-3.8283,-3.7252,-3.5708,-3.4712,-3.3366,-3.2421,-3.2317,-3.24,-3.2991,-3.3532,-3.3743,-3.3505,-3.2997,-3.0246,-2.8248,-2.7232,-2.682,-2.71,-2.7678,-2.8778,-2.9891,-3.0931,-3.1828,-3.2616,-3.3378,-3.4151,-3.467,-3.5037,-3.5449,-3.5523,-3.5377,-3.5338,-3.5136,-3.4827,-3.4737,-3.4411,-3.3901,-3.3734,-3.2096,-3.0287,-2.9077,-2.7504,-2.6681,-2.6782,-2.727,-2.698,-2.8665,-2.9749,-3.0039,-2.9933,-3.0888,-3.1848,-3.2368,-3.2904,-3.3333,-3.3629,-3.3291,-3.2748,-3.1189,-3.0314,-3.207,-3.3495,-3.4687,-3.5389,-3.5675,-3.5682,-3.5472,-3.5277,-3.5044,-3.4604,-3.4226,-3.3802,-3.3396,-3.2732,-3.2209,-3.1864,-3.1482,-3.0954,-3.0179,-2.9291,-2.8435,-2.7579,-2.6836,-2.6183,-2.5617,-2.505,-2.5161,-2.5329,-2.5758,-2.5758,-2.5689,-2.5688,-2.5839,-3.0911,-3.0072,-3.0553,-3.0657,-3.0594,-3.0979,-3.1486,-3.214,-3.3443,-3.4783,-3.5871,-3.6318,-3.6609,-3.7013,-3.7469,-3.791,-3.8273,-3.8499,-3.8688,-3.8884,-3.8646,-3.8523,-3.8099,-3.7076,-3.5679,-3.45,-3.3296,-3.2526,-3.2299,-3.2247,-3.2822,-3.3426,-3.3522,-3.2996,-3.209,-3.0227,-2.8591,-2.753,-2.7063,-2.693,-2.6968,-2.8115,-2.9374,-3.0427,-3.1422,-3.2279,-3.3076,-3.3938,-3.4508,-3.494,-3.5394,-3.5593,-3.5584,-3.5596,-3.5456,-3.5166,-3.4955,-3.3807,-3.1758,-3.0005,-2.8354,-2.7447,-2.6871,-2.5612,-2.4038,-2.5943,-2.6836,-2.7984,-2.9474,-3.0447,-3.0986,-3.0104,-3.0636,-3.1952,-3.2662,-3.3261,-3.3705,-3.3936,-3.3809,-3.3091,-3.1881,-3.1136,-3.196,-3.2796,-3.3906,-3.4392,-3.452,-3.4889,-3.4816,-3.466,-3.4466,-3.392,-3.343,-3.2987,-3.2495,-3.1882,-3.1468,-3.1198,-3.0903,-3.0542,-2.9648,-2.8435,-2.7697,-2.6887,-2.6008,-2.5176,-2.4697,-2.4337,-2.4221,-2.4376,-2.4973,-2.5479,-2.5578,-2.5688,-2.5839,-3.045,-2.9345,-3.005,-2.9907,-2.9428,-2.9933,-3.0629,-3.1564,-3.3156,-3.4559,-3.5481,-3.5975,-3.6377,-3.6776,-3.7246,-3.765,-3.8099,-3.8491,-3.8621,-3.8792,-3.8541,-3.8478,-3.7931,-3.6985,-3.5951,-3.4694,-3.3523,-3.2699,-3.1842,-3.1756,-3.2299,-3.306,-3.3515,-3.3377,-3.2238,-3.0454,-2.8342,-2.7285,-2.6663,-2.6215,-2.6724,-2.7773,-2.9057,-3.0285,-3.1329,-3.2296,-3.3087,-3.3825,-3.4494,-3.4918,-3.529,-3.5613,-3.574,-3.5756,-3.5658,-3.5414,-3.3619,-3.2421,-3.0342,-2.575,-2.4598,-2.4678,-2.4519,-2.4153,-2.3606,-2.564,-2.7213,-2.8535,-3.0088,-3.0528,-3.08,-2.9918,-3.0845,-3.2181,-3.2457,-3.3058,-3.3571,-3.3759,-3.3318,-3.2708,-3.1719,-3.1414,-3.1309,-3.2143,-3.2901,-3.309,-3.3259,-3.3604,-3.3933,-3.3759,-3.3482,-3.298,-3.242,-3.188,-3.1457,-3.1053,-3.0704,-3.0526,-3.0218,-2.9903,-2.8669,-2.743,-2.6836,-2.6115,-2.5051,-2.4195,-2.393,-2.3662,-2.359,-2.3884,-2.4492,-2.4975,-2.5383,-2.5647,-2.5853,-2.9704,-2.8157,-2.9162,-2.924,-2.8603,-2.9354,-3.0199,-3.1155,-3.2792,-3.3989,-3.4878,-3.5766,-3.6191,-3.655,-3.7188,-3.7578,-3.7879,-3.8491,-3.8683,-3.8732,-3.8621,-3.8572,-3.8373,-3.7838,-3.6306,-3.5084,-3.3841,-3.249,-3.1339,-3.1422,-3.1946,-3.2943,-3.3952,-3.3772,-3.2496,-3.064,-2.8436,-2.7133,-2.535,-2.5096,-2.5602,-2.7321,-2.8904,-3.0357,-3.1755,-3.2709,-3.3515,-3.4162,-3.4597,-3.4973,-3.529,-3.5544,-3.5694,-3.5762,-3.5699,-3.4425,-3.164,-3.0447,-2.823,-2.315,-2.2094,-2.2887,-2.4474,-2.4521,-2.5176,-2.6482,-2.8549,-2.9845,-3.1218,-3.0501,-2.9994,-3.0683,-3.1385,-3.1793,-3.1923,-3.2475,-3.3057,-3.2961,-3.2384,-3.1489,-3.0202,-2.9705,-2.9706,-3.0404,-3.1516,-3.1475,-3.157,-3.1721,-3.2044,-3.2371,-3.2092,-3.1811,-3.1239,-3.0695,-3.0328,-3.0269,-3.0175,-3.0054,-2.9406,-2.8934,-2.764,-2.6605,-2.5915,-2.5107,-2.3846,-2.3245,-2.3258,-2.3198,-2.3065,-2.3484,-2.3884,-2.4593,-2.5018,-2.5536,-2.5743,-3.0808,-2.9484,-3.0134,-2.9813,-2.8944,-2.9109,-2.9893,-3.1142,-3.2586,-3.3719,-3.483,-3.5207,-3.5677,-3.6335,-3.6935,-3.7321,-3.7721,-3.8117,-3.8541,-3.8652,-3.8652,-3.8559,-3.8282,-3.7772,-3.6337,-3.4853,-3.356,-3.2517,-3.1443,-3.1314,-3.2415,-3.3662,-3.4255,-3.4024,-3.3085,-3.1399,-2.9152,-2.6985,-2.4776,-2.4275,-2.5078,-2.6867,-2.8904,-3.1082,-3.2529,-3.3425,-3.3995,-3.4478,-3.485,-3.513,-3.5406,-3.5631,-3.5763,-3.5669,-3.5269,-3.2485,-3.0137,-2.807,-2.4723,-2.0918,-1.9693,-2.1981,-2.3896,-2.47,-2.5799,-2.8166,-3.0696,-3.201,-3.2691,-3.2306,-3.1735,-3.1962,-3.2202,-3.2157,-3.2272,-3.2559,-3.3069,-3.2983,-3.236,-3.1399,-3.0061,-2.9308,-2.9162,-2.9097,-2.9995,-2.9865,-2.9863,-3.0029,-3.0312,-3.0722,-3.087,-3.0583,-3.0327,-2.9805,-2.98,-2.9733,-2.9677,-2.9515,-2.8889,-2.824,-2.7253,-2.6265,-2.5245,-2.4239,-2.3148,-2.2823,-2.286,-2.2726,-2.2457,-2.2702,-2.31,-2.3943,-2.4708,-2.516,-2.5605,-3.1275,-2.9979,-3.0391,-3.0135,-2.9524,-2.9414,-3.0029,-3.1159,-3.2195,-3.3308,-3.4284,-3.4496,-3.5144,-3.6045,-3.6457,-3.6904,-3.7542,-3.7948,-3.8382,-3.867,-3.8652,-3.8652,-3.8365,-3.7937,-3.6808,-3.5153,-3.3547,-3.2474,-3.1645,-3.2088,-3.3131,-3.3716,-3.4357,-3.452,-3.3689,-3.1979,-3.0165,-2.8215,-2.6401,-2.4846,-2.5502,-2.7264,-2.9972,-3.2393,-3.3763,-3.405,-3.4528,-3.4901,-3.5108,-3.5288,-3.5519,-3.5669,-3.5403,-3.4824,-3.3544,-3.0771,-2.7679,-2.548,-2.2849,-2.0278,-2.0438,-2.2194,-2.4385,-2.6295,-2.8489,-3.1044,-3.3055,-3.4607,-3.4685,-3.4562,-3.3885,-3.3285,-3.303,-3.2766,-3.2816,-3.2847,-3.301,-3.3124,-3.2482,-3.1645,-3.0711,-2.9794,-2.9281,-2.8933,-2.8623,-2.8669,-2.8545,-2.8467,-2.8851,-2.9359,-2.9594,-2.9544,-2.9371,-2.9073,-2.9182,-2.9335,-2.9243,-2.9074,-2.8544,-2.7788,-2.6894,-2.5658,-2.4399,-2.3408,-2.2518,-2.2372,-2.2408,-2.2037,-2.1827,-2.2199,-2.2567,-2.3207,-2.3975,-2.458,-2.5,-3.1399,-2.9728,-3.0122,-3.0363,-3.023,-3.009,-3.045,-3.1087,-3.1777,-3.2687,-3.3582,-3.3903,-3.48,-3.581,-3.6071,-3.6591,-3.7323,-3.7913,-3.8368,-3.8689,-3.8773,-3.8748,-3.8593,-3.8615,-3.704,-3.5551,-3.4181,-3.2868,-3.229,-3.2572,-3.32,-3.3667,-3.4917,-3.5369,-3.4842,-3.2958,-3.1715,-3.1409,-3.0059,-2.8812,-2.7692,-2.9188,-3.1744,-3.441,-3.4835,-3.4626,-3.5043,-3.5295,-3.5438,-3.5488,-3.5577,-3.5737,-3.4474,-3.3375,-3.1737,-2.8914,-2.5557,-2.3253,-2.1459,-1.9431,-2.0885,-2.3132,-2.619,-2.9086,-3.1803,-3.3169,-3.4817,-3.5341,-3.5287,-3.4886,-3.4226,-3.3732,-3.3433,-3.3195,-3.3149,-3.3193,-3.327,-3.3136,-3.2533,-3.1664,-3.0751,-2.9854,-2.8795,-2.8354,-2.7754,-2.767,-2.7535,-2.7246,-2.7635,-2.8209,-2.8512,-2.8685,-2.8654,-2.8669,-2.8997,-2.9059,-2.892,-2.8591,-2.8146,-2.7244,-2.6236,-2.4869,-2.342,-2.2713,-2.2125,-2.1928,-2.1827,-2.1514,-2.1514,-2.2087,-2.2445,-2.2652,-2.3255,-2.3859,-2.4358,-3.1727,-3.0678,-3.0676,-3.0984,-3.1377,-3.0777,-3.0792,-3.1351,-3.1567,-3.2391,-3.3443,-3.3885,-3.4658,-3.5739,-3.584,-3.6348,-3.7248,-3.7803,-3.8428,-3.8634,-3.8815,-3.8496,-3.8079,-3.8025,-3.685,-3.5331,-3.4087,-3.3348,-3.2758,-3.2979,-3.3714,-3.4711,-3.5554,-3.5723,-3.5768,-3.4027,-3.4047,-3.4038,-3.3555,-3.1895,-3.0157,-3.0179,-3.1832,-3.4447,-3.5466,-3.5398,-3.5611,-3.5572,-3.5631,-3.567,-3.5715,-3.4835,-3.314,-3.2197,-2.9447,-2.5866,-2.3711,-2.1694,-2.0238,-1.9643,-2.1225,-2.5811,-2.9624,-3.2654,-3.4696,-3.5204,-3.5477,-3.5566,-3.5511,-3.5059,-3.4599,-3.4179,-3.3847,-3.3655,-3.3482,-3.3542,-3.3579,-3.3051,-3.2533,-3.1649,-3.0757,-2.9675,-2.8544,-2.7715,-2.7122,-2.6826,-2.6669,-2.663,-2.6997,-2.7545,-2.7993,-2.8155,-2.822,-2.8317,-2.8748,-2.8826,-2.8669,-2.8304,-2.7803,-2.6799,-2.5576,-2.4129,-2.2677,-2.2261,-2.1839,-2.1639,-2.1388,-2.1135,-2.1262,-2.1827,-2.2025,-2.2175,-2.2494,-2.3113,-2.3569,-3.1526,-3.0639,-3.0238,-3.049,-3.1009,-3.0484,-3.0646,-3.1437,-3.1682,-3.2241,-3.2971,-3.3371,-3.4284,-3.5442,-3.5488,-3.6093,-3.694,-3.748,-3.8095,-3.8493,-3.839,-3.8248,-3.7877,-3.7463,-3.6665,-3.5357,-3.441,-3.3721,-3.3183,-3.3647,-3.4433,-3.5277,-3.5666,-3.5833,-3.5909,-3.5854,-3.5815,-3.5772,-3.5768,-3.4495,-3.2484,-3.2947,-3.3429,-3.5643,-3.5932,-3.5892,-3.5846,-3.5781,-3.5776,-3.5358,-3.4944,-3.3853,-3.192,-2.9917,-2.7177,-2.4249,-2.2081,-2.0682,-1.9854,-2.0484,-2.248,-2.7858,-3.0805,-3.2959,-3.5037,-3.5444,-3.5191,-3.5329,-3.5889,-3.5609,-3.4986,-3.4521,-3.4394,-3.424,-3.4024,-3.3951,-3.367,-3.316,-3.2446,-3.1576,-3.0523,-2.9246,-2.8066,-2.6886,-2.6457,-2.6418,-2.6233,-2.6447,-2.6779,-2.7093,-2.7503,-2.7806,-2.7955,-2.8284,-2.8905,-2.8764,-2.8448,-2.7981,-2.747,-2.5833,-2.4372,-2.3182,-2.2099,-2.1862,-2.1549,-2.1273,-2.1019,-2.0892,-2.1008,-2.1514,-2.1651,-2.1651,-2.2025,-2.2531,-2.309,-3.0952,-3.0051,-2.9357,-2.964,-3.0258,-2.9824,-3.0323,-3.1392,-3.1823,-3.213,-3.2345,-3.2486,-3.3774,-3.4605,-3.4745,-3.56,-3.6257,-3.6624,-3.738,-3.7723,-3.7679,-3.7396,-3.7217,-3.7023,-3.623,-3.5553,-3.473,-3.4139,-3.3602,-3.4229,-3.4903,-3.5543,-3.5772,-3.5897,-3.5825,-3.5764,-3.5642,-3.5611,-3.5611,-3.5795,-3.5706,-3.5831,-3.5741,-3.5851,-3.5992,-3.5948,-3.5923,-3.5903,-3.5872,-3.5126,-3.4101,-3.2506,-3.0538,-2.8052,-2.5241,-2.2652,-2.1538,-2.1199,-2.1539,-2.2802,-2.6048,-2.9448,-3.0847,-3.2737,-3.498,-3.5204,-3.4966,-3.4982,-3.5551,-3.5609,-3.4973,-3.4795,-3.4697,-3.4573,-3.4354,-3.4171,-3.3705,-3.3189,-3.2362,-3.1502,-3.0286,-2.9005,-2.7826,-2.6663,-2.619,-2.6165,-2.6233,-2.6515,-2.6832,-2.7144,-2.7503,-2.7806,-2.7955,-2.8429,-2.8951,-2.8542,-2.8061,-2.7505,-2.6761,-2.4856,-2.3314,-2.2628,-2.2049,-2.1698,-2.1371,-2.1285,-2.1158,-2.1094,-2.121,-2.1388,-2.1336,-2.1463,-2.1963,-2.2457,-2.2957,-3.0194,-2.9373,-2.9134,-2.9754,-3.0609,-2.994,-3.0308,-3.1349,-3.1422,-3.1751,-3.1885,-3.169,-3.2349,-3.3733,-3.3616,-3.4134,-3.487,-3.5454,-3.5822,-3.61,-3.6512,-3.6334,-3.6168,-3.6143,-3.5645,-3.5123,-3.475,-3.4711,-3.4136,-3.4666,-3.526,-3.5608,-3.5744,-3.553,-3.4883,-3.4902,-3.5036,-3.5052,-3.523,-3.5408,-3.584,-3.5894,-3.5938,-3.597,-3.5987,-3.5953,-3.5919,-3.5947,-3.5947,-3.5293,-3.3647,-3.1481,-2.9015,-2.643,-2.3653,-2.1983,-2.0852,-2.2051,-2.2979,-2.5535,-2.897,-3.0998,-3.2584,-3.4199,-3.5232,-3.4651,-3.432,-3.3851,-3.4212,-3.4333,-3.4035,-3.4383,-3.4419,-3.4301,-3.4111,-3.3968,-3.3652,-3.3057,-3.235,-3.1445,-3.0401,-2.9307,-2.829,-2.7282,-2.6563,-2.6525,-2.6404,-2.6698,-2.6937,-2.7248,-2.7554,-2.7755,-2.7955,-2.8284,-2.8653,-2.8073,-2.7545,-2.6975,-2.6183,-2.4557,-2.3339,-2.2641,-2.2185,-2.1886,-2.1686,-2.16,-2.1474,-2.1411,-2.1411,-2.1526,-2.1348,-2.1411,-2.1963,-2.2506,-2.3113]}]]